[[{"header":{"parameterUnit":"m.s-1","parameterCategory":1,"la1":30.6,"la2":28.766,"lo1":-90.7593,"lo2":-88.6598,"dy":0.0162,"dx":0.0183,"nx":116,"ny":114,"refTime":"2023-03-26T12:00:00:Z","depth":0,"parameterNumber":2,"parameterNumberName":"U-component_of_WINDS"},"data":[0.0,0.0,0.0,0.0,0.0,0.0,0.0,0.0,0.0,0.0,0.0,0.0,0.0,0.0,0.0,0.0,0.0,0.0,0.0,0.0,0.0,0.0,0.0,0.0,0.0,0.0,0.0,0.0,0.0,0.0,0.0,0.0,0.0,0.0,0.0,0.0,0.0,0.0,0.0,0.0,0.0,0.0,0.0,0.0,0.0,0.0,0.0,0.0,0.0,0.0,0.0,0.0,0.0,0.0,0.0,0.0,0.0,0.0,0.0,0.0,0.0,0.0,0.0,0.0,0.0,0.0,0.0,0.0,0.0,0.0,0.0,0.0,0.0,0.0,0.0,0.0,0.0,0.0,0.0,0.0,0.0,0.0,0.0,0.0,0.0,0.0,0.0,0.0,0.0,0.0,0.0,0.0,0.0,0.0,0.0,0.0,0.0,0.0,0.0,0.0,0.0,0.0,0.0,0.0,0.0,0.0,0.0,0.0,0.0,0.0,0.0,0.0,0.0,0.0,0.0,0.0,0.0,0.0,0.0,0.0,0.0,0.0,0.0,0.0,0.0,0.0,0.0,0.0,0.0,0.0,0.0,0.0,0.0,0.0,0.0,0.0,0.0,0.0,0.0,0.0,0.0,0.0,0.0,0.0,0.0,0.0,0.0,0.0,0.0,0.0,0.0,0.0,0.0,0.0,0.0,0.0,0.0,0.0,0.0,0.0,0.0,0.0,0.0,0.0,0.0,0.0,0.0,0.0,0.0,0.0,0.0,0.0,0.0,0.0,0.0,0.0,0.0,0.0,0.0,0.0,0.0,0.0,0.0,0.0,0.0,0.0,0.0,0.0,0.0,0.0,0.0,0.0,0.0,0.0,0.0,0.0,0.0,0.0,0.0,0.0,0.0,0.0,0.0,0.0,0.0,0.0,0.0,0.0,0.0,0.0,0.0,0.0,0.0,0.0,0.0,0.0,0.0,0.0,0.0,0.0,0.0,0.0,0.0,0.0,0.0,0.0,0.0,0.0,0.0,0.0,0.0,0.0,0.0,0.0,0.0,0.0,0.0,0.0,0.0,0.0,0.0,0.0,0.0,0.0,0.0,0.0,0.0,0.0,0.0,0.0,0.0,0.0,0.0,0.0,0.0,0.0,0.0,0.0,0.0,0.0,0.0,0.0,0.0,0.0,0.0,0.0,0.0,0.0,0.0,0.0,0.0,0.0,0.0,0.0,0.0,0.0,0.0,0.0,0.0,0.0,0.0,0.0,0.0,0.0,0.0,0.0,0.0,0.0,0.0,0.0,0.0,0.0,0.0,0.0,0.0,0.0,0.0,0.0,0.0,0.0,0.0,0.0,0.0,0.0,0.0,0.0,0.0,0.0,0.0,0.0,0.0,0.0,0.0,0.0,0.0,0.0,0.0,0.0,0.0,0.0,0.0,0.0,0.0,0.0,0.0,0.0,0.0,0.0,0.0,0.0,0.0,0.0,0.0,0.0,0.0,0.0,0.0,0.0,0.0,0.0,0.0,0.0,0.0,0.0,0.0,0.0,0.0,0.0,0.0,0.0,0.0,0.0,0.0,0.0,0.0,0.0,0.0,0.0,0.0,0.0,0.0,0.0,0.0,0.0,0.0,0.0,0.0,0.0,0.0,0.0,0.0,0.0,0.0,0.0,0.0,0.0,0.0,0.0,0.0,0.0,0.0,0.0,0.0,0.0,0.0,0.0,0.0,0.0,0.0,0.0,0.0,0.0,0.0,0.0,0.0,0.0,0.0,0.0,0.0,0.0,0.0,0.0,0.0,0.0,0.0,0.0,0.0,0.0,0.0,0.0,0.0,0.0,0.0,0.0,0.0,0.0,0.0,0.0,0.0,0.0,0.0,0.0,0.0,0.0,0.0,0.0,0.0,0.0,0.0,0.0,0.0,0.0,0.0,0.0,0.0,0.0,0.0,0.0,0.0,0.0,0.0,0.0,0.0,0.0,0.0,0.0,0.0,0.0,0.0,0.0,0.0,0.0,0.0,0.0,0.0,0.0,0.0,0.0,0.0,0.0,0.0,0.0,0.0,0.0,0.0,0.0,0.0,0.0,0.0,0.0,0.0,0.0,0.0,0.0,0.0,0.0,0.0,0.0,0.0,0.0,0.0,0.0,0.0,0.0,0.0,0.0,0.0,0.0,0.0,0.0,0.0,0.0,0.0,0.0,0.0,0.0,0.0,0.0,0.0,0.0,0.0,0.0,0.0,0.0,0.0,0.0,0.0,0.0,0.0,0.0,0.0,0.0,0.0,0.0,0.0,0.0,0.0,0.0,0.0,0.0,0.0,0.0,0.0,0.0,0.0,0.0,0.0,0.0,0.0,0.0,0.0,0.0,0.0,0.0,0.0,0.0,0.0,0.0,0.0,0.0,0.0,0.0,0.0,0.0,0.0,0.0,0.0,0.0,0.0,0.0,0.0,0.0,0.0,0.0,0.0,0.0,0.0,0.0,0.0,0.0,0.0,0.0,0.0,0.0,0.0,0.0,0.0,0.0,0.0,0.0,0.0,0.0,0.0,0.0,0.0,0.0,0.0,0.0,0.0,0.0,0.0,0.0,0.0,0.0,0.0,0.0,0.0,0.0,0.0,0.0,0.0,0.0,0.0,0.0,0.0,0.0,0.0,0.0,0.0,0.0,0.0,0.0,0.0,0.0,0.0,0.0,0.0,0.0,0.0,0.0,0.0,0.0,0.0,0.0,0.0,0.0,0.0,0.0,0.0,0.0,0.0,0.0,0.0,0.0,0.0,0.0,0.0,0.0,0.0,0.0,0.0,0.0,0.0,0.0,0.0,0.0,0.0,0.0,0.0,0.0,0.0,0.0,0.0,0.0,0.0,0.0,0.0,0.0,0.0,0.0,0.0,0.0,0.0,0.0,0.0,0.0,0.0,0.0,0.0,0.0,0.0,0.0,0.0,0.0,0.0,0.0,0.0,0.0,0.0,0.0,0.0,0.0,0.0,0.0,0.0,0.0,0.0,0.0,0.0,0.0,0.0,0.0,0.0,0.0,0.0,0.0,0.0,0.0,0.0,0.0,0.0,0.0,0.0,0.0,0.0,0.0,0.0,0.0,0.0,0.0,0.0,0.0,0.0,0.0,0.0,0.0,0.0,0.0,0.0,0.0,0.0,0.0,0.0,0.0,0.0,0.0,0.0,0.0,0.0,0.0,0.0,0.0,0.0,0.0,0.0,0.0,0.0,0.0,0.0,0.0,0.0,0.0,0.0,0.0,0.0,0.0,0.0,0.0,0.0,0.0,0.0,0.0,0.0,0.0,0.0,0.0,0.0,0.0,0.0,0.0,0.0,0.0,0.0,0.0,0.0,0.0,0.0,0.0,0.0,0.0,0.0,0.0,0.0,0.0,0.0,0.0,0.0,0.0,0.0,0.0,0.0,0.0,0.0,0.0,0.0,0.0,0.0,0.0,0.0,0.0,0.0,0.0,0.0,0.0,0.0,0.0,0.0,0.0,0.0,0.0,0.0,0.0,0.0,0.0,0.0,0.0,0.0,0.0,0.0,0.0,0.0,0.0,0.0,0.0,0.0,0.0,0.0,0.0,0.0,0.0,0.0,0.0,0.0,0.0,0.0,0.0,0.0,0.0,0.0,0.0,0.0,0.0,0.0,0.0,0.0,0.0,0.0,0.0,0.0,0.0,0.0,0.0,0.0,0.0,0.0,0.0,0.0,0.0,0.0,0.0,0.0,0.0,0.0,0.0,0.0,0.0,0.0,0.0,0.0,0.0,0.0,0.0,0.0,0.0,0.0,0.0,0.0,0.0,0.0,0.0,0.0,0.0,0.0,0.0,0.0,0.0,0.0,0.0,0.0,0.0,0.0,0.0,0.0,0.0,0.0,0.0,0.0,0.0,0.0,0.0,0.0,0.0,0.0,0.0,0.0,0.0,0.0,0.0,0.0,0.0,0.0,0.0,0.0,0.0,0.0,0.0,0.0,0.0,0.0,0.0,0.0,0.0,0.0,0.0,0.0,0.0,0.0,0.0,0.0,0.0,0.0,0.0,0.0,0.0,0.0,0.0,0.0,0.0,0.0,0.0,0.0,0.0,0.0,0.0,0.0,0.0,0.0,0.0,0.0,0.0,0.0,0.0,0.0,0.0,0.0,0.0,0.0,0.0,0.0,0.0,0.0,0.0,0.0,0.0,0.0,0.0,0.0,0.0,0.0,0.0,0.0,0.0,0.0,0.0,0.0,0.0,0.0,0.0,0.0,0.0,0.0,0.0,0.0,0.0,0.0,0.0,0.0,0.0,0.0,0.0,0.0,0.0,0.0,0.0,0.0,0.0,0.0,0.0,0.0,0.0,0.0,0.0,0.0,0.0,0.0,0.0,0.0,0.0,0.0,0.0,0.0,0.0,0.0,0.0,0.0,0.0,0.0,0.0,0.0,0.0,0.0,0.0,0.0,0.0,0.0,0.0,0.0,0.0,0.0,0.0,0.0,0.0,0.0,0.0,0.0,0.0,0.0,0.0,0.0,0.0,0.0,0.0,0.0,0.0,0.0,0.0,0.0,0.0,0.0,0.0,0.0,0.0,0.0,0.0,0.0,0.0,0.0,0.0,0.0,0.0,0.0,0.0,0.0,0.0,0.0,0.0,0.0,0.0,0.0,0.0,0.0,0.0,0.0,0.0,0.0,0.0,0.0,0.0,0.0,0.0,0.0,0.0,0.0,0.0,0.0,0.0,0.0,0.0,0.0,0.0,0.0,0.0,0.0,0.0,0.0,0.0,0.0,0.0,0.0,0.0,0.0,0.0,0.0,0.0,0.0,0.0,0.0,0.0,0.0,0.0,0.0,0.0,0.0,0.0,0.0,0.0,0.0,0.0,0.0,0.0,0.0,0.0,0.0,0.0,0.0,0.0,0.0,0.0,0.0,0.0,0.0,0.0,0.0,0.0,0.0,0.0,0.0,0.0,0.0,0.0,0.0,0.0,0.0,0.0,0.0,0.0,0.0,0.0,0.0,0.0,0.0,0.0,0.0,0.0,0.0,0.0,0.0,0.0,0.0,0.0,0.0,0.0,0.0,0.0,0.0,0.0,0.0,0.0,0.0,0.0,0.0,0.0,0.0,0.0,0.0,0.0,0.0,0.0,0.0,0.0,0.0,0.0,0.0,0.0,0.0,0.0,0.0,0.0,0.0,0.0,0.0,0.0,0.0,0.0,0.0,0.0,0.0,0.0,0.0,0.0,0.0,0.0,0.0,0.0,0.0,0.0,0.0,0.0,0.0,0.0,0.0,0.0,0.0,0.0,0.0,0.0,0.0,0.0,0.0,0.0,0.0,0.0,0.0,0.0,0.0,0.0,0.0,0.0,0.0,0.0,0.0,0.0,0.0,0.0,0.0,0.0,0.0,0.0,0.0,0.0,0.0,0.0,0.0,0.0,0.0,0.0,0.0,0.0,0.0,0.0,0.0,0.0,0.0,0.0,0.0,0.0,0.0,0.0,0.0,0.0,0.0,0.0,0.0,0.0,0.0,0.0,0.0,0.0,0.0,0.0,0.0,0.0,0.0,0.0,0.0,0.0,0.0,0.0,0.0,0.0,0.0,0.0,0.0,0.0,0.0,0.0,0.0,0.0,0.0,0.0,0.0,0.0,0.0,0.0,0.0,0.0,0.0,0.0,0.0,0.0,0.0,0.0,0.0,0.0,0.0,0.0,0.0,0.0,0.0,0.0,0.0,0.0,0.0,0.0,0.0,0.0,0.0,0.0,0.0,0.0,0.0,0.0,0.0,0.0,0.0,0.0,0.0,0.0,0.0,0.0,0.0,0.0,0.0,0.0,0.0,0.0,0.0,0.0,0.0,0.0,0.0,0.0,0.0,0.0,0.0,0.0,0.0,0.0,0.0,0.0,0.0,0.0,0.0,0.0,0.0,0.0,0.0,0.0,0.0,0.0,0.0,0.0,0.0,0.0,0.0,0.0,0.0,0.0,0.0,0.0,0.0,0.0,0.0,0.0,0.0,0.0,0.0,0.0,0.0,0.0,0.0,0.0,0.0,0.0,0.0,0.0,0.0,0.0,0.0,0.0,0.0,0.0,0.0,0.0,0.0,0.0,0.0,0.0,0.0,0.0,5.2536,0.0,0.0,0.0,0.0,0.0,0.0,0.0,0.0,0.0,0.0,0.0,0.0,0.0,0.0,0.0,0.0,0.0,0.0,0.0,0.0,0.0,0.0,0.0,0.0,0.0,0.0,0.0,0.0,0.0,0.0,0.0,0.0,0.0,0.0,0.0,0.0,0.0,0.0,0.0,0.0,0.0,0.0,0.0,0.0,0.0,0.0,0.0,0.0,0.0,0.0,0.0,0.0,0.0,0.0,0.0,0.0,0.0,0.0,0.0,0.0,0.0,0.0,0.0,0.0,0.0,0.0,0.0,0.0,0.0,0.0,0.0,0.0,0.0,0.0,0.0,0.0,0.0,0.0,0.0,0.0,0.0,0.0,0.0,0.0,0.0,0.0,0.0,0.0,0.0,0.0,0.0,0.0,0.0,0.0,0.0,0.0,0.0,0.0,0.0,0.0,0.0,0.0,0.0,0.0,0.0,0.0,0.0,0.0,0.0,0.0,0.0,0.0,0.0,0.0,0.0,0.0,5.3667,0.0,0.0,0.0,0.0,0.0,0.0,0.0,0.0,0.0,0.0,0.0,0.0,0.0,0.0,0.0,0.0,0.0,0.0,0.0,0.0,0.0,0.0,0.0,0.0,0.0,0.0,0.0,0.0,0.0,0.0,0.0,0.0,0.0,0.0,0.0,0.0,0.0,0.0,0.0,0.0,0.0,0.0,0.0,0.0,0.0,0.0,0.0,0.0,0.0,0.0,0.0,0.0,0.0,0.0,0.0,0.0,0.0,0.0,0.0,0.0,0.0,0.0,0.0,0.0,0.0,0.0,0.0,0.0,0.0,0.0,0.0,0.0,0.0,0.0,0.0,0.0,0.0,0.0,0.0,0.0,0.0,0.0,0.0,0.0,0.0,0.0,0.0,0.0,0.0,0.0,0.0,0.0,0.0,0.0,0.0,0.0,0.0,0.0,0.0,0.0,0.0,0.0,0.0,0.0,0.0,0.0,0.0,0.0,0.0,0.0,6.2472,6.184,6.1832,6.2004,5.7782,5.5379,5.4425,0.0,0.0,0.0,0.0,0.0,0.0,0.0,0.0,0.0,0.0,0.0,0.0,0.0,0.0,0.0,0.0,0.0,0.0,0.0,0.0,0.0,0.0,0.0,0.0,0.0,0.0,0.0,0.0,0.0,0.0,0.0,0.0,0.0,0.0,0.0,0.0,0.0,0.0,0.0,4.8183,4.8183,4.8492,4.8965,4.79,0.0,0.0,0.0,0.0,0.0,0.0,0.0,0.0,0.0,0.0,0.0,0.0,0.0,0.0,0.0,0.0,0.0,0.0,0.0,0.0,0.0,0.0,0.0,0.0,0.0,0.0,0.0,0.0,0.0,0.0,0.0,0.0,0.0,0.0,0.0,0.0,0.0,0.0,0.0,0.0,0.0,0.0,0.0,5.2097,5.2266,0.0,0.0,0.0,0.0,0.0,0.0,0.0,0.0,0.0,0.0,0.0,0.0,0.0,0.0,5.914,6.0664,6.2188,6.3625,6.4491,6.5,6.5169,6.5101,6.5081,6.5094,6.4437,0.0,5.8415,5.7138,0.0,0.0,0.0,0.0,0.0,0.0,0.0,0.0,0.0,0.0,0.0,0.0,0.0,0.0,0.0,0.0,0.0,0.0,0.0,0.0,0.0,0.0,0.0,0.0,0.0,0.0,0.0,0.0,0.0,0.0,0.0,0.0,0.0,0.0,0.0,0.0,4.7527,4.922,5.0891,5.1291,5.1845,5.2452,5.1506,4.9937,4.8037,4.7056,0.0,0.0,0.0,0.0,0.0,0.0,0.0,0.0,0.0,0.0,0.0,0.0,0.0,0.0,0.0,0.0,0.0,0.0,0.0,0.0,0.0,0.0,0.0,0.0,0.0,0.0,0.0,0.0,0.0,0.0,0.0,0.0,0.0,0.0,0.0,0.0,0.0,0.0,0.0,5.2029,5.2976,5.2976,5.257,5.2131,0.0,0.0,0.0,0.0,0.0,0.0,0.0,0.0,0.0,5.9539,6.0554,6.1772,6.3226,6.4343,6.5628,6.7151,6.7861,6.8898,7.0048,6.9214,6.9282,7.0082,6.9654,6.7701,6.4498,6.0559,5.7495,5.5105,0.0,0.0,0.0,0.0,0.0,5.4537,0.0,0.0,0.0,0.0,0.0,0.0,0.0,0.0,0.0,0.0,0.0,0.0,0.0,0.0,0.0,4.3845,0.0,0.0,0.0,0.0,0.0,0.0,0.0,0.0,0.0,0.0,0.0,4.8389,5.0112,5.2021,5.4022,5.4699,5.526,5.5722,5.5068,5.2667,4.9076,4.7896,4.6839,0.0,0.0,0.0,0.0,0.0,0.0,0.0,0.0,0.0,0.0,0.0,0.0,0.0,0.0,0.0,0.0,0.0,0.0,0.0,0.0,0.0,0.0,0.0,0.0,0.0,0.0,0.0,0.0,0.0,0.0,0.0,0.0,0.0,0.0,0.0,0.0,0.0,0.0,5.3315,5.4363,5.3585,5.3653,5.3145,0.0,0.0,0.0,0.0,0.0,0.0,5.8118,5.9622,6.1719,6.4525,6.4999,6.6,6.7679,6.8605,6.9857,7.1379,7.2124,7.3341,7.4897,7.3815,7.368,7.4322,7.3578,7.209,6.9811,6.4315,6.0227,5.7205,5.528,5.4211,0.0,5.4941,5.5808,5.6593,0.0,0.0,0.0,0.0,0.0,0.0,0.0,0.0,0.0,0.0,0.0,0.0,0.0,0.0,4.6665,4.7311,4.803,4.843,0.0,0.0,0.0,0.0,0.0,0.0,0.0,0.0,0.0,5.0543,5.3168,5.553,5.7555,5.8233,5.8572,5.8572,5.7894,5.6023,5.3229,5.0636,4.9518,4.9273,0.0,0.0,0.0,0.0,0.0,0.0,0.0,0.0,0.0,0.0,0.0,0.0,0.0,0.0,0.0,0.0,0.0,0.0,0.0,0.0,0.0,0.0,0.0,0.0,0.0,0.0,0.0,0.0,0.0,0.0,0.0,0.0,0.0,0.0,0.0,0.0,0.0,0.0,0.0,5.3822,5.5919,0.0,0.0,0.0,0.0,5.5462,5.8152,6.0452,6.2028,6.3531,6.5358,6.7624,6.9079,7.0928,7.3094,7.4525,7.6014,7.7561,7.8314,7.872,7.8822,7.8729,7.7976,7.669,7.5879,7.4661,7.2925,6.8368,6.4715,6.1927,6.0336,5.9821,5.9933,5.9817,5.9922,6.0121,0.0,0.0,0.0,0.0,0.0,0.0,0.0,0.0,0.0,0.0,0.0,0.0,0.0,4.7865,4.9866,5.1383,5.2153,5.1783,5.0051,0.0,0.0,0.0,0.0,0.0,0.0,0.0,5.0574,5.3906,5.6207,5.8393,6.0393,6.1071,6.1379,6.1317,6.0209,5.8947,5.7377,5.3345,5.0882,4.9539,4.7446,4.6485,0.0,0.0,0.0,0.0,0.0,0.0,0.0,0.0,0.0,0.0,0.0,0.0,0.0,0.0,0.0,0.0,0.0,0.0,0.0,0.0,0.0,0.0,0.0,0.0,0.0,0.0,0.0,0.0,0.0,0.0,0.0,0.0,0.0,0.0,0.0,0.0,0.0,5.7915,6.0791,0.0,0.0,5.996,6.0501,6.0047,6.2753,6.5087,6.6609,6.8571,7.0872,7.3612,7.4221,7.5337,7.7096,7.713,7.7459,7.8,7.8247,7.8653,7.9067,7.8619,7.8348,7.828,7.7502,7.6318,7.4762,7.2699,6.8944,6.4363,6.2888,6.1757,6.1104,6.196,6.2333,6.244,0.0,0.0,0.0,0.0,0.0,0.0,0.0,0.0,0.0,0.0,0.0,4.371,4.7527,5.0605,5.3098,5.4945,5.5068,5.4091,5.1867,0.0,0.0,0.0,4.573,0.0,0.0,5.0543,5.3252,5.6399,5.8916,6.0824,6.2179,6.3102,6.3379,6.3106,6.221,6.1317,6.024,5.6884,5.3868,5.119,4.8912,4.8159,4.8079,0.0,0.0,0.0,0.0,0.0,0.0,0.0,0.0,0.0,0.0,0.0,0.0,0.0,0.0,0.0,0.0,0.0,0.0,0.0,0.0,0.0,0.0,0.0,0.0,0.0,0.0,0.0,0.0,0.0,0.0,0.0,0.0,0.0,0.0,0.0,6.2584,6.2042,6.5527,6.688,6.414,6.5019,6.5561,6.5074,6.7523,6.9722,7.1244,7.2969,7.5168,7.7942,7.7773,7.8483,8.0209,7.9228,7.8855,7.9117,7.888,7.8991,7.9464,7.8957,7.8855,7.9067,7.8585,7.7502,7.6048,7.5303,7.236,6.8153,6.644,6.5019,6.4038,6.4695,6.5155,6.5405,0.0,0.0,0.0,0.0,0.0,0.0,0.0,0.0,0.0,0.0,4.1542,4.4991,4.8337,5.2975,5.6392,5.7832,5.6601,5.5161,5.3783,4.8635,0.0,0.0,0.0,0.0,4.9774,5.3737,5.6508,5.7956,6.1255,6.286,6.2922,6.4303,6.458,6.3906,6.3875,6.3137,6.1902,6.1194,5.8608,5.4706,5.1959,5.1159,5.1313,0.0,0.0,0.0,0.0,0.0,0.0,0.0,0.0,0.0,0.0,0.0,0.0,0.0,0.0,0.0,0.0,0.0,0.0,0.0,0.0,0.0,0.0,0.0,0.0,0.0,0.0,0.0,0.0,0.0,0.0,0.0,0.0,0.0,5.8979,6.3024,6.592,6.5954,6.9891,7.121,6.7523,6.918,7.0488,7.0454,7.2485,7.4346,7.5743,7.6555,7.7976,8.0141,7.9532,8.015,8.2306,8.0919,8.0547,8.1283,8.0547,8.0209,8.0209,8.0209,7.9803,7.9135,7.9135,7.8314,7.6893,7.6082,7.4897,7.3364,7.1131,6.9823,6.9079,6.8301,6.847,6.9011,0.0,0.0,0.0,0.0,0.0,0.0,0.0,0.0,0.0,0.0,4.3156,4.7804,5.1199,5.5807,5.9408,6.1255,5.8418,5.5708,5.3814,0.0,0.0,0.0,4.6973,0.0,5.2544,5.5622,5.8577,6.144,6.3379,6.458,6.5072,6.5965,6.6242,6.6029,6.5565,6.5134,6.4703,6.3502,6.2029,6.0152,5.5476,5.2553,5.0759,0.0,0.0,0.0,0.0,0.0,0.0,0.0,0.0,0.0,0.0,0.0,0.0,0.0,0.0,0.0,0.0,0.0,0.0,0.0,0.0,0.0,0.0,0.0,0.0,0.0,0.0,0.0,0.0,0.0,0.0,0.0,0.0,6.0622,6.1366,6.6711,7.077,7.13,7.5303,7.7232,7.51,7.6454,7.6995,7.5936,7.7401,7.8314,7.8179,7.8889,7.9566,8.0175,8.0006,8.0175,8.0784,8.0412,8.031,8.0479,8.031,8.0209,8.0209,8.0209,8.0073,7.9904,7.9904,7.9363,7.845,7.7671,7.6454,7.4864,7.2665,7.1345,7.0647,7.0444,7.0161,6.9789,0.0,0.0,0.0,0.0,0.0,0.0,0.0,0.0,0.0,0.0,4.451,4.9558,5.2368,5.6946,6.0147,6.104,5.7931,5.4791,5.2206,0.0,0.0,0.0,4.9097,5.2214,5.5776,5.8793,6.1409,6.3687,6.5072,6.578,6.5934,6.686,6.7168,6.6891,6.6796,6.6552,6.6273,6.5445,6.4706,6.381,6.0337,5.7192,5.4299,5.2329,5.1097,5.0297,4.9466,4.975,5.0389,4.9056,0.0,0.0,0.0,0.0,0.0,0.0,0.0,0.0,0.0,0.0,0.0,0.0,0.0,0.0,0.0,0.0,0.0,0.0,0.0,0.0,0.0,0.0,0.0,0.0,6.2448,6.5831,6.8132,7.1548,7.4525,7.6545,7.9329,8.0784,7.9938,8.0885,8.1224,8.0344,8.1088,8.1528,8.1401,8.1224,8.1393,8.2035,8.146,8.1257,8.1562,8.0953,8.0648,8.0648,8.0344,8.0209,8.0209,8.0209,8.0209,0.0,8.0209,7.9769,7.9058,7.828,7.7266,0.0,0.0,0.0,0.0,0.0,7.1109,7.0128,0.0,0.0,0.0,0.0,0.0,0.0,0.0,0.0,0.0,0.0,0.0,5.0205,5.2144,5.6607,5.9249,5.8726,5.6115,5.3076,0.0,0.0,4.7219,4.8142,5.2737,5.6491,5.9095,6.2364,6.4368,6.5134,6.6488,6.6827,6.6273,6.7598,6.7906,6.7381,6.7968,6.7906,6.7321,6.726,6.6888,6.6304,6.5626,6.3164,5.9624,5.71,5.6023,5.5592,5.3806,5.2865,5.2293,5.0938,0.0,0.0,0.0,0.0,0.0,0.0,0.0,0.0,0.0,0.0,0.0,0.0,0.0,0.0,0.0,0.0,0.0,0.0,0.0,0.0,0.0,0.0,0.0,0.0,6.7409,7.236,7.6792,7.6995,7.7874,8.1046,8.2137,8.2644,8.2543,8.3186,8.3592,8.349,8.349,8.3761,8.4309,0.0,0.0,0.0,0.0,8.2712,8.3355,8.2069,8.1393,8.1418,8.0682,8.031,8.031,8.0242,8.0209,8.0209,8.0209,7.9837,7.916,7.8348,7.7502,7.6623,7.5168,7.4153,7.3432,7.2766,7.165,0.0,0.0,0.0,0.0,0.0,0.0,0.0,0.0,0.0,0.0,3.9353,4.4479,4.8573,5.0112,5.4537,5.7555,5.7956,5.4976,5.1845,0.0,4.845,4.926,5.1599,5.6269,5.9562,6.1194,6.4026,6.5842,6.6519,6.7843,6.8427,6.8335,6.969,7.0244,7.012,7.0274,7.0244,7.009,6.9536,6.9228,6.9074,6.8397,6.5103,6.0486,5.9408,5.8017,5.6539,5.6139,5.6265,5.6441,5.5091,5.4636,5.4507,5.3665,0.0,0.0,0.0,0.0,0.0,0.0,0.0,0.0,0.0,0.0,0.0,0.0,0.0,0.0,0.0,0.0,0.0,0.0,0.0,0.0,6.6102,7.121,7.598,7.9895,8.1866,8.2686,8.2238,8.3362,8.3937,8.3355,8.3937,8.414,8.3524,8.349,8.3287,8.2847,8.2577,0.0,8.2821,8.2577,8.2475,8.2611,8.234,8.2205,8.2171,0.0,0.0,8.108,8.0479,8.0209,8.0209,8.0209,8.0107,7.987,7.8551,7.7164,7.5845,7.4965,7.4153,7.35,7.3364,7.2732,7.1954,0.0,0.0,0.0,0.0,0.0,0.0,0.0,0.0,0.0,0.0,4.3648,4.7004,4.804,5.152,5.346,5.2782,4.9918,0.0,4.8583,4.9589,5.199,5.6084,5.9839,6.2764,6.4798,6.6519,6.8058,6.9443,6.9751,7.009,7.0489,7.1136,7.1259,7.0921,7.129,7.1137,7.0617,7.0491,7.0307,7.0157,6.9968,6.7873,6.4734,6.3749,6.2086,6.024,5.9901,5.9588,5.9084,5.7769,5.7073,5.6629,5.5826,5.4899,5.412,0.0,0.0,0.0,0.0,0.0,0.0,0.0,0.0,0.0,0.0,0.0,0.0,0.0,0.0,5.6359,0.0,0.0,6.7083,7.1142,7.527,7.8991,8.1968,8.3693,8.4309,8.3565,8.4505,8.4911,8.4133,8.4742,8.5046,8.4674,8.464,8.464,8.4674,8.3903,8.3693,8.4099,8.3727,8.3295,8.2949,8.2949,8.278,8.2408,8.2035,8.1663,8.1283,8.0919,8.0547,8.0209,8.0209,8.0209,8.0073,7.8585,7.7333,7.6217,7.5439,7.4931,7.4559,7.4187,7.3815,7.3409,0.0,0.0,0.0,0.0,0.0,0.0,0.0,0.0,0.0,0.0,4.254,4.5053,4.5557,4.7937,4.8726,0.0,0.0,4.5814,4.8799,5.1436,5.5068,5.9963,6.3014,6.5691,6.8029,6.8889,7.0151,7.1998,7.1598,7.1629,7.2121,7.2213,7.1875,7.123,7.1814,7.1599,7.0801,7.1016,7.0955,7.0739,7.1077,7.0492,6.9262,6.8121,6.6306,6.4306,6.3475,6.2179,6.064,5.9532,5.8479,5.7579,5.7535,5.7194,5.6714,5.5935,5.5803,0.0,0.0,0.0,0.0,0.0,0.0,0.0,0.0,0.0,5.4898,5.6256,5.866,6.1482,6.4661,6.8343,7.2142,7.5956,7.8757,8.1169,8.3227,8.4268,8.4783,8.4614,8.5452,8.5757,8.5087,8.5621,8.5993,8.5993,8.5993,8.6196,8.667,8.552,8.5148,8.5784,8.5046,8.4377,8.393,8.3795,8.3422,8.2847,8.2678,8.2306,8.1723,8.1587,8.1088,8.0412,8.0242,8.0107,7.9904,7.8686,7.7671,7.6826,7.6183,7.5845,7.5642,7.5033,7.4705,7.4434,0.0,0.0,0.0,0.0,0.0,0.0,0.0,0.0,0.0,0.0,0.0,0.0,0.0,0.0,0.0,0.0,4.6283,4.8601,5.0359,5.4661,5.8448,6.144,6.5321,6.7844,6.8766,7.0028,7.1105,7.1998,7.2763,7.2881,7.2455,7.2973,7.2912,7.2332,7.2424,7.2393,7.2238,7.1986,7.1859,7.1859,7.2176,7.1842,7.1077,7.0615,6.8828,6.6368,6.5134,6.301,6.0763,6.064,5.8941,5.7232,5.9118,5.9471,5.8875,5.7538,0.0,5.6055,5.3112,5.181,5.1269,5.1032,5.1497,5.2868,0.0,0.0,5.9152,6.2729,6.4783,6.7028,7.0737,7.2496,7.4789,7.8985,8.0675,8.1915,8.3325,8.4742,8.5384,8.4681,8.5865,8.6738,8.6643,8.671,8.6771,8.6771,8.6771,8.6535,8.5926,8.5757,8.5716,8.5817,8.5046,8.4884,8.5547,8.4843,8.4444,8.4343,8.3693,8.3321,8.3219,8.2577,8.1866,8.1148,8.0479,7.9837,7.9228,7.9058,7.8179,7.6893,7.6792,7.6318,7.5676,7.5608,7.5168,7.457,0.0,0.0,0.0,0.0,0.0,0.0,0.0,0.0,0.0,0.0,0.0,0.0,0.0,0.0,0.0,0.0,4.3636,4.714,5.1169,5.5252,5.9767,6.4825,6.743,6.9453,7.0924,7.1722,7.2736,7.4021,7.4237,7.4112,7.3676,7.395,7.3578,7.2715,7.2715,7.2619,7.2429,7.2127,7.185,7.1692,7.2263,7.1961,7.0981,6.9914,6.7709,6.5024,6.3609,6.1594,0.0,0.0,5.7648,5.7536,5.8483,5.8428,5.7783,5.6338,5.5355,0.0,5.2179,5.1663,5.1807,0.0,5.3613,5.5754,5.8531,6.0663,6.2749,6.5253,6.7931,7.0601,7.3046,7.5799,7.8431,0.0,8.2068,8.3062,8.3627,8.4612,8.4812,8.3582,8.549,8.6738,8.6298,8.667,8.657,8.5805,8.646,8.6436,8.5336,8.6016,8.6433,8.6433,8.6129,8.6129,8.6433,8.6129,8.5723,8.5283,8.4979,8.437,8.3456,8.2746,8.1765,8.0648,8.031,8.004,7.9701,7.9295,7.8729,7.8145,7.7705,7.7063,7.6352,7.5879,7.5506,7.5202,0.0,0.0,0.0,0.0,0.0,0.0,0.0,0.0,0.0,0.0,0.0,0.0,0.0,0.0,0.0,3.8654,4.1541,4.5626,5.084,5.5036,5.9988,6.5918,6.817,7.0098,7.1928,7.2701,7.3836,7.5317,7.5022,7.4713,7.4454,7.4087,7.3531,7.2757,7.2575,7.2355,7.2098,7.1807,7.1532,7.1339,7.1947,7.1525,7.0304,6.83,6.5618,6.2707,6.1335,5.9092,0.0,0.0,5.4884,5.54,5.617,5.6303,5.5977,5.4721,5.3547,5.2507,5.1588,0.0,0.0,5.4329,5.6563,5.9123,6.1615,6.4086,6.6401,6.8344,7.0988,7.3484,7.5215,7.801,8.0367,8.1486,8.2544,8.3235,8.3297,8.356,8.3227,8.1745,8.3392,8.4578,8.4216,8.601,8.6746,8.5588,8.6746,8.6993,8.5816,8.6673,8.711,8.6907,8.6907,8.6907,8.6907,8.6704,8.6332,8.5817,8.5587,8.4877,8.3795,8.305,8.2002,8.0784,8.0581,8.0378,8.0175,7.9634,7.9295,7.9025,7.828,7.7536,7.6792,7.598,7.5709,7.5608,0.0,0.0,0.0,0.0,0.0,0.0,0.0,0.0,0.0,0.0,0.0,0.0,0.0,0.0,0.0,3.7797,4.141,4.5223,4.8836,5.4368,5.9164,6.2958,6.6849,6.9545,7.0945,7.2568,7.391,7.4922,7.4559,7.4426,7.4362,7.3066,7.243,7.237,7.1737,7.1435,7.1433,7.1081,7.0951,7.0951,7.1277,7.0683,6.9208,6.6242,6.3016,5.9974,5.8889,0.0,0.0,0.0,5.0513,4.9322,5.1999,5.3515,0.0,5.3229,5.2109,0.0,0.0,0.0,5.5647,5.8245,6.0399,6.2825,6.663,6.8489,7.0353,7.3508,7.4822,7.607,7.8262,7.8716,7.9432,8.1539,8.1865,8.1867,8.1962,8.1377,8.0434,7.9094,7.9051,7.9404,0.0,8.4882,8.7688,8.7109,8.8257,8.87,8.7934,8.7928,8.7651,8.6941,8.6907,8.6907,8.6907,8.6196,8.5817,8.579,8.5012,8.4614,8.4546,8.3795,8.305,8.2306,8.1562,8.0851,8.0209,8.0175,7.9769,7.9025,7.828,7.7536,7.6792,7.598,7.5709,7.5709,0.0,0.0,0.0,0.0,0.0,0.0,0.0,0.0,0.0,0.0,0.0,0.0,0.0,0.0,0.0,0.0,3.9871,4.3072,4.6334,5.1371,5.6188,6.0533,6.4968,6.8122,6.9935,7.1582,7.2918,7.3892,7.4057,7.3779,7.3156,7.3093,7.2691,7.2073,7.1801,7.1711,7.1681,7.1163,7.1158,7.143,7.0043,6.9351,6.8654,6.3896,5.961,5.5777,0.0,0.0,0.0,0.0,0.0,0.0,4.9393,0.0,0.0,4.9077,0.0,0.0,0.0,0.0,5.8332,6.1451,6.3742,6.6182,6.9753,7.1229,7.2292,7.3805,7.3988,7.3768,7.3576,7.4631,7.6047,7.7645,7.9019,8.0359,8.1793,8.2143,8.1061,7.7781,7.9485,0.0,0.0,0.0,0.0,8.3701,8.5009,8.6094,8.6788,8.7603,8.7979,8.7775,8.7274,8.7007,8.7007,8.6774,8.6633,8.6501,8.5222,8.4343,8.3862,8.3625,8.3084,8.2408,8.2137,8.1596,8.0919,8.0919,8.0479,7.9803,7.9566,7.9025,7.828,7.7502,7.6927,7.642,0.0,0.0,0.0,0.0,0.0,0.0,0.0,0.0,0.0,0.0,0.0,0.0,0.0,0.0,0.0,0.0,0.0,4.1025,4.3738,4.7628,5.1843,5.6383,5.9908,6.2777,6.5019,6.6035,6.7215,6.8628,6.9147,6.954,6.9831,7.0222,7.0185,6.9782,6.9542,6.9572,6.9752,6.9093,6.8764,6.8586,6.6643,6.5292,6.3886,5.9071,5.511,0.0,0.0,0.0,0.0,0.0,0.0,0.0,0.0,0.0,0.0,0.0,0.0,0.0,0.0,5.7721,6.1216,6.5187,6.7333,6.9236,7.2027,7.3042,7.3198,7.2672,7.1936,7.0954,6.9452,7.0199,7.1789,7.3989,7.561,7.7557,8.019,8.0215,7.9088,7.6745,7.7711,7.7548,0.0,0.0,0.0,8.1155,8.3062,8.4617,8.572,8.6796,8.726,8.7058,8.6861,8.6499,8.6006,8.6006,8.5802,8.5459,8.4679,8.406,8.3618,8.3812,8.3355,8.2408,8.2408,8.1832,8.0885,8.0885,8.0615,8.0175,7.9904,7.9532,7.9025,7.8247,7.7536,7.6792,0.0,0.0,0.0,0.0,0.0,0.0,0.0,0.0,0.0,0.0,0.0,0.0,0.0,0.0,0.0,0.0,0.0,0.0,4.1074,4.3384,4.6518,5.0661,5.2288,5.431,5.6851,5.668,5.7673,5.9964,6.0565,6.2123,6.4605,6.4605,6.4934,6.5533,6.4874,6.4934,6.5503,6.4845,6.3917,6.2718,6.1313,5.889,5.5773,5.2396,0.0,0.0,0.0,0.0,0.0,0.0,0.0,0.0,0.0,0.0,0.0,0.0,0.0,5.4168,5.877,6.1607,6.4446,6.9305,7.1015,7.196,7.356,7.3857,7.3103,7.0463,6.9001,6.7684,0.0,0.0,6.7045,7.0709,7.2014,7.3898,7.7669,7.6257,7.515,0.0,0.0,0.0,0.0,0.0,0.0,7.9605,0.0,8.4172,8.5076,8.5724,8.5725,8.5014,8.566,8.5337,8.3979,8.3976,8.3652,8.2972,8.3542,8.382,8.3815,8.4344,8.3802,8.2475,8.2475,8.1629,8.0242,8.0242,8.0242,8.0141,7.9431,7.916,7.9092,7.8314,7.7604,7.6893,0.0,0.0,0.0,0.0,0.0,0.0,0.0,0.0,0.0,0.0,0.0,0.0,0.0,0.0,0.0,0.0,0.0,0.0,3.8362,4.1299,4.3908,4.5992,4.9712,5.2474,5.4156,5.462,5.5824,5.7842,5.7599,5.8022,5.9129,5.9129,5.9219,5.9368,5.9189,5.9219,5.9368,5.9189,5.9219,5.9162,0.0,5.5748,5.5055,0.0,0.0,0.0,0.0,0.0,0.0,0.0,0.0,0.0,0.0,4.6936,4.8627,0.0,0.0,5.7836,6.1727,6.5589,6.9092,7.1617,7.2771,7.341,7.3892,7.2835,7.1134,6.8941,6.6355,6.3581,0.0,0.0,0.0,6.8076,7.1414,0.0,7.9954,7.989,0.0,7.7961,0.0,7.677,7.5452,7.565,0.0,0.0,7.9285,8.1202,8.4972,8.529,8.529,8.5132,8.4781,8.4209,8.3319,8.3766,8.391,8.3716,8.3772,8.382,8.3815,8.4344,8.4072,8.3219,8.3219,8.2374,8.1021,8.1021,8.0682,8.0175,8.0006,7.9938,7.9837,7.9092,7.872,7.845,0.0,0.0,0.0,0.0,0.0,0.0,0.0,0.0,0.0,0.0,0.0,0.0,0.0,0.0,0.0,0.0,0.0,0.0,0.0,3.835,4.0187,4.2053,4.4057,4.6052,4.7989,4.7818,4.8783,5.105,5.099,5.1738,5.3234,5.3558,5.3677,5.3707,5.3952,5.4251,5.4521,5.4521,5.4401,0.0,0.0,0.0,0.0,0.0,0.0,0.0,0.0,0.0,0.0,0.0,0.0,4.7063,4.867,5.0583,5.2786,5.5609,0.0,6.2188,6.6243,6.9394,7.1966,7.393,7.4263,7.3809,7.253,7.0939,6.8547,6.4495,6.1858,0.0,5.6511,0.0,0.0,0.0,0.0,0.0,7.9111,7.9384,7.9127,0.0,7.9046,0.0,7.7463,7.7631,7.8265,0.0,7.9105,8.0402,8.4085,8.4349,8.4349,8.4279,8.39,8.3179,8.2213,8.257,8.2742,8.2742,8.2604,8.2567,8.2565,8.2811,8.2378,8.1381,0.0,8.0551,7.9222,7.9222,7.9156,7.9063,7.9063,7.9063,7.8996,7.8598,7.8066,7.7469,0.0,0.0,0.0,0.0,0.0,0.0,0.0,0.0,0.0,0.0,0.0,0.0,0.0,0.0,0.0,0.0,0.0,0.0,0.0,0.0,3.6759,3.9032,3.8195,3.8811,4.1224,4.0038,4.0588,4.304,4.3549,4.5035,4.7391,4.8079,4.8379,4.8409,4.9022,4.962,5.0159,5.0159,4.9523,0.0,0.0,0.0,0.0,0.0,0.0,0.0,0.0,0.0,0.0,0.0,4.8451,4.9277,5.2259,5.5139,5.8061,6.1531,6.4085,6.6822,7.1233,7.2994,7.4072,7.6091,7.5467,7.3563,7.0567,6.8421,6.5278,5.8907,0.0,5.5285,5.2977,5.4067,5.7165,6.2723,0.0,7.0263,7.724,7.7361,7.777,8.0759,7.9747,7.9162,8.0032,7.9602,7.9784,8.1007,8.0481,8.1019,8.3065,8.3321,8.3255,8.2846,8.2723,8.2108,8.0975,8.0979,8.0979,8.0944,8.0972,8.0964,8.0933,8.0844,8.0086,7.8827,0.0,0.0,7.6722,7.6722,7.7014,7.7467,7.7467,7.7467,7.7467,7.7467,7.669,7.5654,0.0,0.0,0.0,0.0,0.0,0.0,0.0,0.0,0.0,0.0,3.6148,3.5533,0.0,0.0,0.0,0.0,0.0,0.0,0.0,0.0,0.0,3.7716,3.8584,3.9511,4.0546,3.978,4.0187,0.0,0.0,4.1594,4.2601,4.3279,4.3609,4.3638,4.4237,4.4545,4.4685,4.4685,4.4536,0.0,0.0,0.0,0.0,0.0,0.0,0.0,0.0,0.0,0.0,0.0,5.2168,5.3554,5.6073,5.9235,6.2535,6.553,6.8269,7.1004,7.4324,7.6253,7.7375,7.7524,7.578,7.3144,6.9901,6.5622,0.0,0.0,5.3408,5.1539,4.9516,5.2929,5.7701,6.2781,6.6944,7.1986,7.9006,7.9052,7.9311,0.0,0.0,0.0,0.0,0.0,0.0,0.0,0.0,8.2065,8.3335,8.3167,8.2498,8.1426,8.0781,8.0355,8.0111,8.0457,8.0457,8.0147,8.071,8.0803,8.0514,8.072,8.0316,7.9509,0.0,0.0,7.7435,7.7435,7.7176,7.6755,7.6755,7.6755,7.6755,7.6755,7.6625,7.6399,0.0,0.0,0.0,0.0,0.0,0.0,0.0,3.6237,3.6477,3.7764,3.7375,3.7015,3.7015,3.6716,3.6626,0.0,0.0,0.0,0.0,0.0,0.0,0.0,0.0,0.0,0.0,0.0,0.0,0.0,0.0,0.0,0.0,0.0,0.0,0.0,0.0,0.0,0.0,0.0,0.0,0.0,0.0,0.0,0.0,0.0,0.0,0.0,0.0,0.0,0.0,0.0,5.2636,5.6372,6.0303,6.3672,6.67,6.946,7.1893,7.4294,7.6729,7.8717,7.9845,7.8615,7.6096,7.2505,6.7148,0.0,0.0,0.0,5.0092,4.8895,4.7938,5.1828,5.6273,5.9672,6.3404,6.8468,7.5949,7.626,0.0,8.2012,0.0,0.0,0.0,0.0,0.0,0.0,0.0,0.0,8.3666,8.2857,8.208,8.1479,8.0447,7.99,7.99,8.0076,8.0182,8.0217,7.9869,7.972,7.9691,7.8939,7.8282,7.7776,0.0,0.0,7.5723,7.5723,7.5534,7.525,7.525,7.525,7.525,7.525,7.5029,7.4713,0.0,0.0,0.0,0.0,0.0,0.0,0.0,3.6985,3.7315,3.9038,3.9008,3.8829,3.8829,3.8093,3.7554,0.0,0.0,0.0,0.0,0.0,0.0,0.0,0.0,0.0,0.0,0.0,0.0,0.0,0.0,0.0,0.0,0.0,0.0,0.0,0.0,0.0,0.0,0.0,0.0,0.0,0.0,0.0,0.0,0.0,0.0,0.0,0.0,0.0,0.0,0.0,5.1887,5.6735,6.1883,6.6041,6.9423,7.1637,7.421,7.6724,7.8699,8.0674,8.1721,7.9716,7.6335,7.1637,6.4694,5.9066,0.0,0.0,4.7549,4.713,4.7279,5.0631,5.4192,0.0,5.9787,6.4605,7.2385,7.3522,7.5796,0.0,8.3367,0.0,0.0,0.0,0.0,0.0,0.0,0.0,8.3489,8.2419,8.1632,8.1256,8.0228,7.9653,7.9653,7.9759,7.9839,7.9898,7.888,7.841,7.8495,7.7105,7.6347,7.6085,0.0,0.0,0.0,7.4122,7.3999,7.3968,7.3845,7.3783,7.3783,7.3783,7.3445,7.3014,0.0,0.0,0.0,0.0,0.0,0.0,0.0,3.7357,3.8452,4.1632,4.0984,4.0217,4.0217,3.908,3.8063,0.0,0.0,0.0,0.0,0.0,0.0,0.0,0.0,0.0,0.0,0.0,0.0,0.0,0.0,0.0,0.0,0.0,0.0,0.0,0.0,0.0,0.0,0.0,0.0,0.0,0.0,0.0,0.0,0.0,0.0,0.0,0.0,0.0,0.0,0.0,0.0,5.2552,5.7247,6.3439,6.9183,7.0021,0.0,0.0,8.0075,8.205,8.303,8.1093,7.6305,7.0532,6.4485,0.0,0.0,4.8117,4.6839,4.657,4.7189,4.9082,5.2013,5.6376,5.9398,6.3737,7.1038,7.4121,7.7173,8.1362,0.0,0.0,0.0,0.0,0.0,0.0,0.0,0.0,0.0,8.1627,8.073,7.9107,7.8957,7.8897,7.8897,7.9255,7.899,7.8069,7.7984,7.752,7.6641,7.6556,7.646,7.6465,0.0,0.0,0.0,7.4491,7.3999,7.3937,7.3322,7.3107,7.3107,7.3107,7.3076,7.3014,0.0,0.0,0.0,0.0,0.0,0.0,3.7225,3.7387,3.8302,4.0864,4.1074,4.0846,4.0457,3.9918,3.902,3.7507,0.0,0.0,0.0,0.0,0.0,0.0,0.0,0.0,0.0,0.0,0.0,0.0,0.0,0.0,0.0,0.0,0.0,0.0,0.0,0.0,0.0,0.0,0.0,0.0,0.0,0.0,0.0,0.0,0.0,0.0,0.0,0.0,0.0,0.0,0.0,0.0,5.0667,5.5478,0.0,0.0,7.1338,7.5647,7.9238,8.2499,8.4145,8.1003,7.6006,7.0141,6.3438,0.0,5.078,4.7908,4.6749,4.651,4.7189,4.8596,5.0631,5.3653,5.473,5.7666,6.4964,6.6909,7.038,7.7921,8.0554,0.0,0.0,0.0,0.0,0.0,0.0,0.0,0.0,8.1301,8.0522,7.9447,7.8998,7.8789,7.8789,7.8969,7.8956,7.8757,7.8378,7.7893,7.7262,7.6698,7.6318,7.6124,0.0,0.0,0.0,7.5125,7.4578,7.3968,7.3691,7.3384,7.3014,7.3014,7.3014,7.3014,0.0,0.0,0.0,0.0,0.0,3.5938,3.7225,3.7387,3.8123,4.0127,4.0636,4.0696,4.0427,3.9858,3.911,3.8075,3.7823,0.0,0.0,0.0,0.0,0.0,0.0,0.0,0.0,0.0,0.0,0.0,0.0,0.0,0.0,0.0,0.0,0.0,0.0,0.0,0.0,0.0,0.0,0.0,0.0,0.0,0.0,0.0,0.0,0.0,0.0,0.0,0.0,0.0,0.0,0.0,0.0,4.9172,5.4132,0.0,6.7867,7.2774,7.7412,8.1392,8.3487,8.0315,7.5228,6.9243,0.0,0.0,5.0219,4.7818,4.6749,4.651,4.7189,4.8207,4.9636,5.1588,5.2007,5.4406,6.1164,6.278,6.6251,7.439,0.0,0.0,0.0,0.0,0.0,0.0,0.0,0.0,0.0,8.1332,8.0704,7.9836,7.9357,7.8998,7.8789,7.8789,7.8723,7.8648,7.8131,7.761,7.6977,7.6387,7.6002,0.0,0.0,0.0,0.0,7.5112,7.4601,7.4118,7.3719,7.3258,7.2859,7.2859,7.2921,7.3014,0.0,0.0,0.0,0.0,0.0,0.0,3.7225,3.7387,3.8123,4.0127,3.981,3.966,4.0337,3.8631,3.7956,3.9272,3.8781,0.0,0.0,0.0,0.0,0.0,0.0,0.0,0.0,0.0,4.1703,4.2381,4.241,0.0,0.0,0.0,0.0,0.0,0.0,0.0,0.0,0.0,0.0,0.0,0.0,0.0,0.0,0.0,0.0,0.0,0.0,0.0,0.0,0.0,0.0,0.0,0.0,4.636,4.7945,5.5872,6.3319,7.0051,7.4689,7.834,8.0524,7.9148,7.3881,6.7448,0.0,0.0,4.968,4.7676,4.6749,4.651,4.7189,4.7848,4.8955,5.0877,5.2851,5.6047,6.1343,6.4336,6.7448,0.0,0.0,0.0,0.0,0.0,0.0,0.0,0.0,0.0,0.0,8.1818,8.1183,7.9866,7.977,7.9477,7.8789,7.8789,7.813,7.6808,7.6808,7.6155,7.4933,7.5274,7.538,0.0,0.0,0.0,0.0,7.4254,7.3826,7.4349,7.3034,7.2514,7.2484,7.2484,7.2734,7.3014,0.0,0.0,0.0,0.0,0.0,0.0,0.0,3.6477,3.7165,3.8212,3.8571,3.896,3.9631,3.8332,3.7926,3.9272,3.8362,0.0,0.0,0.0,0.0,0.0,0.0,0.0,0.0,0.0,4.2201,4.241,4.3289,4.3569,4.329,4.3788,0.0,0.0,0.0,0.0,0.0,0.0,0.0,0.0,0.0,0.0,0.0,0.0,0.0,0.0,0.0,0.0,0.0,0.0,0.0,0.0,0.0,0.0,0.0,5.0272,5.6555,0.0,6.7297,7.0827,7.2834,7.059,6.6819,6.2391,5.7782,5.3329,4.965,4.7676,4.713,4.707,4.7279,4.7489,4.8865,5.2636,5.3414,5.5234,6.0027,0.0,0.0,7.1996,7.8729,0.0,0.0,0.0,0.0,0.0,0.0,0.0,0.0,8.2477,8.1841,8.0524,8.0045,7.9716,7.9507,7.8579,7.7921,7.7502,7.7018,7.636,7.5587,7.5691,0.0,0.0,0.0,0.0,0.0,7.4541,7.4097,7.4085,7.3202,7.2531,7.2136,7.2136,7.2388,7.2671,0.0,0.0,0.0,0.0,0.0,0.0,0.0,3.5848,3.6267,3.6626,3.7045,3.7644,3.8554,3.7477,3.7298,3.8901,3.8015,0.0,0.0,0.0,0.0,0.0,0.0,0.0,0.0,4.2092,4.287,4.311,4.4167,4.4446,4.4057,4.4745,4.4566,4.3698,0.0,0.0,0.0,0.0,0.0,0.0,0.0,0.0,4.3439,0.0,0.0,0.0,0.0,0.0,0.0,0.0,0.0,0.0,0.0,0.0,0.0,0.0,5.093,0.0,0.0,6.5383,6.7298,6.5652,6.26,0.0,0.0,5.2247,4.9351,4.7668,4.7309,4.7309,4.7309,4.7519,4.8775,5.2133,5.2965,5.4665,0.0,0.0,0.0,7.2954,0.0,0.0,0.0,0.0,0.0,0.0,0.0,0.0,0.0,0.0,8.1938,8.0823,8.0405,7.9836,7.9058,7.822,7.7562,7.7083,7.6664,7.6125,7.5527,7.5527,0.0,0.0,0.0,0.0,0.0,7.4028,7.3557,7.3362,7.2664,7.2149,7.1786,7.1786,7.2104,7.2484,0.0,0.0,0.0,0.0,0.0,0.0,0.0,3.5519,3.5519,3.5519,3.5519,3.5968,3.7135,3.6207,3.6237,3.811,0.0,0.0,0.0,0.0,0.0,0.0,0.0,0.0,0.0,4.2611,4.3579,4.4296,4.5035,4.5364,4.5394,4.6091,4.5702,4.4356,4.4356,0.0,0.0,0.0,0.0,0.0,0.0,0.0,0.0,0.0,0.0,0.0,0.0,0.0,0.0,0.0,0.0,0.0,0.0,0.0,0.0,0.0,0.0,0.0,0.0,6.1014,6.3019,6.2959,0.0,0.0,0.0,5.1432,0.0,4.7578,4.7309,4.7339,4.7489,4.7908,4.8745,5.0368,0.0,0.0,0.0,6.2512,0.0,0.0,0.0,0.0,0.0,0.0,0.0,0.0,0.0,0.0,0.0,0.0,8.1452,8.0764,8.0674,7.9776,7.7891,7.7741,7.7083,7.5916,7.5856,7.5497,7.4903,7.4903,0.0,0.0,0.0,0.0,0.0,7.294,7.2397,7.24,7.1674,7.1341,7.1341,7.1341,7.1819,7.2421,0.0,0.0,0.0,0.0,0.0,0.0,0.0,0.0,0.0,0.0,3.5519,3.5593,3.5892,3.5699,3.5878,0.0,0.0,0.0,0.0,0.0,0.0,0.0,0.0,0.0,4.1403,4.2182,4.3169,4.4296,4.5493,4.6061,4.6091,4.7279,4.683,4.5065,4.5065,4.4416,0.0,0.0,0.0,0.0,0.0,0.0,0.0,0.0,0.0,0.0,4.4476,4.5095,0.0,0.0,0.0,0.0,0.0,0.0,0.0,0.0,4.5633,4.6322,4.8865,0.0,5.3329,5.2869,5.2061,5.1073,0.0,0.0,0.0,0.0,0.0,4.7736,4.9262,4.8424,4.9134,0.0,0.0,5.5867,5.9159,0.0,0.0,0.0,0.0,0.0,0.0,0.0,0.0,0.0,0.0,0.0,0.0,0.0,8.1242,8.0075,7.9537,7.9028,7.8579,7.7083,7.6215,7.5886,7.5377,7.5018,7.4903,7.4903,0.0,0.0,0.0,0.0,7.3926,7.2577,7.2038,7.1978,7.1288,7.1048,7.1048,7.1048,7.1277,7.166,0.0,0.0,0.0,0.0,0.0,0.0,0.0,0.0,0.0,0.0,0.0,3.5519,3.5519,3.5519,0.0,0.0,0.0,0.0,0.0,0.0,0.0,0.0,0.0,4.1044,4.1403,4.2312,4.3449,4.4766,4.5792,4.645,4.6779,4.7818,4.7219,4.5274,4.4676,4.3967,0.0,0.0,0.0,0.0,4.3698,0.0,0.0,0.0,0.0,0.0,4.4526,4.5185,0.0,4.651,4.7219,4.7698,0.0,0.0,0.0,0.0,4.5334,4.5005,4.5663,4.7788,4.9703,4.9366,4.9277,4.9187,4.8828,0.0,0.0,0.0,0.0,4.7728,4.9082,4.8476,0.0,0.0,5.4581,0.0,0.0,0.0,7.5258,0.0,0.0,0.0,0.0,0.0,0.0,0.0,0.0,0.0,0.0,0.0,8.0285,7.8938,7.825,7.7891,7.7891,7.6574,7.5736,7.5437,7.5048,7.4903,7.4903,7.4903,0.0,0.0,0.0,0.0,7.2894,7.1876,7.1427,7.1398,7.1038,7.0889,7.0889,7.0889,7.1113,7.1403,0.0,0.0,0.0,0.0,0.0,0.0,0.0,0.0,0.0,0.0,0.0,0.0,0.0,0.0,0.0,0.0,0.0,0.0,0.0,0.0,0.0,0.0,0.0,4.1313,4.1403,4.2581,4.3818,4.5155,4.6121,4.6929,4.7608,4.8476,4.7698,4.5544,4.4207,4.3489,0.0,0.0,0.0,0.0,4.329,0.0,0.0,0.0,0.0,0.0,0.0,0.0,0.0,4.692,4.7578,4.8169,4.8169,0.0,0.0,0.0,0.0,0.0,4.5364,4.7331,4.9097,4.8887,4.9007,4.9127,4.9007,4.8139,0.0,0.0,0.0,0.0,4.8566,4.8828,0.0,0.0,0.0,0.0,6.7928,7.1757,7.5677,0.0,0.0,0.0,0.0,0.0,0.0,0.0,0.0,0.0,0.0,0.0,0.0,7.7861,7.7048,7.6659,7.6659,7.6066,7.5467,7.4903,7.4903,7.4903,7.4903,7.4813,0.0,0.0,0.0,0.0,7.1846,7.1188,7.0889,7.0889,7.0889,7.0889,7.0889,7.0889,7.1083,7.1309,0.0,0.0,0.0,0.0,0.0,0.0,0.0,0.0,0.0,0.0,0.0,0.0,0.0,0.0,0.0,0.0,0.0,0.0,0.0,0.0,0.0,3.9391,4.0157,4.0816,4.1403,4.2152,4.3169,4.4446,4.683,4.8349,4.9037,5.078,4.9942,4.695,4.5603,4.4356,4.329,0.0,0.0,0.0,0.0,0.0,0.0,0.0,0.0,0.0,0.0,0.0,0.0,4.6211,4.6899,4.7459,4.7459,0.0,0.0,0.0,0.0,0.0,4.6501,4.7698,4.8199,4.7018,4.7608,4.8319,4.7728,4.7459,0.0,0.0,0.0,0.0,0.0,5.1229,0.0,0.0,0.0,0.0,0.0,0.0,0.0,0.0,0.0,0.0,0.0,0.0,0.0,0.0,0.0,0.0,0.0,0.0,0.0,7.7831,7.6664,7.6036,7.6036,7.5377,7.5023,7.4903,7.4903,7.4903,7.4903,7.43,7.4001,0.0,0.0,7.1996,7.1846,7.1188,7.0889,7.0889,7.0889,7.0889,7.0889,7.0889,7.0921,7.1048,0.0,0.0,0.0,0.0,0.0,0.0,0.0,0.0,0.0,0.0,0.0,0.0,0.0,0.0,0.0,0.0,0.0,0.0,0.0,0.0,0.0,3.99,4.0576,4.1074,4.1403,4.275,4.4257,4.5933,4.7519,4.9007,5.0331,5.0152,4.8895,4.6689,4.5364,4.4207,4.329,4.329,4.3499,0.0,0.0,0.0,0.0,0.0,0.0,0.0,0.0,0.0,0.0,0.0,4.7309,4.7848,4.7848,0.0,0.0,0.0,0.0,0.0,4.5544,4.6441,4.716,4.6899,4.8386,4.9613,4.8618,4.8379,0.0,0.0,0.0,0.0,0.0,0.0,0.0,0.0,0.0,0.0,0.0,0.0,0.0,0.0,0.0,0.0,0.0,0.0,0.0,0.0,0.0,0.0,0.0,0.0,0.0,0.0,7.6215,7.5736,7.5347,7.4689,7.4544,7.4903,7.4151,7.4001,7.433,7.3672,7.3163,7.2774,0.0,7.1697,7.1338,7.1038,7.0889,7.0889,7.0889,7.0889,7.0889,7.0889,7.0889,7.0921,0.0,0.0,0.0,0.0,0.0,0.0,0.0,0.0,0.0,0.0,0.0,0.0,0.0,0.0,0.0,0.0,0.0,0.0,0.0,0.0,3.9631,4.0157,4.0954,4.1553,4.1833,4.3599,4.5433,4.7309,4.8416,4.9912,5.1648,4.9823,4.8117,4.648,4.5134,4.4057,4.329,4.329,4.3609,4.4027,0.0,0.0,0.0,0.0,0.0,0.0,0.0,0.0,0.0,0.0,0.0,0.0,0.0,0.0,0.0,4.6839,4.5963,4.5274,4.5244,4.5852,4.6689,4.7369,4.9045,5.0481,5.0265,0.0,0.0,0.0,0.0,0.0,0.0,5.6312,0.0,0.0,0.0,0.0,0.0,0.0,0.0,0.0,0.0,0.0,0.0,0.0,0.0,0.0,0.0,0.0,0.0,0.0,0.0,0.0,7.5617,7.5258,7.4903,7.3911,7.3821,7.4663,7.3462,7.3193,7.3642,7.2984,7.2385,7.1876,7.1727,7.1368,7.0889,7.0889,7.0889,7.0889,7.0889,7.0889,7.0889,7.0889,7.0889,7.0951,0.0,0.0,0.0,0.0,0.0,0.0,0.0,0.0,0.0,0.0,0.0,0.0,0.0,0.0,0.0,0.0,0.0,0.0,0.0,0.0,3.9421,3.9481,4.0696,4.1953,4.316,4.4526,4.5903,4.7309,4.977,5.1708,5.3049,5.1648,4.9673,4.7189,4.5813,4.4506,4.329,4.329,4.3319,4.3369,4.3319,0.0,0.0,0.0,0.0,0.0,0.0,0.0,0.0,0.0,0.0,0.0,0.0,0.0,4.7369,4.7279,4.6322,4.5693,4.754,4.7638,4.7399,4.8057,4.8379,0.0,5.224,5.2426,0.0,5.4431,0.0,0.0,0.0,0.0,0.0,0.0,0.0,0.0,0.0,0.0,0.0,0.0,0.0,0.0,0.0,0.0,0.0,0.0,0.0,0.0,0.0,0.0,0.0,0.0,0.0,7.43,7.4903,7.3017,7.2684,7.3941,7.3253,7.2954,7.2954,7.2265,7.1936,7.1879,7.1248,7.0949,7.0889,7.0889,7.0889,7.0889,7.0889,7.0889,7.0889,7.0889,7.0889,7.0889,0.0,0.0,0.0,0.0,0.0,0.0,0.0,0.0,0.0,0.0,0.0,0.0,0.0,0.0,0.0,0.0,0.0,0.0,0.0,3.902,3.9601,4.0008,4.0905,4.1983,4.326,4.5433,4.7608,4.9733,5.1977,5.3114,5.3139,5.0571,4.8416,4.66,4.5274,4.4147,4.329,4.329,4.3549,4.3878,4.3489,4.3549,0.0,0.0,0.0,0.0,0.0,0.0,0.0,0.0,4.71,4.7309,4.7309,4.7309,4.7219,4.6779,4.6022,4.5364,4.5723,4.6531,4.7549,4.8648,4.9845,0.0,0.0,5.4551,0.0,0.0,0.0,0.0,0.0,0.0,0.0,0.0,0.0,0.0,0.0,0.0,0.0,0.0,0.0,0.0,0.0,0.0,0.0,0.0,0.0,0.0,0.0,0.0,0.0,0.0,0.0,7.3612,7.427,7.2684,7.2146,7.2654,7.1966,7.1876,7.2265,7.1577,7.1278,7.1248,7.1009,7.0889,7.0889,7.0889,7.0889,7.0889,7.0889,7.0889,7.0889,7.0889,7.0889,7.0889,0.0,0.0,0.0,0.0,0.0,0.0,0.0,0.0,0.0,0.0,0.0,0.0,0.0,0.0,0.0,0.0,0.0,0.0,3.8033,3.8913,3.9601,4.0068,4.0726,4.1683,4.3,4.5633,4.8177,5.0601,5.2815,5.3234,5.1911,4.9666,4.7908,4.654,4.5194,4.4356,4.3908,4.3698,4.3758,4.3967,4.3728,4.3758,0.0,0.0,0.0,0.0,0.0,0.0,0.0,0.0,4.7309,4.7309,4.7309,4.7309,4.7189,4.651,4.5843,4.5155,4.4476,4.5454,4.695,0.0,0.0,0.0,5.5478,5.7423,5.9548,0.0,0.0,0.0,0.0,0.0,0.0,0.0,0.0,0.0,0.0,0.0,0.0,0.0,0.0,0.0,0.0,0.0,0.0,0.0,0.0,0.0,0.0,0.0,0.0,0.0,0.0,0.0,7.3582,7.2235,7.1667,7.1876,7.1218,7.1128,7.1547,7.1098,7.0889,7.0889,7.0889,7.0889,7.0889,7.0889,7.0889,7.0889,7.0889,7.0889,7.0889,7.0889,7.0889,7.0889,0.0,0.0,0.0,0.0,0.0,0.0,0.0,0.0,0.0,0.0,0.0,0.0,0.0,0.0,0.0,0.0,0.0,0.0,3.7387,3.8644,3.9391,3.9391,4.0068,4.1044,4.2351,4.4945,4.7279,4.9307,5.1911,5.1851,4.9299,4.9299,4.8558,4.7219,4.5903,4.5304,4.5244,4.4586,4.3938,4.3369,4.4027,4.3908,4.3439,0.0,0.0,0.0,0.0,0.0,0.0,0.0,4.7309,4.7309,4.7309,4.7309,4.7189,4.651,4.5822,4.5155,4.4476,4.4796,4.5484,0.0,0.0,0.0,5.8919,6.1164,6.3228,0.0,0.0,0.0,0.0,0.0,0.0,0.0,0.0,0.0,0.0,0.0,0.0,0.0,0.0,0.0,0.0,0.0,0.0,0.0,0.0,0.0,0.0,0.0,0.0,0.0,0.0,0.0,7.286,7.1577,7.1218,7.1876,7.1218,7.0889,7.0889,7.0889,7.0889,7.0889,7.0889,7.0889,7.0889,7.0889,7.0889,7.0889,7.0889,7.0889,7.0889,7.0889,7.0889,7.0889,0.0,0.0,0.0,0.0,0.0,0.0,0.0,0.0,0.0,0.0,0.0,0.0,0.0,0.0,0.0,0.0,0.0,0.0,3.7387,3.8644,3.9391,3.9391,4.0487,4.1283,4.1673,4.4257,4.7249,5.0631,5.0936,5.0242,4.8588,4.7638,4.6741,4.5903,4.5992,4.5463,4.4616,4.4885,4.4616,4.4057,4.4736,4.4885,4.4766,0.0,0.0,0.0,0.0,0.0,0.0,0.0,0.0,0.0,4.7309,4.7608,4.7788,4.6629,4.6151,4.5732,4.4596,4.5134,0.0,4.8521,0.0,0.0,0.0,6.2539,0.0,0.0,0.0,0.0,0.0,0.0,0.0,0.0,0.0,0.0,0.0,0.0,0.0,0.0,0.0,0.0,0.0,0.0,0.0,0.0,0.0,0.0,0.0,0.0,0.0,0.0,0.0,0.0,7.2176,7.1338,7.1009,7.1188,7.1009,7.0889,7.0889,7.0889,7.0889,7.0889,7.0889,7.0889,7.0889,7.0889,7.0889,7.0889,7.0889,7.0889,7.0889,7.0889,7.0889,7.0889,0.0,0.0,0.0,0.0,0.0,0.0,0.0,0.0,0.0,0.0,0.0,0.0,0.0,0.0,0.0,0.0,0.0,0.0,0.0,3.8644,3.9391,3.9391,4.0427,4.1354,4.2132,4.4496,4.66,4.8454,4.8843,4.8245,4.6711,4.7249,4.698,4.6172,4.7587,4.7228,4.5544,4.6202,4.5633,4.4416,4.5603,4.5783,4.5394,0.0,0.0,0.0,0.0,0.0,0.0,0.0,0.0,0.0,4.7309,4.7399,4.7309,4.6232,4.5882,4.5672,4.4596,4.5693,0.0,5.0338,5.4012,5.8381,6.3826,0.0,0.0,0.0,0.0,0.0,0.0,0.0,0.0,0.0,0.0,0.0,0.0,0.0,0.0,0.0,0.0,0.0,0.0,0.0,0.0,0.0,0.0,0.0,0.0,0.0,0.0,0.0,0.0,0.0,7.1487,7.1098,7.0889,7.0889,7.0889,7.0889,7.0889,7.0889,7.0889,7.0889,7.0889,7.0889,7.0889,7.0889,7.0889,7.0889,7.0889,7.0889,7.0889,7.0889,7.0889,7.0889,0.0,0.0,0.0,0.0,0.0,0.0,0.0,0.0,0.0,0.0,0.0,0.0,0.0,0.0,0.0,0.0,0.0,0.0,0.0,0.0,3.9391,3.9391,4.0098,4.1384,4.326,4.5104,4.5433,4.4207,4.6172,4.6142,4.4267,4.763,4.8528,4.7429,4.9949,4.971,4.7429,4.7967,4.677,4.4655,4.6561,4.6561,4.5663,4.7489,0.0,0.0,0.0,0.0,0.0,0.0,0.0,0.0,4.7309,4.6869,4.6241,4.5514,4.5334,4.5274,4.4655,4.6411,4.9067,5.1858,5.5777,0.0,6.685,7.0679,0.0,0.0,0.0,0.0,0.0,0.0,0.0,0.0,0.0,0.0,0.0,0.0,0.0,0.0,0.0,0.0,0.0,0.0,0.0,0.0,0.0,0.0,0.0,0.0,0.0,0.0,0.0,0.0,7.0829,7.0769,7.0769,0.0,7.0829,7.0859,7.0889,7.0889,7.0889,7.0889,7.0889,7.0889,7.0889,7.0889,7.0889,7.0889,7.0889,7.0889,7.0889,7.0889,7.0889,7.0889,0.0,0.0,0.0,0.0,0.0,0.0,0.0,0.0,0.0,0.0,0.0,0.0,0.0,0.0,0.0,0.0,0.0,0.0,0.0,0.0,3.9391,3.9391,4.0546,4.1863,4.326,4.3708,4.3798,4.3519,4.5005,4.4975,4.3609,4.695,4.8079,4.7399,4.9471,4.9531,4.8057,4.7668,4.689,4.5942,4.6899,4.713,4.692,4.7339,4.6988,0.0,0.0,0.0,0.0,0.0,0.0,0.0,4.7309,4.7219,4.686,4.5633,4.5693,4.6061,4.5912,4.7429,5.0085,5.4306,6.0236,6.5981,6.9482,7.1637,7.3043,0.0,0.0,0.0,0.0,0.0,0.0,0.0,0.0,0.0,0.0,0.0,0.0,0.0,0.0,0.0,0.0,0.0,0.0,0.0,0.0,0.0,0.0,0.0,0.0,0.0,0.0,7.0171,7.0171,6.9662,6.9662,0.0,7.0171,7.044,7.0889,7.0889,7.0889,7.0889,7.0889,7.0889,7.0889,7.0889,7.0889,7.0889,7.0889,7.0889,7.0889,7.0889,7.0889,7.0889,0.0,0.0,0.0,0.0,0.0,0.0,0.0,0.0,0.0,0.0,0.0,0.0,0.0,0.0,0.0,0.0,0.0,0.0,0.0,0.0,3.969,4.0337,4.1343,4.2312,4.326,4.3609,4.3638,4.329,4.3997,4.4147,4.3848,4.6561,4.7638,4.7399,4.968,4.9591,4.7848,4.8117,4.7489,4.639,4.7369,4.7578,4.7339,4.7668,4.7369,4.6809,0.0,0.0,0.0,0.0,0.0,0.0,0.0,0.0,4.6202,4.5514,4.5544,4.5882,4.6211,4.8446,5.2181,5.8408,0.0,6.8555,7.0859,7.1906,7.2505,0.0,0.0,0.0,0.0,0.0,0.0,0.0,0.0,0.0,0.0,0.0,0.0,0.0,0.0,0.0,0.0,0.0,0.0,0.0,0.0,0.0,0.0,0.0,0.0,0.0,6.9842,6.9512,6.9512,6.9183,6.9183,6.9512,6.9842,7.032,7.0889,7.0889,7.0889,7.0889,7.0889,7.0889,7.0889,7.0889,7.0889,7.0889,7.0889,7.0889,7.0889,7.0889,7.0889,7.0889,0.0,0.0,0.0,0.0,0.0,0.0,0.0,0.0,0.0,0.0,0.0,0.0,0.0,0.0,0.0,0.0,0.0,0.0,0.0,0.0,0.0,4.1164,4.1762,4.2391,4.313,4.3688,4.3758,4.329,4.3429,4.3878,4.4685,4.6471,4.7369,4.7578,4.9853,4.9673,4.7698,4.8588,4.7997,4.657,4.7549,4.7698,4.7369,4.7788,4.7668,4.7309,4.7309,0.0,0.0,0.0,0.0,0.0,0.0,0.0,4.5304,4.5304,4.5304,4.5454,4.6121,4.9613,5.482,6.2181,6.643,0.0,7.1128,7.1727,7.2056,7.2624,0.0,0.0,0.0,0.0,0.0,0.0,0.0,0.0,0.0,0.0,0.0,0.0,0.0,0.0,0.0,0.0,0.0,0.0,0.0,0.0,0.0,0.0,6.9963,6.9844,6.9183,6.8824,6.8824,6.8704,6.8704,6.8824,6.9482,7.0081,7.056,7.056,7.0649,7.0739,7.062,7.0649,7.0739,7.0739,7.0799,7.0889,7.0889,7.0889,7.0889,7.0889,7.0889,7.0889,0.0,0.0,0.0,0.0,0.0,0.0,0.0,0.0,0.0,0.0,0.0,0.0,0.0,0.0,0.0,0.0,0.0,0.0,0.0,0.0,0.0,4.0487,4.0606,4.1254,4.2481,4.262,4.287,4.329,4.3878,4.4805,0.0,0.0,4.7608,4.8229,4.9127,4.9366,4.8977,4.7967,4.7429,4.7108,4.6719,4.6839,4.7249,4.6749,4.6869,4.7309,0.0,0.0,0.0,0.0,0.0,0.0,0.0,0.0,0.0,4.5304,4.5304,4.5454,4.6121,5.1289,5.7663,6.272,6.6071,6.8526,0.0,0.0,7.1939,0.0,0.0,0.0,0.0,0.0,0.0,0.0,0.0,0.0,0.0,0.0,0.0,0.0,0.0,0.0,0.0,0.0,0.0,0.0,0.0,0.0,0.0,7.0021,6.9722,6.9153,6.8465,6.8137,6.8137,6.7537,6.7537,6.8137,6.8794,6.9183,6.9243,6.9243,6.9572,7.0081,6.9512,6.9572,7.0111,7.0111,7.041,7.0889,7.0889,7.0889,7.0889,7.0889,7.0889,7.0889,0.0,0.0,0.0,0.0,0.0,0.0,0.0,0.0,0.0,0.0,0.0,0.0,0.0,0.0,0.0,0.0,0.0,0.0,0.0,0.0,0.0,4.0367,4.0397,4.1044,4.2381,4.241,4.269,4.329,4.3967,0.0,0.0,4.7758,4.8588,0.0,0.0,4.8738,4.8678,4.7698,4.7309,4.7279,4.698,4.704,4.7279,4.6958,4.704,0.0,0.0,0.0,0.0,0.0,0.0,0.0,0.0,0.0,0.0,0.0,4.5035,4.5394,4.8245,5.2486,5.7244,6.2241,6.5203,6.7418,6.9544,7.0679,7.1338,0.0,0.0,0.0,0.0,0.0,0.0,0.0,0.0,0.0,0.0,0.0,0.0,0.0,0.0,0.0,0.0,0.0,0.0,0.0,0.0,0.0,6.9453,6.9095,6.8766,6.8466,6.7418,6.6879,6.6879,6.658,6.6939,6.7987,6.8317,6.8615,6.9004,6.8585,6.8794,6.9423,6.9123,6.9153,6.9423,6.9423,6.9812,7.038,7.038,7.059,7.0889,7.0889,7.0889,7.0889,0.0,0.0,0.0,0.0,0.0,0.0,0.0,0.0,0.0,0.0,0.0,0.0,0.0,0.0,0.0,0.0,0.0,0.0,0.0,0.0,0.0,4.0127,4.0307,4.0954,4.2141,4.2321,4.269,4.329,0.0,0.0,4.6839,4.8686,4.9905,0.0,4.9486,4.8858,0.0,0.0,0.0,4.7758,4.7249,4.716,4.7279,0.0,0.0,4.7309,0.0,0.0,0.0,0.0,0.0,0.0,0.0,0.0,0.0,0.0,0.0,4.4984,4.9291,5.2276,5.5359,6.0353,6.3408,6.5922,0.0,0.0,7.0201,0.0,0.0,0.0,0.0,0.0,0.0,0.0,0.0,0.0,0.0,0.0,0.0,0.0,0.0,0.0,0.0,0.0,0.0,0.0,0.0,0.0,6.8495,6.8047,6.7598,6.7238,6.6281,6.5772,6.5772,6.5772,6.6251,6.7238,6.7419,6.7747,6.8226,6.7928,6.8047,6.8495,6.8495,6.8585,6.8734,6.8734,6.9123,6.9722,6.9722,7.0021,7.044,7.062,7.056,7.047,0.0,0.0,0.0,0.0,0.0,0.0,0.0,0.0,0.0,0.0,0.0,0.0,0.0,0.0,3.5519,3.5519,0.0,0.0,0.0,0.0,0.0,3.9451,4.0068,0.0,4.1433,4.2081,4.269,4.329,0.0,0.0,4.8207,4.9531,5.1505,5.3862,5.1917,5.0391,4.9187,0.0,0.0,0.0,0.0,0.0,0.0,0.0,0.0,0.0,0.0,0.0,0.0,0.0,0.0,0.0,0.0,0.0,0.0,0.0,0.0,0.0,4.7519,4.9912,5.2372,5.6406,6.0383,6.3767,0.0,0.0,0.0,0.0,0.0,0.0,0.0,0.0,0.0,0.0,0.0,0.0,0.0,0.0,0.0,0.0,0.0,0.0,0.0,0.0,0.0,0.0,0.0,0.0,6.7178,6.7059,6.646,6.5203,6.5084,6.5054,6.5054,6.5054,6.5084,6.5144,6.5802,6.6131,6.6191,6.6759,6.7059,6.7089,6.7089,6.7448,6.8047,6.8047,6.8466,6.9064,6.9064,6.9064,6.9183,6.9782,6.9632,6.9273,0.0,0.0,0.0,0.0,0.0,0.0,0.0,0.0,0.0,0.0,0.0,0.0,0.0,3.5878,3.6118,3.6118,3.7315,0.0,0.0,0.0,0.0,4.0019,4.0277,4.0924,4.2021,4.2291,4.269,0.0,0.0,4.5224,4.7048,4.9202,5.0518,5.1073,5.1169,5.096,5.0391,4.8476,0.0,0.0,0.0,0.0,0.0,0.0,0.0,0.0,0.0,0.0,0.0,0.0,0.0,0.0,0.0,0.0,0.0,0.0,0.0,4.5493,4.6689,4.8476,5.0953,5.488,5.7902,6.0655,6.3468,6.5473,6.6909,0.0,0.0,0.0,0.0,0.0,0.0,0.0,0.0,0.0,0.0,0.0,0.0,0.0,0.0,0.0,0.0,0.0,0.0,0.0,0.0,0.0,6.5742,6.5742,6.5503,6.5024,6.4575,6.4366,6.4366,6.4366,6.4545,6.4994,6.5233,6.5562,6.6011,6.6251,6.658,6.6999,6.6999,6.7119,6.7389,6.7389,6.7747,6.8377,6.8377,6.8615,6.9034,6.9273,6.9482,6.9692,0.0,0.0,0.0,0.0,0.0,0.0,0.0,0.0,0.0,0.0,0.0,0.0,0.0,0.0,3.6673,3.7092,3.793,3.8691,3.9361,3.9601,3.993,4.0367,4.0834,4.1493,4.2381,4.241,4.269,4.329,4.3539,4.4586,4.636,4.8304,4.9494,4.9965,5.0361,5.069,0.0,0.0,0.0,4.7938,0.0,0.0,4.7369,0.0,0.0,0.0,0.0,0.0,0.0,0.0,0.0,0.0,0.0,0.0,0.0,0.0,0.0,0.0,4.5702,4.71,4.9576,5.3558,5.5329,5.7184,6.1164,6.2899,6.3947,0.0,0.0,0.0,0.0,0.0,0.0,0.0,0.0,0.0,0.0,0.0,0.0,0.0,0.0,0.0,0.0,0.0,0.0,0.0,0.0,0.0,6.4665,6.4665,6.4456,6.4037,6.3827,6.3588,6.3348,6.3588,6.3917,6.4366,6.4575,6.4904,6.5353,6.5802,6.6251,6.667,6.6879,6.6999,6.6999,6.6999,6.7238,6.7658,6.7658,6.7926,6.8345,6.8585,6.8975,6.9395,0.0,0.0,0.0,0.0,0.0,0.0,0.0,0.0,0.0,0.0,0.0,0.0,0.0,0.0,0.0,3.835,3.8469,3.8751,3.9391,4.0038,4.0427,4.0457,0.0,0.0,0.0,4.244,4.272,4.329,4.272,4.3738,4.6271,4.695,4.8626,5.0996,4.9816,4.9553,5.0099,0.0,4.9823,4.9187,0.0,4.7339,4.7608,0.0,0.0,0.0,4.974,4.9411,0.0,0.0,0.0,0.0,0.0,0.0,0.0,0.0,0.0,0.0,0.0,0.0,0.0,0.0,0.0,0.0,5.8707,0.0,5.9338,0.0,0.0,0.0,0.0,0.0,0.0,0.0,0.0,0.0,0.0,0.0,0.0,0.0,0.0,0.0,0.0,0.0,0.0,0.0,0.0,6.4605,6.3947,6.3917,6.3348,6.2121,6.2718,6.2748,6.2091,6.2748,6.3078,6.3108,6.3677,6.3977,6.4036,6.5353,6.5951,6.6011,6.667,6.6939,6.6969,6.6969,6.6999,6.6999,6.6999,6.6999,6.7059,6.7748,6.7987,6.8197,0.0,0.0,0.0,0.0,0.0,0.0,0.0,0.0,0.0,0.0,0.0,0.0,0.0,0.0,3.8931,3.9768,3.9858,3.9918,4.0127,4.0307,4.0816,4.1792,4.2201,4.2601,4.304,4.304,4.313,4.329,4.313,4.3668,4.4865,4.5544,4.6501,0.0,4.8297,4.8117,4.7407,4.7886,0.0,0.0,4.7848,4.8125,0.0,0.0,0.0,0.0,0.0,4.9956,0.0,0.0,4.9411,4.9232,0.0,0.0,0.0,0.0,0.0,0.0,4.5334,0.0,0.0,0.0,0.0,0.0,0.0,0.0,0.0,0.0,0.0,0.0,0.0,0.0,0.0,0.0,0.0,0.0,0.0,0.0,0.0,0.0,0.0,0.0,0.0,0.0,0.0,0.0,6.275,6.2093,6.1912,6.1912,6.1762,6.1403,6.1553,6.1792,6.2091,6.2271,6.26,6.3108,6.3287,6.3587,6.4006,6.4395,6.4844,6.5293,6.5473,6.5832,6.6311,6.6789,6.6999,6.6999,6.6999,6.6999,6.6999,6.7208,6.7598,6.8137,0.0,0.0,0.0,0.0,0.0,0.0,0.0,0.0,0.0,0.0,0.0,0.0,0.0,0.0,4.0696,4.0816,4.0834,4.0834,4.0834,4.1074,4.1583,4.2381,4.2631,4.294,4.329,4.304,4.304,4.329,4.3339,4.3668,4.4296,4.4975,0.0,0.0,0.0,0.0,0.0,0.0,0.0,0.0,4.8087,0.0,0.0,5.093,5.1253,0.0,0.0,0.0,5.2163,5.1325,5.0667,0.0,0.0,0.0,0.0,0.0,0.0,0.0,0.0,0.0,0.0,0.0,0.0,0.0,5.081,5.1259,5.1821,0.0,0.0,0.0,0.0,0.0,0.0,0.0,0.0,0.0,0.0,0.0,0.0,0.0,0.0,0.0,0.0,0.0,0.0,6.2241,6.1553,6.1076,6.1076,6.1076,6.0984,6.0685,6.0954,6.1164,6.1253,6.1822,6.2301,6.2689,6.2988,6.3287,6.3617,6.3887,6.4216,6.4575,6.4874,6.5383,6.6041,6.643,6.6759,6.6999,6.6999,6.6999,6.6999,6.6999,6.7449,6.8047,0.0,0.0,0.0,0.0,0.0,0.0,0.0,0.0,0.0,0.0,3.7943,3.8554,0.0,0.0,0.0,4.1762,4.1583,4.1523,4.1523,4.2081,4.244,4.25,4.301,4.329,4.329,4.2761,4.281,4.3409,4.3479,4.3808,0.0,0.0,0.0,0.0,0.0,0.0,0.0,0.0,0.0,4.66,4.8566,4.9853,0.0,0.0,5.473,0.0,5.5713,5.5773,5.491,5.3054,5.1535,0.0,0.0,0.0,0.0,0.0,4.6869,0.0,0.0,0.0,0.0,0.0,0.0,0.0,4.9202,4.9052,4.8468,0.0,0.0,0.0,0.0,0.0,0.0,0.0,0.0,0.0,0.0,0.0,0.0,0.0,0.0,0.0,0.0,6.1014,6.1014,6.1014,6.0924,6.0894,6.0894,6.0894,6.0595,5.9997,6.0565,6.0625,6.0114,6.1283,6.1942,6.2121,6.2718,6.3048,6.3138,6.3647,6.3887,6.3917,6.4516,6.5144,6.5772,6.5772,6.6251,6.6999,6.6999,6.6999,6.6999,6.6999,6.7389,6.7898,0.0,0.0,0.0,0.0,0.0,0.0,0.0,0.0,0.0,0.0,4.1235,4.2731,0.0,0.0,0.0,4.3748,4.281,4.2201,4.2201,4.2321,4.2631,4.31,4.325,4.329,4.329,4.319,4.3459,4.4087,4.4137,0.0,0.0,0.0,0.0,0.0,0.0,0.0,0.0,0.0,0.0,4.7279,4.9232,0.0,5.2725,5.3952,5.4311,5.4371,5.5713,5.5773,5.5059,0.0,5.2935,5.1468,0.0,0.0,0.0,0.0,0.0,0.0,0.0,0.0,0.0,0.0,0.0,0.0,4.7527,4.8117,4.9396,0.0,0.0,0.0,0.0,0.0,0.0,0.0,0.0,0.0,0.0,0.0,0.0,0.0,0.0,0.0,0.0,6.0296,6.0296,6.0296,5.9787,5.9488,5.9488,5.9488,5.9428,5.9308,5.9428,5.9697,6.0114,6.0383,6.1014,6.2091,6.2241,6.2599,6.3108,6.3227,6.3287,6.3287,6.3408,6.3827,6.4395,6.4395,6.5413,6.6999,6.6999,6.6999,6.6999,6.6999,6.7059,6.7268,3.5519,0.0,0.0,0.0,0.0,0.0,0.0,0.0,4.1844,4.1844,4.3898,4.5334,0.0,0.0,0.0,0.0,4.3718,4.3229,0.0,4.2851,4.3,4.329,4.329,4.3439,4.3788,4.3469,4.3638,4.4296,4.4625,0.0,0.0,0.0,0.0,0.0,0.0,0.0,0.0,0.0,4.648,4.7018,4.965,0.0,5.3832,5.5149,5.6077,5.6735,5.7393,5.7214,5.6406,5.476,5.3982,0.0,0.0,4.9247,4.9494,0.0,4.8027,4.8229,0.0,0.0,0.0,4.8813,0.0,0.0,0.0,4.7309,4.751,4.8117,4.8267,0.0,0.0,0.0,0.0,0.0,0.0,0.0,0.0,0.0,0.0,0.0,0.0,0.0,0.0,5.8437,5.859,5.859,5.8919,5.8949,5.8623,5.8919,5.9099,5.9099,5.9099,5.9249,5.9608,5.9907,6.0416,6.1104,6.1762,6.2271,6.26,6.2958,6.3108,6.3108,6.3108,6.3467,6.4006,6.4006,6.4784,6.6041,6.637,6.67,6.6999,6.6999,6.6999,6.7029,0.0,0.0,0.0,0.0,0.0,0.0,0.0,0.0,4.3439,4.3828,4.5802,4.6878,0.0,0.0,0.0,0.0,0.0,0.0,0.0,0.0,4.286,4.305,4.288,4.3127,4.3844,4.3147,4.3164,4.3954,4.4674,0.0,0.0,0.0,0.0,0.0,0.0,0.0,0.0,0.0,0.0,4.7138,0.0,5.2103,5.3688,5.6017,5.7513,5.8411,5.877,5.8399,5.7434,5.5312,0.0,5.4335,5.0292,5.0032,0.0,0.0,0.0,0.0,0.0,0.0,0.0,0.0,0.0,4.8805,0.0,0.0,0.0,4.5753,0.0,0.0,0.0,0.0,0.0,0.0,0.0,0.0,0.0,0.0,0.0,0.0,0.0,0.0,0.0,5.6496,5.6735,5.6735,5.7842,5.8321,5.7756,5.8351,5.877,5.8919,5.8919,5.8979,5.9099,5.9638,5.9967,6.0114,6.1194,6.1762,6.1942,6.245,6.2808,6.2928,6.2928,6.3287,6.3827,6.3827,6.4306,6.5054,6.5742,6.634,6.6819,6.6939,6.6999,6.6999,3.5359,3.5968,0.0,0.0,3.9439,4.0935,0.0,0.0,4.4018,4.5732,4.6432,0.0,0.0,0.0,0.0,0.0,0.0,0.0,4.4589,0.0,0.0,4.2129,4.1344,4.131,4.2236,4.1381,4.1517,4.2707,4.3589,4.4174,0.0,0.0,0.0,0.0,4.6434,0.0,0.0,0.0,4.7878,0.0,5.0601,5.0996,0.0,5.485,5.6042,5.5867,5.7576,5.7471,5.647,0.0,5.5286,5.4083,0.0,5.1498,0.0,0.0,0.0,0.0,0.0,0.0,0.0,0.0,5.2725,0.0,0.0,0.0,4.9142,4.7429,0.0,0.0,0.0,0.0,0.0,0.0,0.0,0.0,0.0,0.0,0.0,0.0,0.0,0.0,0.0,0.0,5.5418,5.5418,5.6102,5.6492,5.6432,5.7,5.7603,5.8175,5.8205,5.8504,5.9099,5.9189,5.9518,6.0114,6.0236,6.0625,6.1224,6.1313,6.1642,6.2211,6.2211,6.257,6.3197,6.3197,6.3917,6.5054,6.5742,6.6071,6.6191,6.6759,6.6999,6.6999,3.5217,3.6,0.0,0.0,3.9131,4.027,4.1546,4.3538,4.5672,4.7776,4.8275,0.0,0.0,0.0,0.0,0.0,0.0,0.0,0.0,0.0,0.0,0.0,0.0,0.0,4.2266,4.1508,4.1565,4.2508,4.288,4.3312,4.3732,0.0,0.0,0.0,4.4838,0.0,4.5207,0.0,0.0,0.0,0.0,0.0,0.0,5.4266,5.6046,5.5942,5.6765,5.6521,5.5595,0.0,5.4391,0.0,0.0,0.0,0.0,0.0,0.0,0.0,0.0,0.0,0.0,0.0,0.0,0.0,0.0,0.0,4.8394,0.0,0.0,0.0,0.0,0.0,0.0,0.0,0.0,0.0,0.0,0.0,0.0,0.0,0.0,0.0,0.0,0.0,0.0,0.0,0.0,5.5294,5.4486,5.5803,5.6881,5.7513,5.7513,5.7842,5.8504,5.8504,5.886,5.9518,5.9907,6.0236,6.0535,6.0924,6.1463,6.2061,6.1702,6.2121,6.3078,6.2689,6.3049,6.3947,6.4605,6.5562,6.661,6.6879,6.6999,6.6999,3.4978,0.0,0.0,0.0,0.0,0.0,4.0936,4.348,0.0,0.0,0.0,0.0,5.0663,4.9739,0.0,0.0,0.0,4.6438,0.0,0.0,4.2755,0.0,0.0,0.0,0.0,0.0,4.1066,4.1718,4.1991,4.2334,4.2783,0.0,0.0,0.0,0.0,4.4471,4.4874,0.0,0.0,4.6975,4.8477,4.9112,4.9555,5.3451,5.5165,5.5557,5.5931,5.5424,5.4412,5.3135,5.3415,0.0,5.0519,0.0,0.0,0.0,0.0,0.0,5.132,0.0,0.0,0.0,0.0,0.0,0.0,0.0,0.0,0.0,0.0,0.0,0.0,0.0,0.0,0.0,0.0,0.0,0.0,0.0,0.0,0.0,0.0,0.0,0.0,0.0,0.0,0.0,5.1791,5.2959,5.2181,5.3857,5.5384,5.6526,5.6915,5.7423,5.8085,5.8264,5.862,5.9099,5.9578,5.9817,5.9847,6.0326,6.0924,6.1523,6.1253,6.1762,6.2808,6.248,6.275,6.3407,6.3827,6.5114,6.6729,6.6729,6.6819,6.6999,3.4566,3.5424,0.0,0.0,0.0,0.0,0.0,0.0,0.0,0.0,0.0,0.0,0.0,0.0,0.0,0.0,0.0,4.749,4.7207,0.0,4.2278,0.0,0.0,0.0,0.0,0.0,0.0,3.9695,4.0683,4.1227,4.1397,0.0,0.0,0.0,0.0,4.6469,4.6049,4.7793,4.8912,4.9552,5.0249,5.1593,5.3108,0.0,5.2517,5.3754,5.4992,0.0,0.0,5.3271,5.2733,0.0,0.0,0.0,0.0,0.0,0.0,0.0,0.0,0.0,0.0,0.0,0.0,0.0,0.0,0.0,5.075,0.0,0.0,0.0,0.0,0.0,0.0,0.0,0.0,0.0,0.0,0.0,0.0,0.0,0.0,0.0,0.0,0.0,0.0,4.9337,4.8828,4.8798,4.9366,5.0661,5.2576,5.5179,5.6466,5.7423,5.8085,5.874,5.9069,5.9099,5.9129,5.9129,5.9129,5.9159,5.9518,6.0176,6.0835,6.1493,6.2181,6.2808,6.3408,6.3977,6.3977,6.4844,6.6041,6.6041,6.643,6.6999,0.0,0.0,0.0,0.0,0.0,0.0,0.0,4.2586,0.0,0.0,0.0,0.0,0.0,0.0,5.2679,0.0,0.0,5.0144,4.8957,4.7102,0.0,0.0,0.0,4.2395,0.0,0.0,0.0,0.0,0.0,0.0,4.1298,4.1991,4.2139,0.0,0.0,4.3676,0.0,0.0,0.0,0.0,0.0,5.0685,5.1758,0.0,0.0,5.2848,5.2933,5.2271,0.0,5.1169,5.1125,5.0898,4.9744,5.005,5.0528,4.9193,5.0016,0.0,0.0,0.0,5.3219,5.2201,0.0,0.0,0.0,0.0,0.0,0.0,0.0,0.0,0.0,0.0,0.0,0.0,0.0,0.0,0.0,0.0,0.0,0.0,0.0,0.0,0.0,0.0,0.0,4.4807,4.5325,4.6142,0.0,4.8985,5.1163,5.3797,5.473,5.5718,5.6825,5.7453,5.7992,5.8444,5.889,5.9099,5.9099,5.9099,5.9458,6.0114,6.0326,6.1074,6.2121,6.2331,6.281,6.3378,6.3378,6.4186,6.5383,6.5862,6.643,6.6999,3.485,0.0,0.0,0.0,0.0,0.0,0.0,0.0,0.0,0.0,5.0236,0.0,5.5677,0.0,5.5184,0.0,5.4559,5.2772,5.0344,4.941,0.0,4.5585,4.521,0.0,0.0,0.0,0.0,0.0,0.0,4.1141,4.1299,4.1299,4.1299,0.0,0.0,4.2997,4.2996,0.0,4.732,0.0,0.0,5.0555,0.0,0.0,5.223,0.0,0.0,5.0986,5.0394,4.9793,4.9858,4.9961,4.8618,4.8978,4.9556,4.8025,4.9058,5.0654,5.074,5.1476,0.0,0.0,5.1068,0.0,0.0,0.0,0.0,0.0,0.0,0.0,0.0,0.0,0.0,4.9853,4.9247,0.0,0.0,0.0,0.0,0.0,0.0,0.0,0.0,0.0,4.4137,4.284,4.308,4.3818,0.0,0.0,4.9696,5.2067,5.3713,5.5089,5.6192,5.7034,5.7666,5.8115,5.88,5.9099,5.9099,5.9099,5.9458,6.0114,6.0356,6.1074,6.2121,6.2361,6.2718,6.3108,6.3108,6.3887,6.5054,6.5473,6.6221,6.6999,0.0,0.0,0.0,0.0,3.6314,0.0,0.0,0.0,4.5696,0.0,5.0466,5.3214,5.5574,5.6005,5.6467,5.7301,5.7048,0.0,5.1537,5.1466,0.0,0.0,4.5838,4.4854,4.2844,0.0,0.0,0.0,0.0,0.0,4.1377,4.1325,4.1299,4.1377,4.365,0.0,4.4095,4.7521,4.9038,4.9218,5.089,5.1256,5.0812,5.076,0.0,5.0734,5.0707,5.0342,4.9766,4.9218,4.9064,4.896,4.8384,4.7469,4.658,4.6554,4.6944,4.7643,4.8752,5.0304,5.1564,5.1405,0.0,0.0,0.0,0.0,5.2703,0.0,0.0,0.0,0.0,0.0,0.0,5.0435,4.8985,0.0,0.0,0.0,0.0,0.0,0.0,0.0,0.0,4.5095,4.4556,4.3329,4.2032,4.1893,0.0,0.0,0.0,5.0136,5.3384,5.5444,5.6132,5.7393,5.8025,5.8055,5.874,5.9069,5.9099,5.9099,5.9458,6.0086,6.0805,6.1463,6.2091,6.2808,6.3108,6.3108,6.3108,6.3887,6.5024,6.5084,6.5922,6.6999,3.5538,3.6074,3.6816,0.0,3.7402,3.7927,0.0,0.0,0.0,0.0,5.3741,5.629,5.8807,5.906,5.8845,5.8366,5.7887,0.0,0.0,0.0,0.0,5.1656,5.0493,4.8962,4.6923,4.6267,0.0,4.3793,0.0,0.0,4.2553,4.1691,4.1299,4.1377,0.0,0.0,4.3415,4.6029,4.794,4.9221,5.0472,5.1152,0.0,0.0,5.0132,5.008,4.9662,4.9427,4.9221,4.8616,4.8407,4.8381,4.8254,4.8018,4.7704,4.7231,4.7832,4.8597,4.8474,4.9379,5.0466,5.0854,5.021,4.9775,0.0,0.0,0.0,0.0,0.0,0.0,0.0,0.0,0.0,0.0,0.0,0.0,0.0,0.0,0.0,0.0,0.0,0.0,4.3848,4.2521,4.1534,4.1175,4.0397,0.0,0.0,0.0,0.0,5.0106,5.2486,5.4276,5.5474,5.6282,5.6915,5.7363,5.8025,5.862,5.9099,5.9099,5.9189,5.9428,6.0595,6.1224,6.1463,6.2629,6.3108,6.3108,6.3108,6.3887,6.5114,6.6131,6.67,6.6999,3.6032,0.0,0.0,3.9366,0.0,0.0,4.2447,0.0,0.0,5.1129,5.4181,0.0,5.7989,5.9374,5.9967,5.9433,5.8905,0.0,0.0,0.0,0.0,5.3967,5.2514,5.0851,4.8964,4.7529,0.0,4.4361,0.0,0.0,4.2424,4.1539,4.1173,4.1402,4.3127,4.3729,4.3572,4.6161,4.8381,5.0211,5.0342,0.0,0.0,4.9871,4.9404,4.9143,4.8799,4.8724,4.8643,4.8303,4.8201,4.8201,4.8201,4.8201,4.812,4.7806,4.8355,4.9038,4.8698,4.9218,5.0,5.0315,4.9847,4.9638,5.0899,5.0942,5.0494,0.0,0.0,0.0,0.0,0.0,0.0,0.0,0.0,0.0,0.0,0.0,0.0,0.0,0.0,0.0,4.2581,4.0965,3.9858,3.9559,0.0,0.0,0.0,0.0,0.0,4.9291,5.2157,5.4132,5.5179,5.6705,5.7334,5.7094,5.8082,5.8713,5.9099,5.9099,5.9249,5.9608,6.0655,6.1283,6.1613,6.2689,6.3108,6.3168,6.3707,6.4395,6.5144,6.652,6.6999,6.6999,0.0,0.0,0.0,0.0,0.0,0.0,0.0,4.6205,0.0,5.0608,0.0,5.6068,5.6143,5.8654,6.0286,0.0,0.0,5.8995,5.7822,5.6919,5.5901,5.4758,5.3293,5.1774,5.0167,4.8143,0.0,0.0,0.0,0.0,4.175,4.1155,4.1022,4.1326,4.3101,0.0,0.0,4.6972,4.9218,5.0969,5.0132,4.9793,4.974,4.9195,4.8672,4.8201,4.8201,4.8201,4.8201,4.8201,4.8201,4.8201,4.8201,4.8201,4.8201,4.8201,4.8594,4.8956,4.8956,4.9296,4.9662,4.9662,4.9662,4.986,5.0534,5.0435,4.9827,4.8626,4.9238,0.0,0.0,0.0,0.0,0.0,0.0,0.0,0.0,0.0,0.0,0.0,0.0,0.0,0.0,0.0,0.0,0.0,0.0,0.0,0.0,0.0,0.0,0.0,5.2067,0.0,5.5299,0.0,5.8351,5.7363,5.8471,5.9009,5.9099,5.9099,5.9428,5.9997,6.0775,6.1433,6.2032,6.2808,6.3108,6.3227,6.4336,6.4845,6.5144,6.6311,6.6849,6.6999,0.0,0.0,0.0,0.0,0.0,4.6657,4.9039,5.0693,5.274,5.5785,5.8089,0.0,6.0111,6.0261,6.0136,5.9684,5.9558,0.0,0.0,0.0,0.0,5.7247,5.5702,5.4235,5.3005,5.0208,4.8145,0.0,0.0,0.0,4.2082,4.1286,4.0946,4.1075,4.3023,0.0,4.54,4.6837,0.0,4.8117,4.8904,4.9218,4.9165,4.8564,4.8306,4.8201,4.8201,4.8201,4.8201,4.8201,4.8201,4.8201,4.8201,4.8201,4.8201,4.8201,4.825,4.8355,4.8355,4.8437,4.8515,4.8515,4.8515,4.8755,4.9835,4.8928,4.8174,4.927,4.7918,4.6809,4.7962,0.0,0.0,0.0,0.0,0.0,0.0,0.0,0.0,0.0,0.0,0.0,0.0,0.0,0.0,0.0,0.0,0.0,0.0,0.0,0.0,0.0,0.0,0.0,0.0,0.0,0.0,5.874,5.8414,5.8563,5.9099,5.9099,5.9159,5.9338,6.0595,6.1194,6.1373,6.26,6.3108,6.3138,6.3347,6.4066,6.5024,6.5263,6.6071,6.6999,0.0,0.0,0.0,0.0,0.0,0.0,0.0,5.4888,0.0,5.6034,5.7247,5.8177,5.8177,5.9734,6.0537,5.996,5.991,5.991,5.991,5.893,5.8202,5.7901,5.657,0.0,5.3733,0.0,4.8302,4.692,0.0,0.0,0.0,0.0,0.0,4.0973,4.2528,4.422,0.0,0.0,0.0,4.802,4.8453,4.9165,4.9845,4.8643,4.8381,4.8646,4.8332,4.8201,4.8201,4.8201,4.8201,4.8201,4.8201,4.8201,4.8201,4.8201,4.8201,4.8201,4.8201,4.8201,4.8201,4.8201,4.8201,4.8268,4.8501,4.8138,4.7939,4.8814,4.7622,4.6785,4.8013,4.7271,0.0,0.0,0.0,0.0,0.0,0.0,0.0,0.0,0.0,0.0,0.0,0.0,0.0,0.0,0.0,0.0,0.0,0.0,0.0,0.0,0.0,0.0,0.0,0.0,0.0,5.8563,5.8593,5.88,5.9129,5.9458,5.9428,5.9189,6.0894,6.1433,6.1224,6.254,6.3108,6.3138,6.3438,6.4156,6.5024,6.5383,6.6161,6.6999,0.0,4.3818,0.0,0.0,4.9766,0.0,0.0,5.8001,5.8956,5.6506,5.6696,5.6972,5.6646,5.9131,6.0638,6.0186,6.0136,6.0085,5.9985,5.9081,5.8303,5.775,5.6746,5.5491,5.3909,5.0904,4.8335,0.0,0.0,0.0,0.0,0.0,0.0,0.0,0.0,0.0,0.0,0.0,4.6869,4.8321,4.8321,4.9087,5.008,4.87,4.8413,4.8648,4.8238,4.8084,4.8084,4.8198,4.8201,4.8201,4.8201,4.8201,4.8201,4.8201,4.8201,4.8201,4.8201,4.8201,4.8201,4.8201,4.8094,4.7911,4.7568,4.773,4.8026,4.8327,4.7998,4.7676,4.7735,4.7052,0.0,0.0,0.0,0.0,0.0,0.0,0.0,0.0,0.0,0.0,0.0,0.0,0.0,0.0,0.0,0.0,0.0,0.0,0.0,0.0,0.0,0.0,5.5414,0.0,5.9279,0.0,5.8919,5.9189,5.9338,5.9847,5.9877,5.9638,6.1343,6.1882,6.1613,6.266,6.3108,6.3168,6.3617,6.4306,6.5054,6.5562,6.6311,6.6999,0.0,0.0,0.0,0.0,0.0,0.0,0.0,5.8905,6.109,6.1291,6.0512,6.0111,6.0588,6.006,5.9633,5.9583,5.9558,5.9382,5.8867,5.8303,5.7725,5.7111,5.6545,5.5666,5.4547,5.226,4.949,0.0,0.0,0.0,0.0,0.0,0.0,0.0,0.0,0.0,0.0,4.5186,4.6315,4.741,4.8445,4.8655,4.8351,4.8197,4.7782,4.7401,4.7645,4.7762,4.7792,4.8084,4.8201,4.8201,4.8201,4.8201,4.8201,4.8201,4.8201,4.8201,4.8201,4.8201,4.8201,4.8201,4.7806,4.7516,4.7989,4.7736,4.7687,4.8728,4.9132,4.8858,4.7437,4.8143,4.7981,0.0,0.0,0.0,0.0,0.0,0.0,0.0,0.0,0.0,0.0,0.0,0.0,0.0,0.0,0.0,0.0,0.0,0.0,4.7369,0.0,5.4216,5.6102,5.7573,0.0,5.9934,5.9368,5.9428,5.9997,6.0057,6.0386,6.0956,6.1762,6.2391,6.2928,6.3048,6.3108,6.3108,6.3168,6.3917,6.5024,6.5084,6.5922,6.6999,0.0,0.0,0.0,0.0,0.0,0.0,0.0,6.0387,6.1768,6.1969,6.1316,6.0788,6.0663,6.0261,5.9859,5.9533,5.9483,5.9408,5.9207,5.8679,5.8152,5.7575,5.6985,5.6043,5.4622,5.3055,5.0436,0.0,0.0,0.0,0.0,0.0,0.0,0.0,0.0,4.2555,4.4212,4.5304,4.6425,4.755,4.8523,4.9204,4.9512,4.8846,4.8435,4.8179,4.7996,4.7721,4.7412,4.753,4.788,4.8201,4.8201,4.7937,4.7675,4.7675,4.7414,4.7181,4.7181,4.7181,4.7181,4.7181,4.7257,4.7281,4.7179,4.7257,4.7624,4.8837,4.9374,4.9262,4.7951,4.7543,4.6956,0.0,0.0,0.0,0.0,0.0,0.0,0.0,0.0,0.0,0.0,0.0,0.0,0.0,0.0,0.0,0.0,0.0,0.0,4.7279,0.0,5.3588,5.5593,5.7274,5.877,6.0086,5.9012,5.9277,6.0687,6.0283,6.0901,6.2271,6.2151,6.248,6.3108,6.3108,6.3108,6.3108,6.3108,6.3887,6.4994,6.4994,6.5862,6.6999,5.1473,0.0,5.2628,0.0,5.6495,5.7449,5.9935,6.114,6.1768,6.1768,6.1416,6.104,6.0613,6.0286,5.991,5.9533,5.9483,5.9433,5.9282,5.893,5.8403,5.7675,5.7211,0.0,5.4873,5.3733,5.1465,4.8077,4.622,0.0,0.0,0.0,0.0,0.0,4.2357,4.3268,4.4965,4.5872,4.6909,4.8002,4.8776,4.9481,4.9971,4.9206,4.8666,4.8335,4.8049,4.7598,4.7112,4.7176,4.7501,4.7909,4.8026,4.7635,4.7192,4.7278,4.6917,4.6527,4.6682,4.6604,4.6554,4.6682,4.6917,4.7022,4.6787,4.7048,4.7677,4.9053,4.9144,4.8721,4.781,4.6788,4.5905,0.0,0.0,0.0,0.0,0.0,0.0,0.0,0.0,4.1318,4.2484,0.0,0.0,0.0,0.0,0.0,0.0,0.0,0.0,0.0,0.0,0.0,0.0,0.0,5.821,6.0086,5.8374,5.8696,6.0808,6.0531,6.1175,6.2526,6.2427,6.266,6.3108,6.3108,6.3108,6.3108,6.3108,6.3767,6.4725,6.4934,6.5592,6.646,5.4019,5.4547,5.5426,5.8202,5.9106,5.9633,6.0236,6.0814,6.119,6.119,6.119,6.119,6.1165,6.0186,5.9508,5.9483,5.9483,5.9282,5.8716,5.8691,5.819,0.0,0.0,5.6483,5.539,5.426,5.2603,5.0336,0.0,0.0,4.4539,0.0,0.0,4.3765,4.3765,4.4719,4.6326,4.6848,4.7757,4.8818,4.9396,4.9296,4.8818,4.8793,4.8083,4.716,4.7471,4.7237,4.6866,4.7087,4.7205,4.7265,4.7589,4.7315,4.6959,4.7221,4.6917,4.6632,4.715,4.6917,4.6604,4.715,4.6917,4.6658,4.7176,4.7307,4.7782,4.9539,4.8408,4.7027,4.6614,4.6283,4.5382,4.3203,0.0,0.0,0.0,0.0,0.0,0.0,4.3507,4.4342,4.3113,0.0,0.0,0.0,0.0,0.0,0.0,0.0,0.0,4.7462,5.0567,0.0,5.4422,5.5039,5.695,6.0086,5.7455,5.7584,6.012,6.0787,6.1107,6.1196,6.2526,6.3108,6.3108,6.3108,6.3108,6.3108,6.3108,6.3468,6.4096,6.4755,6.5024,6.5203,5.5516,5.662,5.7675,5.8554,5.9458,5.9985,5.9784,6.0563,6.104,6.0638,6.0588,6.0588,6.0588,6.0261,5.991,0.0,5.9483,5.9433,0.0,5.8554,5.8001,5.765,5.6897,5.5968,5.4898,5.4522,5.303,5.0386,0.0,0.0,0.0,4.4844,4.4823,4.497,4.5347,4.6225,4.7431,4.8008,4.8661,4.9339,4.9515,4.949,4.9371,4.9371,4.8636,4.7657,4.778,4.7232,4.6451,4.6571,4.6601,4.6661,4.6989,4.6843,4.6614,4.6933,4.6316,4.5667,4.6266,4.6148,4.5895,4.5799,4.6148,4.6525,4.6708,4.7048,4.7238,4.7002,4.708,4.6678,4.505,4.4921,4.471,4.3601,0.0,0.0,0.0,0.0,0.0,0.0,0.0,4.1427,0.0,4.2596,0.0,0.0,0.0,0.0,0.0,0.0,0.0,0.0,5.0233,0.0,5.5616,5.5355,5.7107,6.0719,5.7622,5.6792,5.8129,6.0176,6.1106,6.1167,6.2526,6.3108,6.3108,6.3108,6.3108,6.3108,6.3108,6.3468,6.4036,6.4246,6.4605,6.5054,5.7022,5.7964,5.8817,5.9218,6.006,6.0462,5.9885,6.0763,6.114,6.0136,6.0387,6.0487,6.006,6.0186,0.0,5.9533,5.9483,0.0,5.9483,5.888,5.8328,5.7926,5.7223,5.6219,5.4949,0.0,0.0,5.1649,5.0469,4.8912,4.7029,4.6803,4.6928,4.7355,4.7707,4.8234,4.8862,4.9238,4.9464,4.959,4.959,4.959,4.959,4.959,4.8887,4.7933,4.8159,4.7405,4.6351,4.6522,4.6597,4.6657,4.6839,4.6949,4.6934,4.6736,4.5874,4.5152,4.6096,4.579,4.538,4.5823,4.6115,4.636,4.6473,4.6761,4.6813,4.6081,4.6293,4.6114,4.449,4.4096,4.3787,4.3225,0.0,0.0,0.0,0.0,0.0,0.0,0.0,0.0,0.0,4.2295,0.0,0.0,0.0,0.0,0.0,0.0,0.0,4.8088,4.9992,0.0,5.5143,5.4764,5.6379,5.9975,5.7605,5.6418,5.6438,5.8592,5.9588,5.9711,6.1554,6.2351,6.238,6.2875,6.3108,6.3108,6.3108,6.3347,6.3677,6.3917,6.4126,6.4366,5.8415,5.878,0.0,0.0,6.0763,0.0,6.0462,6.1215,6.1291,5.9759,6.0437,6.0663,5.9608,5.996,6.006,5.9533,0.0,0.0,0.0,5.9433,5.893,5.7951,5.7826,0.0,5.5365,5.4873,5.4295,5.3658,5.1548,5.0268,4.9766,4.9245,4.9522,5.0436,5.0436,5.0444,5.0386,5.0386,5.0092,4.959,4.959,4.959,4.959,4.959,4.8912,4.8033,4.8617,4.7757,4.6502,4.6973,4.7149,4.7149,4.7149,4.75,4.773,4.679,4.5738,4.5155,4.655,4.5919,4.5189,4.6817,4.6607,4.608,4.6365,4.6475,4.6475,4.6397,4.6003,4.5452,4.4773,4.378,4.2866,4.2238,4.0723,3.9627,3.9625,0.0,0.0,0.0,0.0,0.0,0.0,4.2135,4.2205,0.0,0.0,0.0,0.0,0.0,0.0,4.8532,5.0166,5.185,5.3577,5.3589,5.5063,5.7883,5.7336,5.6405,5.5132,5.6503,5.7092,5.7226,5.9834,6.0957,6.1047,6.2409,6.2963,6.2992,6.3079,6.3108,6.3168,6.3707,6.3558,6.3287,0.0,0.0,5.9659,6.0788,6.0387,6.0136,6.0864,6.0462,6.0085,6.0111,5.9985,5.9784,5.9533,5.9608,5.9633,5.9508,5.9483,5.9483,5.9483,5.873,5.8177,5.7901,5.7072,5.6018,5.4823,5.4672,5.4084,5.3071,5.2176,5.1649,5.1498,5.0946,5.082,5.1071,5.1071,5.082,5.0386,5.0386,5.0092,4.959,4.959,4.959,4.959,4.959,4.9163,4.8617,4.8743,4.8234,4.7556,4.7682,4.7732,4.7732,4.7732,4.7807,4.7894,4.7917,4.7094,4.6412,4.7219,4.6725,4.6049,4.6189,4.6119,4.5976,4.5841,4.6159,4.624,4.5323,4.5741,4.5847,4.4356,4.3886,4.3206,4.1742,4.0801,4.0071,3.9677,0.0,0.0,0.0,4.1018,4.1133,4.2593,4.2181,4.2263,0.0,0.0,0.0,0.0,0.0,4.8142,4.8297,5.2619,5.4912,5.4798,5.5303,5.5626,5.5826,5.6682,5.6405,5.5132,5.6503,5.7092,5.7189,5.8846,5.956,5.9652,6.1017,6.1584,6.1673,6.2701,6.3108,6.3138,6.3257,6.3227,6.3138,5.9433,5.991,6.0462,6.1065,6.0889,6.0839,6.1466,6.104,6.0563,6.0337,6.006,5.9784,5.9533,5.9483,5.9483,5.9483,5.9483,5.9382,5.9156,5.8604,5.8052,5.7524,5.6885,5.5968,5.4622,5.4597,5.4034,5.2895,5.2594,5.2477,5.2477,5.2176,5.2026,5.2026,5.2026,5.1724,5.1172,5.0921,5.0494,4.9941,4.969,4.959,4.959,4.959,4.9296,4.8843,4.9095,4.8611,4.7958,4.8209,4.8309,4.8309,4.8309,4.8485,4.8718,4.8907,4.798,4.7021,4.7759,4.7339,4.6654,4.6345,4.6715,4.6982,4.6349,4.678,4.7103,4.6447,4.6604,4.6499,4.5324,4.4435,4.352,4.2291,4.1116,4.028,3.9993,3.9756,0.0,4.1455,4.1383,4.1654,4.2785,4.3051,4.328,4.3566,0.0,0.0,4.6501,4.9032,5.0077,4.9275,5.2445,5.4348,5.4735,5.5376,5.5491,5.5099,5.5842,5.5809,5.5132,5.5842,5.6203,5.6242,5.761,5.8533,5.9189,6.0565,6.1465,6.2087,6.2817,6.3108,6.3108,6.3108,6.3108,6.3108,5.9834,6.0588,6.124,6.1391,6.1692,6.1918,6.1994,6.1868,6.1416,6.0437,6.0236,6.001,5.9533,5.9483,5.9483,5.9483,5.9483,5.9307,5.8855,5.8641,5.8139,5.7161,5.696,5.6168,5.4622,5.4446,5.3858,5.2895,5.2895,5.2895,5.2895,5.2895,5.2895,5.2895,5.2895,5.2594,5.2076,5.1599,5.1071,5.0519,5.0042,4.9791,4.9715,4.9715,4.9364,4.8994,4.9439,4.8987,4.8234,4.8768,4.8919,4.8919,4.8919,4.9213,4.959,4.959,4.8611,4.7612,4.83,4.7842,4.7135,4.6914,4.7521,4.8021,4.7208,4.7571,4.814,4.8303,4.7937,4.7385,4.6867,4.5272,4.3781,4.3101,4.1612,4.0489,4.0411,0.0,4.0305,4.1403,4.2004,4.2579,4.331,4.4277,4.4704,4.4417,4.5846,0.0,0.0,5.0406,5.1974,5.0974,5.1987,5.3229,5.4616,5.4937,5.5099,5.5099,5.5099,5.5099,5.5099,5.5099,5.5099,5.5165,5.6536,5.7738,5.8909,6.0445,6.1762,6.2817,6.3021,6.3108,6.3108,6.3108,6.3108,6.3108,6.1416,6.1391,6.1492,6.2395,6.1868,6.1466,6.1943,6.119,6.0512,6.0297,5.991,5.9583,5.9508,5.9483,5.9483,5.9483,5.9483,5.9458,5.9382,5.8529,5.7951,5.7775,5.6846,5.5792,5.4622,5.3658,5.3071,5.2895,5.2895,5.2895,5.2895,5.2895,5.2895,5.2895,5.2895,5.2594,5.2101,5.2026,5.1649,5.1147,5.1046,5.072,5.0293,5.0293,4.9941,4.949,4.9565,4.949,4.9339,4.9439,4.9464,4.9464,4.9464,4.9515,4.959,4.959,4.9414,4.9138,4.8831,4.8297,4.7718,4.7501,4.7221,4.707,4.7482,4.7684,4.798,4.8796,4.8878,4.8643,4.807,4.6107,4.4225,4.3154,4.1952,4.0985,0.0,0.0,4.1456,4.2605,4.2814,4.3467,4.5034,4.5348,4.6032,4.7409,4.7661,4.8466,4.9985,5.1032,5.2001,5.2928,5.5636,5.6934,5.6666,5.5617,5.5099,5.5099,5.5099,5.5099,5.5099,5.5099,5.5099,5.5165,5.6536,5.7221,5.761,6.0079,6.1226,6.1524,6.2672,6.3108,6.3108,6.3108,6.3108,6.3108,6.1466,6.1843,6.2144,6.2345,6.222,6.2144,6.2395,6.1492,6.0788,6.0788,6.0035,5.9483,5.9483,5.9483,5.9483,5.9483,5.9483,5.9483,5.9483,5.8504,5.7625,5.7022,5.6495,5.5842,5.5074,5.3909,5.3171,5.2895,5.2895,5.2744,5.2503,5.2744,5.2895,5.2895,5.2895,5.2744,5.2528,5.2226,5.195,5.1699,5.1398,5.0946,5.0386,5.0386,5.0067,4.959,4.959,4.959,4.954,4.9296,4.9339,4.954,4.9238,4.9195,4.9195,4.9195,4.9195,4.9195,4.9245,4.8812,4.8265,4.7867,4.7921,4.807,4.794,4.8257,4.8855,4.9811,4.974,4.9348,4.8773,4.6787,4.5008,4.4486,4.2657,0.0,0.0,4.203,4.2631,4.3833,4.4747,4.5766,4.6891,4.7571,4.7989,4.8201,4.9007,4.9884,5.0738,5.1879,5.2886,5.3792,5.5553,5.6337,5.6039,5.5405,5.5099,5.5099,5.5099,5.5099,5.5099,5.5099,5.5472,5.6209,5.6834,5.7929,5.9341,6.0595,6.1524,6.2233,6.2846,6.3108,6.3108,6.3108,6.3108,6.3108,6.1316,6.2044,6.2505,6.2245,6.2446,6.2556,6.2471,6.1617,6.0939,6.0814,6.0035,5.9483,5.9483,5.9483,5.9483,5.9483,5.9483,5.9382,5.9131,5.8353,5.7499,5.6646,5.6219,5.5767,5.525,5.421,5.3457,5.2895,5.2895,5.2669,5.2302,5.2694,5.2895,5.2895,5.2895,5.2895,5.287,5.2477,5.2302,5.2251,5.1825,5.1247,5.0619,5.0619,5.0117,4.9414,4.954,4.9414,4.9163,4.8894,4.9095,4.9339,4.8944,4.8793,4.8793,4.8793,4.8718,4.8718,4.9264,4.912,4.8667,4.8058,4.8346,4.8652,4.81,4.8562,4.936,5.0262,5.018,4.974,4.9221,4.7414,4.587,4.5478,0.0,0.0,0.0,4.3232,4.3912,4.5218,4.6656,4.7858,4.8721,4.9688,4.9976,4.9244,5.0551,5.1465,5.157,5.2851,5.3844,5.4393,5.4863,5.5099,5.5099,5.5099,5.5099,5.5099,5.5099,5.5099,5.5099,5.5099,5.567,5.6671,5.729,5.8721,6.0686,6.1316,6.2175,6.3108,6.3108,6.3108,6.3108,6.3108,6.3108,6.3108,6.1743,6.2019,6.222,6.2656,6.237,6.1893,6.1391,6.0788,6.0211,5.9684,5.9533,5.9483,5.9483,5.9483,5.9483,5.9483,5.9483,5.9081,5.8077,5.7951,5.7851,5.7775,5.6294,5.5225,5.4672,5.4009,5.3457,5.2895,5.2895,5.287,5.2845,5.287,5.2895,5.2895,5.2895,5.2895,5.2895,5.2845,5.2845,5.282,5.2795,5.2176,5.1222,5.1222,5.025,4.8944,4.9414,4.8912,4.8109,4.8642,4.8818,4.8868,4.8818,4.8793,4.8793,4.8793,4.8385,4.8109,4.8718,4.8843,4.8667,4.8058,4.7581,4.7322,4.7587,4.7921,4.8459,4.9334,4.9685,4.974,4.9221,4.8068,4.6654,4.5115,0.0,0.0,4.3049,4.3911,4.5217,4.6915,4.7728,4.8773,5.0446,5.1126,5.1675,5.2145,5.2825,5.3426,5.3922,5.4079,5.4419,5.502,5.5072,5.5099,5.5099,5.5099,5.5099,5.5099,5.5099,5.5099,5.5099,5.5099,5.5165,5.5372,5.7865,5.9064,5.9436,6.1939,6.3021,6.3108,6.3108,6.3108,6.3108,6.3108,6.3108,6.3108,6.1843,6.227,6.2531,6.2756,6.237,6.1943,6.1718,6.0914,6.0236,6.0035,5.9709,5.9483,5.9483,5.9483,5.9483,5.9483,5.9483,5.9182,5.8453,5.8077,5.7575,5.6897,5.6244,5.5641,5.5125,5.4185,5.3457,5.2895,5.2578,5.2251,5.1925,5.2569,5.2719,5.2427,5.2744,5.2895,5.2895,5.2895,5.2895,5.287,5.2519,5.1975,5.128,5.087,5.0142,4.9314,4.9515,4.9314,4.8887,4.8385,4.8711,4.9163,4.846,4.8485,4.8667,4.7958,4.8335,4.8937,4.8843,4.8542,4.8184,4.7958,4.75,4.709,4.7096,4.72,4.7594,4.8674,4.9274,4.9607,4.958,4.8956,4.8198,4.7574,0.0,4.556,4.5635,4.634,4.7388,4.8747,4.974,5.0707,5.1753,5.238,5.2798,5.3034,5.3583,5.4158,5.4733,5.4759,5.4863,5.5099,5.5099,5.5099,5.5099,5.5099,5.5099,5.5099,5.5099,5.5099,5.5099,5.5099,5.6006,5.7642,5.8659,6.002,6.1673,6.2672,6.3108,6.3108,6.3108,6.3108,6.3108,6.3108,6.3108,6.3108,6.1592,6.1893,6.2104,6.2496,6.1969,6.1466,6.1466,6.0663,6.006,6.006,5.9734,5.9483,5.9483,5.9483,5.9483,5.9483,5.9483,5.9207,5.8504,5.7775,5.7022,5.6244,5.6043,5.5691,5.5175,5.4185,5.3457,5.2895,5.2519,5.2176,5.1825,5.2578,5.2694,5.2377,5.2719,5.2895,5.2895,5.2895,5.2895,5.2845,5.2327,5.1774,5.1247,5.0845,5.0117,4.9389,4.9715,4.9515,4.8962,4.8385,4.8686,4.9213,4.841,4.856,4.8837,4.7908,4.8686,4.9766,4.9389,4.8987,4.8686,4.8686,4.8253,4.7838,4.7707,4.7754,4.807,4.8912,4.9672,5.0224,5.0288,5.0072,4.9688,4.9195,4.8097,4.744,4.7803,4.8538,4.9427,5.0577,5.157,5.2328,5.2746,5.3295,5.3635,5.3635,5.4158,5.4654,5.5072,5.5099,5.5099,5.5099,5.5099,5.5099,5.5099,5.5099,5.5099,5.5099,5.5099,5.5099,5.5099,5.5099,5.6105,5.7865,5.8281,5.9498,6.1257,6.1673,6.1851,6.1851,6.1851,6.2116,6.2497,6.2497,6.273,6.3108,6.0964,6.0713,6.0688,6.1793,6.1065,6.0311,6.0311,5.9859,5.9483,5.9483,5.9483,5.9483,5.9483,5.9483,5.9483,5.9483,5.9483,5.9031,5.7951,5.6846,5.6219,5.6194,5.5666,5.5175,5.4597,5.3984,5.3432,5.2895,5.2895,5.2895,5.2895,5.2895,5.2895,5.2895,5.2895,5.2895,5.2895,5.2895,5.2895,5.2845,5.2327,5.1774,5.1331,5.1306,5.0275,4.8969,5.0017,4.9339,4.8008,4.8617,4.8793,4.8818,4.8818,4.9195,4.949,4.8969,4.9565,5.0386,5.0386,5.0411,5.0444,5.0386,5.0017,4.959,4.959,4.9847,5.0097,5.0097,5.1133,5.1787,5.1192,5.1372,5.1073,4.9374,4.9113,4.9113,4.9143,5.008,5.123,5.238,5.3034,5.34,5.34,5.3896,5.421,5.421,5.4759,5.5099,5.5099,5.5099,5.5099,5.5099,5.5099,5.5099,5.5099,5.5099,5.5099,5.5099,5.5099,5.5099,5.5099,5.5099,5.5099,5.5199,5.6536,5.7124,5.7221,5.8533,5.9096,5.9096,5.9096,5.9926,6.1106,6.1106,6.1939,6.3079,6.0437,6.0763,6.104,6.1366,6.0814,6.0311,6.0311,5.9859,5.9483,5.9483,5.9483,5.9483,5.9483,5.9483,5.9483,5.9483,5.9156,5.844,5.7336,5.662,5.6043,5.5641,5.5491,5.4938,5.3984,5.3432,5.3046,5.2895,5.2494,5.2352,5.2352,5.2719,5.2694,5.2377,5.2719,5.2895,5.2895,5.2895,5.2895,5.2845,5.2327,5.2,5.1825,5.1423,5.072,4.9967,5.0293,4.9841,4.9063,4.8868,4.9069,4.9339,4.9339,5.0017,5.0594,4.964,5.0419,5.1523,5.1122,5.1599,5.1866,5.0687,5.0017,4.959,4.959,4.9687,4.9815,5.0065,5.0689,5.1247,5.1293,5.193,5.2186,5.1272,5.1674,5.1962,5.1544,5.2145,5.2877,5.3609,5.3844,5.4131,5.455,5.4733,5.4837,5.4837,5.4994,5.5099,5.5099,5.5099,5.5099,5.5099,5.5099,5.5099,5.5099,5.5099,5.5099,5.5099,5.5099,5.5099,5.5099,5.5099,5.5604,5.6536,5.6931,5.7642,5.8533,5.894,5.9096,5.9096,5.9096,5.9344,5.9834,6.0746,6.1346,6.1821,6.0211,6.0412,6.0588,6.0814,6.0362,5.9985,5.9985,5.9709,5.9483,5.9483,5.9483,5.9483,5.9483,5.9483,5.9408,5.9207,5.8466,5.7738,5.7035,5.652,5.5968,5.5415,5.5189,5.4637,5.3708,5.3146,5.2895,5.2895,5.2603,5.2427,5.2427,5.2744,5.2719,5.2452,5.2744,5.2895,5.2895,5.2895,5.2895,5.2845,5.2327,5.2101,5.2076,5.1724,5.1247,5.077,5.077,5.0393,4.9841,4.9321,4.9464,4.9916,4.9916,5.0695,5.1473,5.0795,5.1473,5.2352,5.2026,5.2427,5.2644,5.164,5.1172,5.0921,5.0921,5.0921,5.0954,5.1185,5.1595,5.1989,5.2195,5.2759,5.3061,5.2725,5.3095,5.3347,5.3191,5.3478,5.3922,5.4497,5.455,5.4707,5.5072,5.5099,5.5099,5.5099,5.5099,5.5099,5.5099,5.5099,5.5099,5.5099,5.5099,5.5099,5.5099,5.5099,5.5099,5.5099,5.5099,5.5099,5.5099,5.5099,5.5538,5.6307,5.6307,5.6769,5.7515,5.7515,5.7515,5.7515,5.7515,5.8183,5.9189,6.0018,6.0987,6.2028,6.0136,5.9834,5.9659,6.0161,5.9834,5.9483,5.9483,5.9483,5.9483,5.9483,5.9483,5.9483,5.9483,5.9483,5.9282,5.8755,5.7637,5.6985,5.6935,5.6458,5.5968,5.5415,5.4949,5.4371,5.3708,5.3146,5.2895,5.2895,5.2895,5.2895,5.2895,5.2895,5.2895,5.2895,5.2895,5.2895,5.2895,5.2845,5.2845,5.2845,5.2327,5.2101,5.2126,5.2151,5.18,5.1331,5.1348,5.0996,5.0419,4.9916,5.0117,5.0536,5.0519,5.1272,5.2176,5.2126,5.2503,5.2895,5.2895,5.2895,5.2895,5.2895,5.2895,5.2895,5.2895,5.2895,5.2895,5.2895,5.3204,5.3444,5.3444,5.3587,5.3686,5.372,5.3609,5.3681,5.421,5.4288,5.4497,5.5046,5.5099,5.5099,5.5099,5.5099,5.5099,5.5099,5.5099,5.5099,5.5099,5.5099,5.5099,5.5099,5.5099,5.5099,5.5099,5.5099,5.5099,5.5099,5.5099,5.5099,5.5099,5.5099,5.5099,5.5099,5.5099,5.5099,5.5099,5.5099,5.5099,5.5099,5.5099,5.6601,5.8784,5.9002,6.0657,6.2788,5.9583,5.9583,5.9533,5.9659,5.9583,5.9483,5.9483,5.9483,5.9483,5.9483,5.9483,5.9483,5.9483,5.9483,5.9282,5.8755,5.7637,5.6809,5.642,5.6269,5.5968,5.5415,5.5265,5.4737,5.3733,5.3146,5.2895,5.2895,5.2895,5.2895,5.2895,5.2895,5.2895,5.2895,5.2895,5.2895,5.287,5.2477,5.2528,5.2845,5.2327,5.2101,5.2151,5.2578,5.2126,5.1381,5.1774,5.1574,5.1071,5.0946,5.1272,5.1674,5.1222,5.185,5.2619,5.2226,5.2503,5.2895,5.2895,5.2895,5.2895,5.2895,5.2895,5.2895,5.2895,5.2895,5.2895,5.2895,5.2964,5.3033,5.3033,5.3308,5.364,5.3885,5.4092,5.44,5.4856,5.4916,5.4968,5.5072,5.5099,5.5099,5.5099,5.5099,5.5099,5.5099,5.5099,5.5099,5.5099,5.5099,5.5099,5.5099,5.5099,5.5099,5.5099,5.5099,5.5099,5.5099,5.5099,5.5099,5.5099,5.5099,5.5099,5.5099,5.5099,5.5099,5.5099,5.5099,5.5099,5.5099,5.5099,5.5438,5.6209,5.8313,5.9467,6.0293,5.9433,5.9483,5.9483,5.9483,5.9483,5.9483,5.9483,5.9483,5.9483,5.9483,5.9483,5.9483,5.9483,5.9282,5.8805,5.7939,5.7085,5.652,5.6219,5.6219,5.6068,5.5792,5.5541,5.4988,5.4135,5.3582,5.3146,5.2895,5.2895,5.2895,5.2895,5.2895,5.2895,5.2895,5.2895,5.2895,5.287,5.2594,5.2619,5.287,5.2569,5.2468,5.2494,5.2795,5.2578,5.2076,5.2101,5.1749,5.1306,5.1306,5.1649,5.2051,5.1774,5.2251,5.2845,5.2544,5.2669,5.2895,5.2895,5.2895,5.2895,5.2895,5.2895,5.2895,5.2895,5.2895,5.2895,5.2895,5.2895,5.2895,5.2895,5.3238,5.3614,5.3963,5.4275,5.4645,5.5032,5.5099,5.5099,5.5099,5.5099,5.5099,5.5099,5.5099,5.5099,5.5099,5.5099,5.5099,5.5099,5.5099,5.5099,5.5099,5.5099,5.5099,5.5099,5.5099,5.5099,5.5099,5.5099,5.5099,5.5099,5.5099,5.5099,5.5099,5.5099,5.5099,5.5099,5.5099,5.5099,5.5099,5.5099,5.5472,5.6209,5.7642,5.894,6.0354,5.9483,5.9483,5.9483,5.9483,5.9483,5.9483,5.9483,5.9483,5.9483,5.9483,5.9483,5.9483,5.9483,5.8956,5.8164,5.7236,5.6595,5.6219,5.6219,5.6219,5.6168,5.6068,5.5641,5.5089,5.4471,5.3959,5.3457,5.2895,5.2895,5.2895,5.2895,5.2895,5.2895,5.2895,5.2895,5.2895,5.2895,5.2795,5.282,5.2895,5.2795,5.2744,5.277,5.287,5.2845,5.2694,5.2377,5.195,5.1548,5.1548,5.1875,5.2251,5.2251,5.2519,5.2895,5.2895,5.2895,5.2895,5.2895,5.2895,5.2895,5.2895,5.2895,5.2895,5.2895,5.2895,5.2895,5.2895,5.2895,5.2895,5.2895,5.317,5.3512,5.3861,5.414,5.4477,5.4932,5.4998,5.5032,5.5099,5.5099,5.5099,5.5099,5.5099,5.5099,5.5099,5.5099,5.5099,5.5099,5.5099,5.5099,5.5099,5.5099,5.5099,5.5099,5.5099,5.5099,5.5099,5.5099,5.5099,5.5099,5.5099,5.5099,5.5099,5.5099,5.5099,5.5099,5.5099,5.5099,5.5099,5.5099,5.5776,5.6769,5.7028,5.8812,6.1256,5.9483,5.9483,5.9483,5.9483,5.9483,5.9483,5.9483,5.9483,5.9483,5.9483,5.9483,5.9483,5.9483,5.8604,5.7951,5.7801,5.6821,5.6219,5.6219,5.6219,5.5993,5.5516,5.544,5.4888,5.3833,5.3733,5.3457,5.2895,5.2895,5.2895,5.2895,5.2895,5.2895,5.2895,5.2895,5.2895,5.287,5.2427,5.2503,5.2845,5.2402,5.2226,5.2277,5.2719,5.2594,5.2277,5.2644,5.2744,5.2669,5.2669,5.2719,5.277,5.277,5.2845,5.2895,5.2895,5.2895,5.2895,5.2895,5.2895,5.2895,5.2895,5.2895,5.2895,5.2895,5.2895,5.2895,5.2895,5.2895,5.2895,5.2895,5.2929,5.3101,5.3512,5.3614,5.3861,5.4477,5.4578,5.4712,5.5065,5.5099,5.5099,5.5099,5.5099,5.5099,5.5099,5.5099,5.5099,5.5099,5.5099,5.5099,5.5099,5.5099,5.5099,5.5099,5.5099,5.5099,5.5099,5.5099,5.5099,5.5099,5.5099,5.5099,5.5099,5.5099,5.5099,5.5099,5.5099,5.5099,5.5099,5.5099,5.5232,5.5505,5.6671,5.8812,6.1136,5.6598,5.6598,5.6876,5.7873,5.807,5.8383,5.9328,5.9483,5.9483,5.9483,5.9483,5.9483,5.9483,5.8529,5.7775,5.7449,5.6394,5.5892,5.6194,5.5917,5.5792,5.5842,5.5842,5.5465,5.4662,5.4336,5.3909,5.3356,5.3046,5.2895,5.2895,5.2895,5.2895,5.2895,5.2895,5.2895,5.287,5.2678,5.2669,5.287,5.2619,5.2578,5.2544,5.2795,5.2744,5.2569,5.2795,5.2895,5.2895,5.2895,5.2895,5.2895,5.2895,5.2895,5.2895,5.2895,5.2895,5.2895,5.2895,5.2895,5.2895,5.2895,5.2895,5.2895,5.2895,5.2895,5.2895,5.2895,5.2895,5.2895,5.2895,5.2895,5.3033,5.3444,5.3512,5.3682,5.414,5.4208,5.4343,5.4738,5.4772,5.4839,5.5065,5.5099,5.5099,5.5099,5.5099,5.5099,5.5099,5.5099,5.5099,5.5099,5.5099,5.5099,5.5099,5.5099,5.5099,5.5099,5.5099,5.5099,5.5099,5.5099,5.5099,5.5099,5.5099,5.5099,5.5099,5.5099,5.5099,5.5099,5.5099,5.5099,5.5265,5.6633,5.7834,5.9093]},{"header":{"parameterUnit":"m.s-1","parameterCategory":1,"la1":30.6,"la2":28.766,"lo1":-90.7593,"lo2":-88.6598,"dy":0.0162,"dx":0.0183,"nx":116,"ny":114,"refTime":"2023-03-26T12:00:00:Z","depth":0,"parameterNumber":3,"parameterNumberName":"V-component_of_WINDS"},"data":[0.0,0.0,0.0,0.0,0.0,0.0,0.0,0.0,0.0,0.0,0.0,0.0,0.0,0.0,0.0,0.0,0.0,0.0,0.0,0.0,0.0,0.0,0.0,0.0,0.0,0.0,0.0,0.0,0.0,0.0,0.0,0.0,0.0,0.0,0.0,0.0,0.0,0.0,0.0,0.0,0.0,0.0,0.0,0.0,0.0,0.0,0.0,0.0,0.0,0.0,0.0,0.0,0.0,0.0,0.0,0.0,0.0,0.0,0.0,0.0,0.0,0.0,0.0,0.0,0.0,0.0,0.0,0.0,0.0,0.0,0.0,0.0,0.0,0.0,0.0,0.0,0.0,0.0,0.0,0.0,0.0,0.0,0.0,0.0,0.0,0.0,0.0,0.0,0.0,0.0,0.0,0.0,0.0,0.0,0.0,0.0,0.0,0.0,0.0,0.0,0.0,0.0,0.0,0.0,0.0,0.0,0.0,0.0,0.0,0.0,0.0,0.0,0.0,0.0,0.0,0.0,0.0,0.0,0.0,0.0,0.0,0.0,0.0,0.0,0.0,0.0,0.0,0.0,0.0,0.0,0.0,0.0,0.0,0.0,0.0,0.0,0.0,0.0,0.0,0.0,0.0,0.0,0.0,0.0,0.0,0.0,0.0,0.0,0.0,0.0,0.0,0.0,0.0,0.0,0.0,0.0,0.0,0.0,0.0,0.0,0.0,0.0,0.0,0.0,0.0,0.0,0.0,0.0,0.0,0.0,0.0,0.0,0.0,0.0,0.0,0.0,0.0,0.0,0.0,0.0,0.0,0.0,0.0,0.0,0.0,0.0,0.0,0.0,0.0,0.0,0.0,0.0,0.0,0.0,0.0,0.0,0.0,0.0,0.0,0.0,0.0,0.0,0.0,0.0,0.0,0.0,0.0,0.0,0.0,0.0,0.0,0.0,0.0,0.0,0.0,0.0,0.0,0.0,0.0,0.0,0.0,0.0,0.0,0.0,0.0,0.0,0.0,0.0,0.0,0.0,0.0,0.0,0.0,0.0,0.0,0.0,0.0,0.0,0.0,0.0,0.0,0.0,0.0,0.0,0.0,0.0,0.0,0.0,0.0,0.0,0.0,0.0,0.0,0.0,0.0,0.0,0.0,0.0,0.0,0.0,0.0,0.0,0.0,0.0,0.0,0.0,0.0,0.0,0.0,0.0,0.0,0.0,0.0,0.0,0.0,0.0,0.0,0.0,0.0,0.0,0.0,0.0,0.0,0.0,0.0,0.0,0.0,0.0,0.0,0.0,0.0,0.0,0.0,0.0,0.0,0.0,0.0,0.0,0.0,0.0,0.0,0.0,0.0,0.0,0.0,0.0,0.0,0.0,0.0,0.0,0.0,0.0,0.0,0.0,0.0,0.0,0.0,0.0,0.0,0.0,0.0,0.0,0.0,0.0,0.0,0.0,0.0,0.0,0.0,0.0,0.0,0.0,0.0,0.0,0.0,0.0,0.0,0.0,0.0,0.0,0.0,0.0,0.0,0.0,0.0,0.0,0.0,0.0,0.0,0.0,0.0,0.0,0.0,0.0,0.0,0.0,0.0,0.0,0.0,0.0,0.0,0.0,0.0,0.0,0.0,0.0,0.0,0.0,0.0,0.0,0.0,0.0,0.0,0.0,0.0,0.0,0.0,0.0,0.0,0.0,0.0,0.0,0.0,0.0,0.0,0.0,0.0,0.0,0.0,0.0,0.0,0.0,0.0,0.0,0.0,0.0,0.0,0.0,0.0,0.0,0.0,0.0,0.0,0.0,0.0,0.0,0.0,0.0,0.0,0.0,0.0,0.0,0.0,0.0,0.0,0.0,0.0,0.0,0.0,0.0,0.0,0.0,0.0,0.0,0.0,0.0,0.0,0.0,0.0,0.0,0.0,0.0,0.0,0.0,0.0,0.0,0.0,0.0,0.0,0.0,0.0,0.0,0.0,0.0,0.0,0.0,0.0,0.0,0.0,0.0,0.0,0.0,0.0,0.0,0.0,0.0,0.0,0.0,0.0,0.0,0.0,0.0,0.0,0.0,0.0,0.0,0.0,0.0,0.0,0.0,0.0,0.0,0.0,0.0,0.0,0.0,0.0,0.0,0.0,0.0,0.0,0.0,0.0,0.0,0.0,0.0,0.0,0.0,0.0,0.0,0.0,0.0,0.0,0.0,0.0,0.0,0.0,0.0,0.0,0.0,0.0,0.0,0.0,0.0,0.0,0.0,0.0,0.0,0.0,0.0,0.0,0.0,0.0,0.0,0.0,0.0,0.0,0.0,0.0,0.0,0.0,0.0,0.0,0.0,0.0,0.0,0.0,0.0,0.0,0.0,0.0,0.0,0.0,0.0,0.0,0.0,0.0,0.0,0.0,0.0,0.0,0.0,0.0,0.0,0.0,0.0,0.0,0.0,0.0,0.0,0.0,0.0,0.0,0.0,0.0,0.0,0.0,0.0,0.0,0.0,0.0,0.0,0.0,0.0,0.0,0.0,0.0,0.0,0.0,0.0,0.0,0.0,0.0,0.0,0.0,0.0,0.0,0.0,0.0,0.0,0.0,0.0,0.0,0.0,0.0,0.0,0.0,0.0,0.0,0.0,0.0,0.0,0.0,0.0,0.0,0.0,0.0,0.0,0.0,0.0,0.0,0.0,0.0,0.0,0.0,0.0,0.0,0.0,0.0,0.0,0.0,0.0,0.0,0.0,0.0,0.0,0.0,0.0,0.0,0.0,0.0,0.0,0.0,0.0,0.0,0.0,0.0,0.0,0.0,0.0,0.0,0.0,0.0,0.0,0.0,0.0,0.0,0.0,0.0,0.0,0.0,0.0,0.0,0.0,0.0,0.0,0.0,0.0,0.0,0.0,0.0,0.0,0.0,0.0,0.0,0.0,0.0,0.0,0.0,0.0,0.0,0.0,0.0,0.0,0.0,0.0,0.0,0.0,0.0,0.0,0.0,0.0,0.0,0.0,0.0,0.0,0.0,0.0,0.0,0.0,0.0,0.0,0.0,0.0,0.0,0.0,0.0,0.0,0.0,0.0,0.0,0.0,0.0,0.0,0.0,0.0,0.0,0.0,0.0,0.0,0.0,0.0,0.0,0.0,0.0,0.0,0.0,0.0,0.0,0.0,0.0,0.0,0.0,0.0,0.0,0.0,0.0,0.0,0.0,0.0,0.0,0.0,0.0,0.0,0.0,0.0,0.0,0.0,0.0,0.0,0.0,0.0,0.0,0.0,0.0,0.0,0.0,0.0,0.0,0.0,0.0,0.0,0.0,0.0,0.0,0.0,0.0,0.0,0.0,0.0,0.0,0.0,0.0,0.0,0.0,0.0,0.0,0.0,0.0,0.0,0.0,0.0,0.0,0.0,0.0,0.0,0.0,0.0,0.0,0.0,0.0,0.0,0.0,0.0,0.0,0.0,0.0,0.0,0.0,0.0,0.0,0.0,0.0,0.0,0.0,0.0,0.0,0.0,0.0,0.0,0.0,0.0,0.0,0.0,0.0,0.0,0.0,0.0,0.0,0.0,0.0,0.0,0.0,0.0,0.0,0.0,0.0,0.0,0.0,0.0,0.0,0.0,0.0,0.0,0.0,0.0,0.0,0.0,0.0,0.0,0.0,0.0,0.0,0.0,0.0,0.0,0.0,0.0,0.0,0.0,0.0,0.0,0.0,0.0,0.0,0.0,0.0,0.0,0.0,0.0,0.0,0.0,0.0,0.0,0.0,0.0,0.0,0.0,0.0,0.0,0.0,0.0,0.0,0.0,0.0,0.0,0.0,0.0,0.0,0.0,0.0,0.0,0.0,0.0,0.0,0.0,0.0,0.0,0.0,0.0,0.0,0.0,0.0,0.0,0.0,0.0,0.0,0.0,0.0,0.0,0.0,0.0,0.0,0.0,0.0,0.0,0.0,0.0,0.0,0.0,0.0,0.0,0.0,0.0,0.0,0.0,0.0,0.0,0.0,0.0,0.0,0.0,0.0,0.0,0.0,0.0,0.0,0.0,0.0,0.0,0.0,0.0,0.0,0.0,0.0,0.0,0.0,0.0,0.0,0.0,0.0,0.0,0.0,0.0,0.0,0.0,0.0,0.0,0.0,0.0,0.0,0.0,0.0,0.0,0.0,0.0,0.0,0.0,0.0,0.0,0.0,0.0,0.0,0.0,0.0,0.0,0.0,0.0,0.0,0.0,0.0,0.0,0.0,0.0,0.0,0.0,0.0,0.0,0.0,0.0,0.0,0.0,0.0,0.0,0.0,0.0,0.0,0.0,0.0,0.0,0.0,0.0,0.0,0.0,0.0,0.0,0.0,0.0,0.0,0.0,0.0,0.0,0.0,0.0,0.0,0.0,0.0,0.0,0.0,0.0,0.0,0.0,0.0,0.0,0.0,0.0,0.0,0.0,0.0,0.0,0.0,0.0,0.0,0.0,0.0,0.0,0.0,0.0,0.0,0.0,0.0,0.0,0.0,0.0,0.0,0.0,0.0,0.0,0.0,0.0,0.0,0.0,0.0,0.0,0.0,0.0,0.0,0.0,0.0,0.0,0.0,0.0,0.0,0.0,0.0,0.0,0.0,0.0,0.0,0.0,0.0,0.0,0.0,0.0,0.0,0.0,0.0,0.0,0.0,0.0,0.0,0.0,0.0,0.0,0.0,0.0,0.0,0.0,0.0,0.0,0.0,0.0,0.0,0.0,0.0,0.0,0.0,0.0,0.0,0.0,0.0,0.0,0.0,0.0,0.0,0.0,0.0,0.0,0.0,0.0,0.0,0.0,0.0,0.0,0.0,0.0,0.0,0.0,0.0,0.0,0.0,0.0,0.0,0.0,0.0,0.0,0.0,0.0,0.0,0.0,0.0,0.0,0.0,0.0,0.0,0.0,0.0,0.0,0.0,0.0,0.0,0.0,0.0,0.0,0.0,0.0,0.0,0.0,0.0,0.0,0.0,0.0,0.0,0.0,0.0,0.0,0.0,0.0,0.0,0.0,0.0,0.0,0.0,0.0,0.0,0.0,0.0,0.0,0.0,0.0,0.0,0.0,0.0,0.0,0.0,0.0,0.0,0.0,0.0,0.0,0.0,0.0,0.0,0.0,0.0,0.0,0.0,0.0,0.0,0.0,0.0,0.0,0.0,0.0,0.0,0.0,0.0,0.0,0.0,0.0,0.0,0.0,0.0,0.0,0.0,0.0,0.0,0.0,0.0,0.0,0.0,0.0,0.0,0.0,0.0,0.0,0.0,0.0,0.0,0.0,0.0,0.0,0.0,0.0,0.0,0.0,0.0,0.0,0.0,0.0,0.0,0.0,0.0,0.0,0.0,0.0,0.0,0.0,0.0,0.0,0.0,0.0,0.0,0.0,0.0,0.0,0.0,0.0,0.0,0.0,0.0,0.0,0.0,0.0,0.0,0.0,0.0,0.0,0.0,0.0,0.0,0.0,0.0,0.0,0.0,0.0,0.0,0.0,0.0,0.0,0.0,0.0,0.0,0.0,0.0,0.0,0.0,0.0,0.0,0.0,0.0,0.0,0.0,0.0,0.0,0.0,0.0,0.0,0.0,0.0,0.0,0.0,0.0,0.0,0.0,0.0,0.0,0.0,0.0,0.0,0.0,0.0,0.0,0.0,0.0,0.0,0.0,0.0,0.0,0.0,0.0,0.0,0.0,0.0,0.0,0.0,0.0,0.0,0.0,0.0,0.0,0.0,0.0,0.0,0.0,0.0,0.0,0.0,0.0,0.0,0.0,0.0,0.0,0.0,0.0,0.0,0.0,0.0,0.0,0.0,0.0,0.0,0.0,0.0,0.0,0.0,0.0,0.0,0.0,0.0,0.0,0.0,0.0,0.0,0.0,0.0,0.0,0.0,0.0,0.0,0.0,0.0,0.0,0.0,0.0,0.0,0.0,0.0,0.0,0.0,0.0,0.0,0.0,0.0,0.0,0.0,0.0,0.0,0.0,0.0,0.0,0.0,0.0,0.0,0.0,0.0,0.0,0.0,0.0,0.0,0.0,0.0,0.0,0.0,0.0,0.0,0.0,0.0,0.0,0.0,0.0,0.0,0.0,0.0,0.0,0.0,0.0,0.0,0.0,0.0,2.5411,0.0,0.0,0.0,0.0,0.0,0.0,0.0,0.0,0.0,0.0,0.0,0.0,0.0,0.0,0.0,0.0,0.0,0.0,0.0,0.0,0.0,0.0,0.0,0.0,0.0,0.0,0.0,0.0,0.0,0.0,0.0,0.0,0.0,0.0,0.0,0.0,0.0,0.0,0.0,0.0,0.0,0.0,0.0,0.0,0.0,0.0,0.0,0.0,0.0,0.0,0.0,0.0,0.0,0.0,0.0,0.0,0.0,0.0,0.0,0.0,0.0,0.0,0.0,0.0,0.0,0.0,0.0,0.0,0.0,0.0,0.0,0.0,0.0,0.0,0.0,0.0,0.0,0.0,0.0,0.0,0.0,0.0,0.0,0.0,0.0,0.0,0.0,0.0,0.0,0.0,0.0,0.0,0.0,0.0,0.0,0.0,0.0,0.0,0.0,0.0,0.0,0.0,0.0,0.0,0.0,0.0,0.0,0.0,0.0,0.0,0.0,0.0,0.0,0.0,0.0,0.0,2.683,0.0,0.0,0.0,0.0,0.0,0.0,0.0,0.0,0.0,0.0,0.0,0.0,0.0,0.0,0.0,0.0,0.0,0.0,0.0,0.0,0.0,0.0,0.0,0.0,0.0,0.0,0.0,0.0,0.0,0.0,0.0,0.0,0.0,0.0,0.0,0.0,0.0,0.0,0.0,0.0,0.0,0.0,0.0,0.0,0.0,0.0,0.0,0.0,0.0,0.0,0.0,0.0,0.0,0.0,0.0,0.0,0.0,0.0,0.0,0.0,0.0,0.0,0.0,0.0,0.0,0.0,0.0,0.0,0.0,0.0,0.0,0.0,0.0,0.0,0.0,0.0,0.0,0.0,0.0,0.0,0.0,0.0,0.0,0.0,0.0,0.0,0.0,0.0,0.0,0.0,0.0,0.0,0.0,0.0,0.0,0.0,0.0,0.0,0.0,0.0,0.0,0.0,0.0,0.0,0.0,0.0,0.0,0.0,0.0,0.0,3.4986,3.4676,3.4849,3.5259,3.2567,3.046,2.8938,0.0,0.0,0.0,0.0,0.0,0.0,0.0,0.0,0.0,0.0,0.0,0.0,0.0,0.0,0.0,0.0,0.0,0.0,0.0,0.0,0.0,0.0,0.0,0.0,0.0,0.0,0.0,0.0,0.0,0.0,0.0,0.0,0.0,0.0,0.0,0.0,0.0,0.0,0.0,3.7687,3.7687,3.7673,3.7572,3.5283,0.0,0.0,0.0,0.0,0.0,0.0,0.0,0.0,0.0,0.0,0.0,0.0,0.0,0.0,0.0,0.0,0.0,0.0,0.0,0.0,0.0,0.0,0.0,0.0,0.0,0.0,0.0,0.0,0.0,0.0,0.0,0.0,0.0,0.0,0.0,0.0,0.0,0.0,0.0,0.0,0.0,0.0,0.0,3.0078,3.0176,0.0,0.0,0.0,0.0,0.0,0.0,0.0,0.0,0.0,0.0,0.0,0.0,0.0,0.0,3.3973,3.4848,3.5724,3.6595,3.7047,3.7339,3.7436,3.7397,3.7433,3.7488,3.7062,0.0,3.2797,3.204,0.0,0.0,0.0,0.0,0.0,0.0,0.0,0.0,0.0,0.0,0.0,0.0,0.0,0.0,0.0,0.0,0.0,0.0,0.0,0.0,0.0,0.0,0.0,0.0,0.0,0.0,0.0,0.0,0.0,0.0,0.0,0.0,0.0,0.0,0.0,0.0,3.7132,3.8455,3.9805,4.0118,4.0551,4.098,3.9522,3.7973,3.6405,3.4979,0.0,0.0,0.0,0.0,0.0,0.0,0.0,0.0,0.0,0.0,0.0,0.0,0.0,0.0,0.0,0.0,0.0,0.0,0.0,0.0,0.0,0.0,0.0,0.0,0.0,0.0,0.0,0.0,0.0,0.0,0.0,0.0,0.0,0.0,0.0,0.0,0.0,0.0,0.0,3.0039,3.0586,3.0586,3.0351,3.0098,0.0,0.0,0.0,0.0,0.0,0.0,0.0,0.0,0.0,3.4375,3.4961,3.5664,3.6504,3.7148,3.7891,3.8769,3.918,3.9728,4.0391,3.9961,4.0,4.0411,4.0215,3.8989,3.6957,3.4481,3.2281,3.031,0.0,0.0,0.0,0.0,0.0,2.8051,0.0,0.0,0.0,0.0,0.0,0.0,0.0,0.0,0.0,0.0,0.0,0.0,0.0,0.0,0.0,3.4294,0.0,0.0,0.0,0.0,0.0,0.0,0.0,0.0,0.0,0.0,0.0,3.7805,3.9152,4.0643,4.2206,4.2735,4.3223,4.3584,4.3024,4.1148,3.8385,3.7421,3.6553,0.0,0.0,0.0,0.0,0.0,0.0,0.0,0.0,0.0,0.0,0.0,0.0,0.0,0.0,0.0,0.0,0.0,0.0,0.0,0.0,0.0,0.0,0.0,0.0,0.0,0.0,0.0,0.0,0.0,0.0,0.0,0.0,0.0,0.0,0.0,0.0,0.0,0.0,3.0781,3.1387,3.0937,3.0976,3.0684,0.0,0.0,0.0,0.0,0.0,0.0,3.3555,3.4466,3.5678,3.7301,3.7574,3.8105,3.9025,3.9609,4.0332,4.1211,4.1641,4.2344,4.3242,4.2617,4.2539,4.291,4.248,4.1621,4.0255,3.6805,3.451,3.3027,3.1595,3.0788,0.0,3.1243,3.1535,3.1653,0.0,0.0,0.0,0.0,0.0,0.0,0.0,0.0,0.0,0.0,0.0,0.0,0.0,0.0,3.6459,3.6964,3.7567,3.788,0.0,0.0,0.0,0.0,0.0,0.0,0.0,0.0,0.0,3.9489,4.1586,4.3385,4.4917,4.5445,4.571,4.571,4.5181,4.377,4.1634,3.9561,3.8644,3.8323,0.0,0.0,0.0,0.0,0.0,0.0,0.0,0.0,0.0,0.0,0.0,0.0,0.0,0.0,0.0,0.0,0.0,0.0,0.0,0.0,0.0,0.0,0.0,0.0,0.0,0.0,0.0,0.0,0.0,0.0,0.0,0.0,0.0,0.0,0.0,0.0,0.0,0.0,0.0,3.1074,3.2285,0.0,0.0,0.0,0.0,3.2061,3.3574,3.4902,3.5767,3.668,3.7734,3.9043,3.9883,4.0899,4.2148,4.3027,4.3887,4.4723,4.5215,4.5449,4.5508,4.5512,4.5019,4.4277,4.3808,4.3105,4.205,3.9473,3.7363,3.5708,3.4791,3.4277,3.4081,3.4362,3.4335,3.4145,0.0,0.0,0.0,0.0,0.0,0.0,0.0,0.0,0.0,0.0,0.0,0.0,0.0,3.7397,3.896,4.019,4.0792,4.0503,3.9104,0.0,0.0,0.0,0.0,0.0,0.0,0.0,3.9513,4.2164,4.3914,4.5621,4.7185,4.7714,4.7954,4.7906,4.704,4.6054,4.4828,4.1677,3.9753,3.8617,3.6407,3.483,0.0,0.0,0.0,0.0,0.0,0.0,0.0,0.0,0.0,0.0,0.0,0.0,0.0,0.0,0.0,0.0,0.0,0.0,0.0,0.0,0.0,0.0,0.0,0.0,0.0,0.0,0.0,0.0,0.0,0.0,0.0,0.0,0.0,0.0,0.0,0.0,0.0,3.3437,3.5098,0.0,0.0,3.4662,3.4974,3.4668,3.623,3.7578,3.8457,3.959,4.0918,4.25,4.2851,4.3496,4.4512,4.4531,4.4665,4.4977,4.5176,4.541,4.5707,4.5391,4.5234,4.5195,4.4746,4.4062,4.3164,4.1973,3.9805,3.7113,3.6309,3.5611,3.5101,3.5728,3.5942,3.5913,0.0,0.0,0.0,0.0,0.0,0.0,0.0,0.0,0.0,0.0,0.0,3.415,3.7132,3.9537,4.1485,4.2928,4.3024,4.2308,4.0523,0.0,0.0,0.0,3.5688,0.0,0.0,3.9489,4.1605,4.4113,4.603,4.7521,4.8579,4.9301,4.9517,4.9359,4.8603,4.7906,4.7064,4.4443,4.2086,3.9994,3.8214,3.6954,3.6025,0.0,0.0,0.0,0.0,0.0,0.0,0.0,0.0,0.0,0.0,0.0,0.0,0.0,0.0,0.0,0.0,0.0,0.0,0.0,0.0,0.0,0.0,0.0,0.0,0.0,0.0,0.0,0.0,0.0,0.0,0.0,0.0,0.0,0.0,0.0,3.6133,3.582,3.7832,3.8613,3.7031,3.7539,3.7851,3.7523,3.8984,4.0254,4.1133,4.2129,4.3398,4.5,4.4902,4.5312,4.6308,4.5742,4.5527,4.5621,4.5484,4.5605,4.5879,4.5586,4.5527,4.5707,4.5371,4.4746,4.3906,4.3476,4.1777,3.9299,3.8359,3.7539,3.6973,3.7398,3.7617,3.7809,0.0,0.0,0.0,0.0,0.0,0.0,0.0,0.0,0.0,0.0,3.242,3.5111,3.7808,4.1389,4.4058,4.5133,4.4172,4.3096,4.2067,3.7998,0.0,0.0,0.0,0.0,3.8888,4.1937,4.41,4.5229,4.7858,4.9167,4.9215,5.0239,5.0455,4.9985,4.9961,4.9383,4.8363,4.781,4.579,4.2789,4.0595,3.997,4.009,0.0,0.0,0.0,0.0,0.0,0.0,0.0,0.0,0.0,0.0,0.0,0.0,0.0,0.0,0.0,0.0,0.0,0.0,0.0,0.0,0.0,0.0,0.0,0.0,0.0,0.0,0.0,0.0,0.0,0.0,0.0,0.0,0.0,3.4095,3.6387,3.8011,3.803,4.0351,4.1113,3.8984,3.9941,4.0645,4.0626,4.1796,4.287,4.373,4.4199,4.5019,4.6269,4.5918,4.6333,4.7519,4.6719,4.6504,4.687,4.6504,4.6308,4.6308,4.6308,4.6074,4.5746,4.5746,4.5215,4.4394,4.3926,4.3242,4.2304,4.1016,4.0312,3.9883,3.9434,3.9531,3.9844,0.0,0.0,0.0,0.0,0.0,0.0,0.0,0.0,0.0,0.0,3.3717,3.7348,4.0046,4.3601,4.6415,4.7858,4.559,4.3475,4.2091,0.0,0.0,0.0,3.6699,0.0,4.1052,4.3457,4.5766,4.8002,4.9517,5.0455,5.084,5.1537,5.1754,5.1646,5.1225,5.0888,5.0551,4.9614,4.8517,4.7049,4.3391,4.1105,3.9657,0.0,0.0,0.0,0.0,0.0,0.0,0.0,0.0,0.0,0.0,0.0,0.0,0.0,0.0,0.0,0.0,0.0,0.0,0.0,0.0,0.0,0.0,0.0,0.0,0.0,0.0,0.0,0.0,0.0,0.0,0.0,0.0,3.5,3.543,3.8516,4.0859,4.1113,4.3476,4.459,4.3359,4.4141,4.4453,4.3787,4.4687,4.5215,4.5137,4.5547,4.5937,4.6289,4.6191,4.6289,4.6641,4.6426,4.6367,4.6465,4.6367,4.6308,4.6308,4.6308,4.623,4.6133,4.6133,4.582,4.5293,4.4844,4.4141,4.3223,4.1953,4.1191,4.0839,4.0722,4.0508,4.0293,0.0,0.0,0.0,0.0,0.0,0.0,0.0,0.0,0.0,0.0,3.4775,3.8719,4.096,4.4491,4.6992,4.769,4.5261,4.2808,4.0787,0.0,0.0,0.0,3.8359,4.084,4.3577,4.5934,4.7978,4.9758,5.084,5.1393,5.1513,5.2295,5.2536,5.232,5.2187,5.2055,5.1778,5.1188,5.0611,4.9854,4.7193,4.4683,4.2423,4.0884,3.9922,3.9296,3.8647,3.7831,3.6778,3.475,0.0,0.0,0.0,0.0,0.0,0.0,0.0,0.0,0.0,0.0,0.0,0.0,0.0,0.0,0.0,0.0,0.0,0.0,0.0,0.0,0.0,0.0,0.0,0.0,3.6055,3.8008,3.9336,4.1308,4.3027,4.4138,4.5801,4.6641,4.6152,4.6699,4.6894,4.6387,4.6816,4.707,4.7056,4.6894,4.6992,4.7363,4.7031,4.6914,4.709,4.6738,4.6562,4.6562,4.6387,4.6308,4.6308,4.6308,4.6308,0.0,4.6308,4.6055,4.5644,4.5195,4.4609,0.0,0.0,0.0,0.0,0.0,4.1055,4.0488,0.0,0.0,0.0,0.0,0.0,0.0,0.0,0.0,0.0,0.0,0.0,3.9224,4.0739,4.4227,4.6238,4.583,4.3842,4.1514,0.0,0.0,3.6892,3.7613,4.1249,4.4185,4.6118,4.8724,5.0346,5.0888,5.1946,5.2211,5.1778,5.2873,5.3114,5.2644,5.3162,5.3114,5.2656,5.2608,5.2259,5.1802,5.1273,4.9349,4.6583,4.4611,4.377,4.3433,4.2038,4.0382,3.8606,3.7349,0.0,0.0,0.0,0.0,0.0,0.0,0.0,0.0,0.0,0.0,0.0,0.0,0.0,0.0,0.0,0.0,0.0,0.0,0.0,0.0,0.0,0.0,0.0,0.0,3.8869,4.1777,4.4336,4.4453,4.4961,4.6733,4.7422,4.7715,4.7656,4.8027,4.8262,4.8203,4.8203,4.8359,4.8737,0.0,0.0,0.0,0.0,4.7754,4.8125,4.7383,4.6992,4.6948,4.6582,4.6367,4.6367,4.6328,4.6308,4.6308,4.6308,4.6094,4.5703,4.5234,4.4746,4.4238,4.3398,4.2812,4.2343,4.2012,4.1367,0.0,0.0,0.0,0.0,0.0,0.0,0.0,0.0,0.0,0.0,3.078,3.4751,3.795,3.9152,4.2561,4.4917,4.5229,4.2952,4.0551,0.0,3.7853,3.853,4.0359,4.3962,4.6535,4.781,5.0022,5.1441,5.197,5.3004,5.3461,5.3389,5.4447,5.488,5.4784,5.4904,5.488,5.476,5.4327,5.4087,5.3966,5.3437,5.0864,4.7257,4.6415,4.5277,4.4124,4.3811,4.3713,4.3357,4.0998,3.9969,3.9014,3.5059,0.0,0.0,0.0,0.0,0.0,0.0,0.0,0.0,0.0,0.0,0.0,0.0,0.0,0.0,0.0,0.0,0.0,0.0,0.0,0.0,3.8164,4.1113,4.3867,4.607,4.7266,4.7799,4.748,4.819,4.8522,4.8125,4.8522,4.864,4.8223,4.8203,4.8086,4.7832,4.7676,0.0,4.7877,4.7676,4.7617,4.7695,4.7539,4.7461,4.7441,0.0,0.0,4.6753,4.6465,4.6308,4.6308,4.6308,4.625,4.6113,4.5351,4.4551,4.3789,4.3281,4.2812,4.2382,4.2304,4.1992,4.1543,0.0,0.0,0.0,0.0,0.0,0.0,0.0,0.0,0.0,0.0,3.4102,3.6723,3.7491,4.0206,4.172,4.1192,3.8957,0.0,3.8,3.8743,4.0619,4.3818,4.6752,4.9036,5.0683,5.197,5.3173,5.4255,5.4496,5.476,5.501,5.5578,5.5674,5.5409,5.5698,5.5766,5.5733,5.5198,5.5116,5.5307,5.4788,5.3029,5.0576,4.9806,4.8507,4.7064,4.68,4.6503,4.6006,4.4128,4.3301,4.2528,3.9181,3.6943,3.5146,0.0,0.0,0.0,0.0,0.0,0.0,0.0,0.0,0.0,0.0,0.0,0.0,0.0,0.0,3.2539,0.0,0.0,3.873,4.1074,4.3457,4.5605,4.7324,4.832,4.8737,4.8307,4.8789,4.9023,4.8574,4.8926,4.9101,4.8887,4.8867,4.8867,4.8887,4.8503,4.832,4.8555,4.834,4.8151,4.7891,4.7891,4.7793,4.7578,4.7363,4.7148,4.687,4.6719,4.6504,4.6308,4.6308,4.6308,4.623,4.5371,4.4648,4.4004,4.3555,4.3262,4.3047,4.2832,4.2617,4.2383,0.0,0.0,0.0,0.0,0.0,0.0,0.0,0.0,0.0,0.0,3.3236,3.5159,3.5593,3.7495,3.8198,0.0,0.0,3.5834,3.8169,4.0186,4.3024,4.6848,4.9287,5.1381,5.321,5.3822,5.4808,5.6188,5.6065,5.6152,5.6474,5.661,5.6345,5.5839,5.6297,5.6444,5.6381,5.611,5.6188,5.6521,5.6033,5.526,5.4296,5.3282,5.1862,5.0298,4.9648,4.8579,4.7377,4.6511,4.5638,4.4632,4.2817,4.0561,3.8164,3.5936,3.3862,0.0,0.0,0.0,0.0,0.0,0.0,0.0,0.0,0.0,3.2176,3.2561,3.3867,3.5541,3.7379,3.9906,4.223,4.3909,4.593,4.7455,4.8112,4.8652,4.9011,4.8913,4.9336,4.9512,4.9187,4.9433,4.9648,4.9648,4.9648,4.9766,5.0039,4.9375,4.916,4.9465,4.9101,4.8776,4.8457,4.8379,4.8164,4.7832,4.7734,4.7519,4.7123,4.7045,4.6816,4.6426,4.6328,4.625,4.6133,4.543,4.4844,4.4355,4.3984,4.3789,4.3672,4.332,4.3185,4.3029,0.0,0.0,0.0,0.0,0.0,0.0,0.0,0.0,0.0,0.0,0.0,0.0,0.0,0.0,0.0,0.0,3.6692,3.8357,3.9345,4.2658,4.5614,4.8002,5.1092,5.3066,5.3726,5.4712,5.5554,5.6188,5.7491,5.7907,5.744,5.798,5.7932,5.7343,5.7415,5.7455,5.7461,5.7839,5.7996,5.7996,5.754,5.7018,5.6348,5.5419,5.3774,5.191,5.0888,4.9229,4.7473,4.7377,4.5998,4.4314,4.3895,4.2078,3.9571,3.7054,0.0,3.2363,3.0664,2.995,2.9637,2.95,3.1019,3.2596,0.0,0.0,3.6248,3.6583,3.7402,3.8747,4.084,4.3775,4.5943,4.6005,4.8594,5.0014,4.8411,4.8926,4.9297,4.8952,4.9637,5.0078,5.0086,5.0125,5.0098,5.0098,5.0098,4.9961,4.9609,4.9512,4.9426,4.9484,4.9101,4.907,4.9328,4.8984,4.8815,4.8757,4.832,4.8105,4.8047,4.7676,4.7266,4.6792,4.6465,4.6094,4.5742,4.5644,4.5137,4.4394,4.4336,4.4062,4.3691,4.3652,4.3398,4.3107,0.0,0.0,0.0,0.0,0.0,0.0,0.0,0.0,0.0,0.0,0.0,0.0,0.0,0.0,0.0,0.0,3.4748,3.7497,4.0839,4.3802,4.7223,5.1218,5.3277,5.4875,5.6038,5.6224,5.702,5.8419,5.8524,5.8556,5.8539,5.8823,5.8789,5.8491,5.8491,5.8609,5.8783,5.8473,5.8443,5.8575,5.7868,5.7433,5.7032,5.5426,5.3617,5.1722,4.9921,4.8122,0.0,0.0,4.4989,4.475,4.4673,4.2989,4.0743,3.9129,3.6682,0.0,3.2962,3.2755,3.2965,0.0,3.5066,3.6859,3.7965,3.9773,4.1435,4.2174,4.3642,4.5195,4.6592,4.7941,4.889,0.0,5.0661,5.1652,5.0808,5.1218,5.1339,5.0656,5.0357,5.0078,4.9824,5.0039,5.0676,5.1812,5.0865,5.0597,5.1529,5.0541,4.9902,4.9902,4.9726,4.9726,4.9902,4.9726,4.9492,4.9238,4.9062,4.8711,4.8183,4.7773,4.7207,4.6562,4.6367,4.6211,4.6016,4.5781,4.5512,4.5117,4.4863,4.4492,4.4082,4.3808,4.3594,4.3418,0.0,0.0,0.0,0.0,0.0,0.0,0.0,0.0,0.0,0.0,0.0,0.0,0.0,0.0,0.0,3.1406,3.349,3.67,4.1124,4.4072,4.7824,5.2668,5.4104,5.5696,5.7599,5.7506,5.8338,6.0179,5.9609,5.9496,5.9756,5.9527,5.9345,5.9246,5.9098,5.9182,5.9433,5.8865,5.877,5.9004,5.8261,5.7726,5.7186,5.4755,5.2605,5.0553,4.8515,4.6376,0.0,0.0,4.288,4.3234,4.3835,4.2572,4.0716,3.9986,3.7668,3.525,3.4797,0.0,0.0,3.7296,3.9285,4.135,4.2694,4.4614,4.6279,4.6972,4.8504,4.9975,5.0972,5.1145,5.1385,5.21,5.284,5.3282,5.3258,5.3426,5.3149,5.2203,5.1416,5.082,5.0664,5.0474,5.1225,5.3287,5.1609,5.1115,5.2395,5.1118,5.0293,5.0176,5.0176,5.0176,5.0176,5.0058,4.9844,4.9484,4.9414,4.9004,4.8379,4.7949,4.7344,4.6641,4.6523,4.6406,4.6289,4.5976,4.5781,4.5625,4.5195,4.4766,4.4336,4.3867,4.3711,4.3652,0.0,0.0,0.0,0.0,0.0,0.0,0.0,0.0,0.0,0.0,0.0,0.0,0.0,0.0,0.0,3.1158,3.4022,3.6949,3.9502,4.3343,4.7166,5.0926,5.2877,5.501,5.745,5.8112,5.9186,6.067,6.1053,6.1216,6.1232,6.0164,5.9707,5.9657,5.9135,5.8887,5.8951,5.9314,5.9469,5.9469,5.9018,5.8202,5.686,5.3761,5.0916,4.8404,4.6947,0.0,0.0,0.0,3.9465,3.8578,4.0672,4.0235,0.0,3.8717,3.6657,0.0,0.0,0.0,3.8067,4.0218,4.3132,4.5645,4.6223,4.8403,5.0298,5.0285,5.0646,5.131,5.2602,5.2907,5.3452,5.4869,5.5154,5.522,5.5219,5.476,5.4062,5.2974,5.2758,5.2931,0.0,5.1825,5.1781,5.4168,5.2507,5.1211,5.0897,5.0829,5.0605,5.0195,5.0176,5.0176,5.0176,4.9766,4.9484,4.9531,4.9082,4.8913,4.8874,4.8379,4.7949,4.7519,4.709,4.668,4.6308,4.6289,4.6055,4.5625,4.5195,4.4766,4.4336,4.3867,4.3711,4.3711,0.0,0.0,0.0,0.0,0.0,0.0,0.0,0.0,0.0,0.0,0.0,0.0,0.0,0.0,0.0,0.0,3.2941,3.5506,3.8365,4.2019,4.5754,4.9512,5.2727,5.5349,5.7267,5.7966,5.9048,6.0574,6.0372,6.028,6.0238,6.0253,6.0188,6.0076,5.9915,5.984,5.9815,5.9581,5.9709,5.9871,5.7996,5.7423,5.7162,5.2496,4.8975,4.6132,0.0,0.0,0.0,0.0,0.0,0.0,3.8677,0.0,0.0,3.7361,0.0,0.0,0.0,0.0,4.3708,4.6254,4.8471,5.0554,5.2503,5.3919,5.491,5.5238,5.5124,5.4897,5.463,5.3851,5.3683,5.4874,5.5974,5.7056,5.8073,5.839,5.762,5.5289,5.4693,0.0,0.0,0.0,0.0,5.7593,5.6,5.5046,5.5556,5.4409,5.365,5.346,5.3155,5.2992,5.2992,5.285,5.1798,4.9941,4.9265,4.8757,4.8418,4.8281,4.7969,4.7578,4.7422,4.7109,4.6719,4.6719,4.6465,4.6074,4.5937,4.5625,4.5195,4.4746,4.4414,4.4121,0.0,0.0,0.0,0.0,0.0,0.0,0.0,0.0,0.0,0.0,0.0,0.0,0.0,0.0,0.0,0.0,0.0,3.412,3.666,3.9436,4.2736,4.6686,4.9165,5.152,5.3836,5.3953,5.4978,5.6888,5.6811,5.7133,5.7885,5.8209,5.8437,5.8554,5.8353,5.8378,5.8529,5.7976,5.77,5.7487,5.5426,5.4363,5.3547,4.9075,4.5835,0.0,0.0,0.0,0.0,0.0,0.0,0.0,0.0,0.0,0.0,0.0,0.0,0.0,0.0,4.5402,4.8476,5.139,5.3021,5.452,5.6973,5.7388,5.7317,5.7354,5.6646,5.5747,5.4813,5.3079,5.2578,5.5188,5.5757,5.6867,5.9745,6.0104,5.9327,5.7504,5.659,5.6084,0.0,0.0,0.0,5.8828,5.7488,5.6941,5.7751,5.6838,5.6195,5.5931,5.5804,5.5572,5.5255,5.5255,5.4268,5.2305,5.088,5.0011,4.9686,4.8816,4.8125,4.7578,4.7578,4.7246,4.6699,4.6699,4.6543,4.6289,4.6133,4.5918,4.5625,4.5176,4.4766,4.4336,0.0,0.0,0.0,0.0,0.0,0.0,0.0,0.0,0.0,0.0,0.0,0.0,0.0,0.0,0.0,0.0,0.0,0.0,3.4427,3.5803,3.8389,4.2509,4.2626,4.4225,4.7651,4.6879,4.7701,5.026,5.082,5.2185,5.427,5.427,5.4547,5.4988,5.4496,5.4547,5.4963,5.4471,5.3632,5.2569,5.1448,4.9414,4.6747,4.3966,0.0,0.0,0.0,0.0,0.0,0.0,0.0,0.0,0.0,0.0,0.0,0.0,0.0,4.3718,4.6279,4.9114,5.2129,5.5437,5.6614,5.7496,5.9435,5.8814,5.7565,5.6679,5.5255,5.3899,0.0,0.0,5.058,5.568,5.4823,5.5245,6.0477,6.0251,5.951,0.0,0.0,0.0,0.0,0.0,0.0,5.8169,0.0,5.7042,5.7587,5.8094,5.8163,5.7749,5.8119,5.79,5.6978,5.6843,5.6557,5.6097,5.3671,5.2504,5.2437,4.9993,4.8444,4.7617,4.7617,4.7129,4.6328,4.6328,4.6328,4.6269,4.5859,4.5703,4.5664,4.5215,4.4805,4.4394,0.0,0.0,0.0,0.0,0.0,0.0,0.0,0.0,0.0,0.0,0.0,0.0,0.0,0.0,0.0,0.0,0.0,0.0,3.219,3.4462,3.664,3.8592,4.1391,4.369,4.5392,4.5629,4.6686,4.8535,4.8278,4.8686,4.9615,4.9615,4.969,4.9816,4.9665,4.969,4.9816,4.9665,4.969,4.9698,0.0,4.6778,4.6145,0.0,0.0,0.0,0.0,0.0,0.0,0.0,0.0,0.0,0.0,3.7251,3.9202,0.0,0.0,4.6263,4.9652,5.2641,5.5391,5.7736,5.8732,5.9247,5.977,5.8653,5.7091,5.5641,5.3434,5.1086,0.0,0.0,0.0,5.3908,5.6488,0.0,6.3385,6.3904,0.0,6.1875,0.0,6.1614,5.9883,6.0512,0.0,0.0,6.0427,6.0086,6.068,6.0907,6.0907,6.0724,6.0544,6.0135,5.9499,5.7705,5.6732,5.66,5.3819,5.2504,5.2437,4.9993,4.86,4.8047,4.8047,4.7558,4.6777,4.6777,4.6582,4.6289,4.6191,4.6152,4.6094,4.5664,4.5449,4.5293,0.0,0.0,0.0,0.0,0.0,0.0,0.0,0.0,0.0,0.0,0.0,0.0,0.0,0.0,0.0,0.0,0.0,0.0,0.0,3.2144,3.3721,3.5326,3.7009,3.8642,4.0223,4.0124,4.0979,4.2836,4.2785,4.3413,4.4669,4.489,4.4991,4.5016,4.5271,4.5522,4.5748,4.5748,4.5648,0.0,0.0,0.0,0.0,0.0,0.0,0.0,0.0,0.0,0.0,0.0,0.0,3.8154,3.9149,4.1007,4.3128,4.4981,0.0,5.0697,5.3883,5.6509,5.8733,6.0403,6.0675,6.0305,5.9524,5.7767,5.5508,5.2812,5.0484,0.0,4.6223,0.0,0.0,0.0,0.0,0.0,6.3564,6.4284,6.4291,0.0,6.4081,0.0,6.231,6.2724,6.3307,0.0,6.3135,6.2817,6.3147,6.3706,6.3706,6.3149,6.2937,6.2467,6.1671,6.0335,5.9634,5.9634,5.6706,5.53,5.5233,5.2566,5.0977,5.036,0.0,4.9846,4.9024,4.9024,4.8983,4.8985,4.8985,4.8985,4.8944,4.8697,4.8368,4.7998,0.0,0.0,0.0,0.0,0.0,0.0,0.0,0.0,0.0,0.0,0.0,0.0,0.0,0.0,0.0,0.0,0.0,0.0,0.0,0.0,3.0879,3.2788,3.2085,3.2566,3.4552,3.3596,3.4095,3.6155,3.6582,3.7789,3.9721,4.0299,4.0549,4.0575,4.118,4.1683,4.2135,4.2135,4.1555,0.0,0.0,0.0,0.0,0.0,0.0,0.0,0.0,0.0,0.0,0.0,3.9851,4.0261,4.3031,4.5555,4.7968,5.0329,5.3004,5.576,5.8395,6.0373,6.1948,6.3004,6.2348,6.0911,5.9016,5.6402,5.3275,4.921,0.0,4.5624,4.4306,4.5317,4.7702,5.1647,0.0,5.7791,6.2897,6.3489,6.4037,6.5689,6.5446,6.5112,6.5098,6.4821,6.4969,6.5818,6.5536,6.5243,6.5117,6.6054,6.6076,6.5018,6.4921,6.4439,6.3478,6.341,6.341,6.3454,6.0396,5.8959,5.8868,5.5888,5.4019,5.3232,0.0,0.0,5.1811,5.1811,5.2008,5.2314,5.2314,5.2314,5.2314,5.2314,5.1789,5.1089,0.0,0.0,0.0,0.0,0.0,0.0,0.0,0.0,0.0,0.0,3.0331,2.9849,0.0,0.0,0.0,0.0,0.0,0.0,0.0,0.0,0.0,3.1683,3.2411,3.319,3.4022,3.3416,3.3721,0.0,0.0,3.4901,3.5707,3.6235,3.6511,3.6536,3.716,3.7461,3.7537,3.7537,3.7411,0.0,0.0,0.0,0.0,0.0,0.0,0.0,0.0,0.0,0.0,0.0,4.3629,4.459,4.6018,4.8938,5.2241,5.4259,5.6402,5.8857,6.1952,6.3419,6.4209,6.4762,6.3376,6.1171,5.8654,5.4881,0.0,0.0,4.4765,4.3103,4.1503,4.4364,4.8096,5.1638,5.5553,5.9937,6.5055,6.5674,6.6035,0.0,0.0,0.0,0.0,0.0,0.0,0.0,0.0,6.7424,6.6288,6.6749,6.6583,6.5424,6.4979,6.4636,6.444,6.407,6.407,6.4396,6.0681,5.9112,5.9374,5.5998,5.4237,5.3756,0.0,0.0,5.2292,5.2292,5.2117,5.1833,5.1833,5.1833,5.1833,5.1833,5.1745,5.1592,0.0,0.0,0.0,0.0,0.0,0.0,0.0,3.0407,3.0608,3.1687,3.1361,3.106,3.106,3.0809,3.0733,0.0,0.0,0.0,0.0,0.0,0.0,0.0,0.0,0.0,0.0,0.0,0.0,0.0,0.0,0.0,0.0,0.0,0.0,0.0,0.0,0.0,0.0,0.0,0.0,0.0,0.0,0.0,0.0,0.0,0.0,0.0,0.0,0.0,0.0,0.0,4.4166,4.7249,5.0098,5.3073,5.5906,5.8026,5.9926,6.1927,6.4312,6.5832,6.6554,6.5893,6.3852,6.0839,5.6344,0.0,0.0,0.0,4.2032,4.1028,4.0224,4.3489,4.7062,4.9574,5.2967,5.7324,6.3236,6.3777,0.0,6.8285,0.0,0.0,0.0,0.0,0.0,0.0,0.0,0.0,6.7375,6.6947,6.6541,6.598,6.5144,6.4702,6.4702,6.4484,6.4353,6.4309,6.1911,6.0758,6.0667,5.8679,5.7398,5.6767,0.0,0.0,5.5206,5.5206,5.5068,5.4861,5.4861,5.4861,5.4861,5.4861,5.4699,5.4469,0.0,0.0,0.0,0.0,0.0,0.0,0.0,3.1035,3.1311,3.2721,3.2696,3.2545,3.2545,3.1964,3.1512,0.0,0.0,0.0,0.0,0.0,0.0,0.0,0.0,0.0,0.0,0.0,0.0,0.0,0.0,0.0,0.0,0.0,0.0,0.0,0.0,0.0,0.0,0.0,0.0,0.0,0.0,0.0,0.0,0.0,0.0,0.0,0.0,0.0,0.0,0.0,4.3539,4.7606,5.1984,5.5476,5.8252,6.0111,6.227,6.4379,6.6036,6.7693,6.8572,6.689,6.4053,6.0111,5.4225,4.9508,0.0,0.0,3.9898,3.9546,3.9672,4.2484,4.5472,0.0,5.0167,5.421,6.0738,6.1692,6.3601,0.0,6.9953,0.0,0.0,0.0,0.0,0.0,0.0,0.0,6.8213,6.7115,6.6473,6.6315,6.5476,6.5006,6.5006,6.4876,6.4653,6.4269,6.3166,6.244,6.2019,6.1195,6.039,5.9712,0.0,0.0,0.0,5.7911,5.7814,5.779,5.7694,5.7646,5.7646,5.7646,5.7381,5.6981,0.0,0.0,0.0,0.0,0.0,0.0,0.0,3.1381,3.2265,3.4856,3.4352,3.3746,3.3746,3.2792,3.1938,0.0,0.0,0.0,0.0,0.0,0.0,0.0,0.0,0.0,0.0,0.0,0.0,0.0,0.0,0.0,0.0,0.0,0.0,0.0,0.0,0.0,0.0,0.0,0.0,0.0,0.0,0.0,0.0,0.0,0.0,0.0,0.0,0.0,0.0,0.0,0.0,4.4145,4.809,5.329,5.8052,5.8755,0.0,0.0,6.7191,6.8848,6.9747,6.8045,6.4028,5.9118,5.4049,0.0,0.0,4.0375,3.9346,3.912,3.9597,4.123,4.3693,4.7305,4.9841,5.3482,5.9608,6.2195,6.4756,6.8271,0.0,0.0,0.0,0.0,0.0,0.0,0.0,0.0,0.0,6.7587,6.6771,6.6158,6.6033,6.5983,6.5983,6.5551,6.5259,6.5146,6.3715,6.2985,6.2827,6.1443,6.0751,6.0619,0.0,0.0,0.0,5.8199,5.7814,5.7766,5.7285,5.7053,5.7053,5.7053,5.7029,5.6981,0.0,0.0,0.0,0.0,0.0,0.0,3.1235,3.1406,3.2139,3.4251,3.4427,3.4274,3.3947,3.3495,3.2742,3.1507,0.0,0.0,0.0,0.0,0.0,0.0,0.0,0.0,0.0,0.0,0.0,0.0,0.0,0.0,0.0,0.0,0.0,0.0,0.0,0.0,0.0,0.0,0.0,0.0,0.0,0.0,0.0,0.0,0.0,0.0,0.0,0.0,0.0,0.0,0.0,0.0,4.2562,4.6552,0.0,0.0,5.9859,6.3475,6.6488,6.9225,7.0606,6.797,6.3776,5.8855,5.3231,0.0,4.261,4.0199,3.9271,3.907,3.9597,4.0777,4.2484,4.502,4.5924,4.8441,5.4511,5.6143,5.9056,6.5383,6.7593,0.0,0.0,0.0,0.0,0.0,0.0,0.0,0.0,6.7918,6.7267,6.6664,6.6287,6.6112,6.6112,6.5896,6.5667,6.5357,6.4466,6.3641,6.3055,6.2386,6.1801,6.1233,0.0,0.0,0.0,5.929,5.8595,5.779,5.7574,5.7269,5.6981,5.6981,5.6981,5.6981,0.0,0.0,0.0,0.0,0.0,3.0156,3.1235,3.1406,3.1989,3.3671,3.4098,3.4148,3.3922,3.3445,3.2817,3.1984,3.1738,0.0,0.0,0.0,0.0,0.0,0.0,0.0,0.0,0.0,0.0,0.0,0.0,0.0,0.0,0.0,0.0,0.0,0.0,0.0,0.0,0.0,0.0,0.0,0.0,0.0,0.0,0.0,0.0,0.0,0.0,0.0,0.0,0.0,0.0,0.0,0.0,4.1306,4.5422,0.0,5.6947,6.1065,6.4957,6.8296,7.0054,6.7392,6.3124,5.8102,0.0,0.0,4.2185,4.0124,3.9271,3.907,3.9597,4.045,4.1603,4.3288,4.3639,4.5703,5.1322,5.2678,5.5591,6.2421,0.0,0.0,0.0,0.0,0.0,0.0,0.0,0.0,0.0,6.8246,6.7719,6.699,6.6589,6.6287,6.6112,6.6112,6.5764,6.5121,6.4765,6.4048,6.3033,6.2829,6.2374,0.0,0.0,0.0,0.0,5.9747,5.9008,5.8169,5.7855,5.7493,5.718,5.718,5.71,5.6981,0.0,0.0,0.0,0.0,0.0,0.0,3.1235,3.1406,3.1989,3.3671,3.3442,3.3316,3.3847,3.2416,3.1884,3.2989,3.2541,0.0,0.0,0.0,0.0,0.0,0.0,0.0,0.0,0.0,3.4954,3.5483,3.5508,0.0,0.0,0.0,0.0,0.0,0.0,0.0,0.0,0.0,0.0,0.0,0.0,0.0,0.0,0.0,0.0,0.0,0.0,0.0,0.0,0.0,0.0,0.0,0.0,3.8944,4.0276,4.6934,5.319,5.878,6.2672,6.5735,6.7568,6.6413,6.1994,5.6595,0.0,0.0,4.1733,4.0049,3.9271,3.907,3.9597,4.0149,4.1078,4.2738,4.4396,4.7029,5.1473,5.3984,5.6595,0.0,0.0,0.0,0.0,0.0,0.0,0.0,0.0,0.0,0.0,6.8578,6.812,6.7015,6.7009,6.6689,6.6112,6.6112,6.5559,6.4521,6.4521,6.3902,6.2807,6.2397,6.2208,0.0,0.0,0.0,0.0,5.9131,5.879,5.9074,5.8029,5.7616,5.7592,5.7592,5.7339,5.6981,0.0,0.0,0.0,0.0,0.0,0.0,0.0,3.0608,3.1185,3.2064,3.2365,3.2692,3.3291,3.2164,3.1859,3.2989,3.219,0.0,0.0,0.0,0.0,0.0,0.0,0.0,0.0,0.0,3.5332,3.5508,3.6284,3.6558,3.6405,3.6783,0.0,0.0,0.0,0.0,0.0,0.0,0.0,0.0,0.0,0.0,0.0,0.0,0.0,0.0,0.0,0.0,0.0,0.0,0.0,0.0,0.0,0.0,0.0,4.2183,4.7456,0.0,5.6532,5.9496,6.1115,5.9232,5.6068,5.2352,4.8485,4.4798,4.1708,4.0049,3.9546,3.9496,3.9672,3.9848,4.1003,4.4166,4.4819,4.6296,5.0368,0.0,0.0,6.0412,6.6061,0.0,0.0,0.0,0.0,0.0,0.0,0.0,0.0,6.913,6.8673,6.7568,6.7166,6.689,6.6714,6.5936,6.5383,6.5032,6.4697,6.4145,6.3425,6.3301,0.0,0.0,0.0,0.0,0.0,6.0767,6.0137,5.9592,5.8882,5.8408,5.8089,5.8089,5.7774,5.7418,0.0,0.0,0.0,0.0,0.0,0.0,0.0,3.008,3.0432,3.0733,3.1085,3.1587,3.2386,3.1482,3.1331,3.2641,3.1934,0.0,0.0,0.0,0.0,0.0,0.0,0.0,0.0,3.528,3.5932,3.6133,3.7061,3.7336,3.7009,3.7587,3.7436,3.6708,0.0,0.0,0.0,0.0,0.0,0.0,0.0,0.0,3.6531,0.0,0.0,0.0,0.0,0.0,0.0,0.0,0.0,0.0,0.0,0.0,0.0,0.0,4.2735,0.0,0.0,5.4863,5.647,5.5089,5.2528,0.0,0.0,4.384,4.1456,3.9998,3.9697,3.9697,3.9697,3.9873,4.0927,4.3793,4.4443,4.5819,0.0,0.0,0.0,6.1215,0.0,0.0,0.0,0.0,0.0,0.0,0.0,0.0,0.0,0.0,6.8678,6.7819,6.7467,6.699,6.6338,6.5634,6.5082,6.468,6.4329,6.3877,6.3375,6.3375,0.0,0.0,0.0,0.0,0.0,6.1024,6.0366,5.974,5.9237,5.8817,5.8521,5.8521,5.8129,5.7592,0.0,0.0,0.0,0.0,0.0,0.0,0.0,2.9804,2.9804,2.9804,2.9804,3.0181,3.116,3.0382,3.0407,3.1943,0.0,0.0,0.0,0.0,0.0,0.0,0.0,0.0,0.0,3.5755,3.6607,3.721,3.7789,3.8065,3.809,3.8718,3.8391,3.7261,3.7261,0.0,0.0,0.0,0.0,0.0,0.0,0.0,0.0,0.0,0.0,0.0,0.0,0.0,0.0,0.0,0.0,0.0,0.0,0.0,0.0,0.0,0.0,0.0,0.0,5.1197,5.2879,5.2829,0.0,0.0,0.0,4.3109,0.0,3.9923,3.9697,3.9722,3.9848,4.0199,4.0902,4.2311,0.0,0.0,0.0,5.2512,0.0,0.0,0.0,0.0,0.0,0.0,0.0,0.0,0.0,0.0,0.0,0.0,6.8346,6.7769,6.7693,6.694,6.5358,6.5233,6.468,6.3701,6.3651,6.335,6.2781,6.2781,0.0,0.0,0.0,0.0,0.0,6.0194,5.9746,5.9682,5.915,5.894,5.894,5.894,5.8418,5.7671,0.0,0.0,0.0,0.0,0.0,0.0,0.0,0.0,0.0,0.0,2.9804,2.9899,3.015,2.9955,3.0105,0.0,0.0,0.0,0.0,0.0,0.0,0.0,0.0,0.0,3.4703,3.5355,3.6183,3.721,3.8215,3.8693,3.8718,3.9672,3.9295,3.7814,3.7814,3.7311,0.0,0.0,0.0,0.0,0.0,0.0,0.0,0.0,0.0,0.0,3.7361,3.7839,0.0,0.0,0.0,0.0,0.0,0.0,0.0,0.0,3.8291,3.8868,4.1003,0.0,4.4798,4.4313,4.3636,4.2808,0.0,0.0,0.0,0.0,0.0,4.01,4.1381,4.0678,4.1229,0.0,0.0,4.6878,4.964,0.0,0.0,0.0,0.0,0.0,0.0,0.0,0.0,0.0,0.0,0.0,0.0,0.0,6.817,6.7191,6.6739,6.6312,6.5936,6.468,6.3952,6.3676,6.3249,6.2948,6.2781,6.2781,0.0,0.0,0.0,0.0,6.1757,6.063,6.018,6.0129,5.9553,5.9353,5.9353,5.9353,5.9018,5.8614,0.0,0.0,0.0,0.0,0.0,0.0,0.0,0.0,0.0,0.0,0.0,2.9804,2.9804,2.9804,0.0,0.0,0.0,0.0,0.0,0.0,0.0,0.0,0.0,3.4402,3.4703,3.5504,3.6458,3.7563,3.8467,3.9019,3.9296,4.0124,3.9622,3.799,3.7487,3.6934,0.0,0.0,0.0,0.0,3.6708,0.0,0.0,0.0,0.0,0.0,3.7362,3.7914,0.0,3.907,3.9622,4.0023,0.0,0.0,0.0,0.0,3.804,3.7764,3.8316,4.0099,4.1706,4.1378,4.1302,4.1227,4.0926,0.0,0.0,0.0,0.0,4.0049,4.123,4.0676,0.0,0.0,4.5799,0.0,0.0,0.0,6.3149,0.0,0.0,0.0,0.0,0.0,0.0,0.0,0.0,0.0,0.0,0.0,6.7367,6.6237,6.566,6.5358,6.5358,6.4254,6.355,6.3299,6.2973,6.2781,6.2781,6.2781,0.0,0.0,0.0,0.0,6.1165,6.0311,5.9935,5.991,5.9608,5.9483,5.9483,5.9483,5.9276,5.8926,0.0,0.0,0.0,0.0,0.0,0.0,0.0,0.0,0.0,0.0,0.0,0.0,0.0,0.0,0.0,0.0,0.0,0.0,0.0,0.0,0.0,0.0,0.0,3.4628,3.4703,3.573,3.6808,3.7889,3.8743,3.9421,3.9948,4.0676,4.0023,3.8216,3.7135,3.6532,0.0,0.0,0.0,0.0,3.6405,0.0,0.0,0.0,0.0,0.0,0.0,0.0,0.0,3.9371,3.9923,4.0374,4.0374,0.0,0.0,0.0,0.0,0.0,3.8065,3.9671,4.1152,4.0976,4.1076,4.1177,4.1076,4.0349,0.0,0.0,0.0,0.0,4.0752,4.0926,0.0,0.0,0.0,0.0,5.6935,6.0211,6.35,0.0,0.0,0.0,0.0,0.0,0.0,0.0,0.0,0.0,0.0,0.0,0.0,6.5333,6.4722,6.4396,6.4396,6.3827,6.3324,6.2781,6.2781,6.2781,6.2781,6.2706,0.0,0.0,0.0,0.0,6.0286,5.9734,5.9483,5.9483,5.9483,5.9483,5.9483,5.9483,5.9251,5.8979,0.0,0.0,0.0,0.0,0.0,0.0,0.0,0.0,0.0,0.0,0.0,0.0,0.0,0.0,0.0,0.0,0.0,0.0,0.0,0.0,0.0,3.309,3.3696,3.4248,3.4703,3.533,3.6183,3.7336,3.9295,4.0524,4.1102,4.261,4.1907,3.9396,3.8266,3.7261,3.6405,0.0,0.0,0.0,0.0,0.0,0.0,0.0,0.0,0.0,0.0,0.0,0.0,3.8818,3.9396,3.9823,3.9823,0.0,0.0,0.0,0.0,0.0,3.9019,4.0023,4.0399,3.9497,3.9948,4.0499,4.0049,3.9823,0.0,0.0,0.0,0.0,0.0,4.2986,0.0,0.0,0.0,0.0,0.0,0.0,0.0,0.0,0.0,0.0,0.0,0.0,0.0,0.0,0.0,0.0,0.0,0.0,0.0,6.5308,6.4329,6.3802,6.3802,6.3249,6.2882,6.2781,6.2781,6.2781,6.2781,6.2345,6.2094,0.0,0.0,6.0412,6.0286,5.9734,5.9483,5.9483,5.9483,5.9483,5.9483,5.9483,5.9444,5.9353,0.0,0.0,0.0,0.0,0.0,0.0,0.0,0.0,0.0,0.0,0.0,0.0,0.0,0.0,0.0,0.0,0.0,0.0,0.0,0.0,0.0,3.3517,3.4048,3.4427,3.4703,3.5832,3.7136,3.8542,3.9873,4.1076,4.2233,4.2082,4.1028,3.922,3.8065,3.7135,3.6405,3.6405,3.6581,0.0,0.0,0.0,0.0,0.0,0.0,0.0,0.0,0.0,0.0,0.0,3.9697,4.0149,4.0149,0.0,0.0,0.0,0.0,0.0,3.8216,3.8969,3.9572,3.9396,4.0601,4.163,4.075,4.0549,0.0,0.0,0.0,0.0,0.0,0.0,0.0,0.0,0.0,0.0,0.0,0.0,0.0,0.0,0.0,0.0,0.0,0.0,0.0,0.0,0.0,0.0,0.0,0.0,0.0,0.0,6.3952,6.355,6.3224,6.2672,6.248,6.2781,6.222,6.2094,6.237,6.1818,6.1391,6.1065,0.0,6.0161,5.9859,5.9608,5.9483,5.9483,5.9483,5.9483,5.9483,5.9483,5.9483,5.9444,0.0,0.0,0.0,0.0,0.0,0.0,0.0,0.0,0.0,0.0,0.0,0.0,0.0,0.0,0.0,0.0,0.0,0.0,0.0,0.0,3.3291,3.3696,3.4327,3.4828,3.5102,3.6584,3.8165,3.9697,4.0626,4.1882,4.3338,4.1806,4.0375,3.9044,3.7914,3.7009,3.6405,3.6405,3.6632,3.6984,0.0,0.0,0.0,0.0,0.0,0.0,0.0,0.0,0.0,0.0,0.0,0.0,0.0,0.0,0.0,3.9346,3.8567,3.799,3.7965,3.8517,3.922,3.9747,4.1153,4.2359,4.213,0.0,0.0,0.0,0.0,0.0,0.0,4.7199,0.0,0.0,0.0,0.0,0.0,0.0,0.0,0.0,0.0,0.0,0.0,0.0,0.0,0.0,0.0,0.0,0.0,0.0,0.0,0.0,6.345,6.3149,6.2781,6.2019,6.1943,6.2581,6.1642,6.1416,6.1793,6.124,6.0738,6.0311,6.0186,5.9885,5.9483,5.9483,5.9483,5.9483,5.9483,5.9483,5.9483,5.9483,5.9483,5.9469,0.0,0.0,0.0,0.0,0.0,0.0,0.0,0.0,0.0,0.0,0.0,0.0,0.0,0.0,0.0,0.0,0.0,0.0,0.0,0.0,3.3115,3.3165,3.4148,3.5203,3.6256,3.7362,3.8517,3.9697,4.1808,4.3388,4.4464,4.3338,4.1681,3.9597,3.8442,3.7386,3.6405,3.6405,3.643,3.6431,3.643,0.0,0.0,0.0,0.0,0.0,0.0,0.0,0.0,0.0,0.0,0.0,0.0,0.0,3.9747,3.9672,3.8868,3.8341,3.9847,3.9973,3.9772,4.0325,4.0549,0.0,4.3786,4.3991,0.0,4.5673,0.0,0.0,0.0,0.0,0.0,0.0,0.0,0.0,0.0,0.0,0.0,0.0,0.0,0.0,0.0,0.0,0.0,0.0,0.0,0.0,0.0,0.0,0.0,0.0,0.0,6.2345,6.2781,6.1201,6.0989,6.2044,6.1466,6.1215,6.1215,6.0638,6.0362,6.0247,5.9784,5.9533,5.9483,5.9483,5.9483,5.9483,5.9483,5.9483,5.9483,5.9483,5.9483,5.9483,0.0,0.0,0.0,0.0,0.0,0.0,0.0,0.0,0.0,0.0,0.0,0.0,0.0,0.0,0.0,0.0,0.0,0.0,0.0,3.2742,3.3266,3.3571,3.4324,3.5228,3.638,3.8165,3.9948,4.1731,4.3614,4.4568,4.4539,4.2434,4.0626,3.9145,3.799,3.7085,3.6405,3.6405,3.6582,3.6859,3.6532,3.6582,0.0,0.0,0.0,0.0,0.0,0.0,0.0,0.0,3.9521,3.9697,3.9697,3.9697,3.9622,3.9296,3.8617,3.8065,3.8366,3.9044,3.9898,4.0775,4.1779,0.0,0.0,4.5773,0.0,0.0,0.0,0.0,0.0,0.0,0.0,0.0,0.0,0.0,0.0,0.0,0.0,0.0,0.0,0.0,0.0,0.0,0.0,0.0,0.0,0.0,0.0,0.0,0.0,0.0,0.0,6.1768,6.232,6.0989,6.0537,6.0964,6.0387,6.0311,6.0638,6.006,5.9809,5.9784,5.9583,5.9483,5.9483,5.9483,5.9483,5.9483,5.9483,5.9483,5.9483,5.9483,5.9483,5.9483,0.0,0.0,0.0,0.0,0.0,0.0,0.0,0.0,0.0,0.0,0.0,0.0,0.0,0.0,0.0,0.0,0.0,0.0,3.1913,3.2688,3.3266,3.3621,3.4173,3.4977,3.6081,3.8291,4.0425,4.2459,4.4317,4.4669,4.351,4.1628,4.0199,3.9095,3.7964,3.7261,3.6884,3.6708,3.6758,3.6934,3.6733,3.6758,0.0,0.0,0.0,0.0,0.0,0.0,0.0,0.0,3.9697,3.9697,3.9697,3.9697,3.9597,3.907,3.8467,3.7889,3.7361,3.814,3.9396,0.0,0.0,0.0,4.6552,4.8184,4.9967,0.0,0.0,0.0,0.0,0.0,0.0,0.0,0.0,0.0,0.0,0.0,0.0,0.0,0.0,0.0,0.0,0.0,0.0,0.0,0.0,0.0,0.0,0.0,0.0,0.0,0.0,0.0,6.1743,6.0613,6.0136,6.0311,5.9759,5.9684,6.0035,5.9659,5.9483,5.9483,5.9483,5.9483,5.9483,5.9483,5.9483,5.9483,5.9483,5.9483,5.9483,5.9483,5.9483,5.9483,0.0,0.0,0.0,0.0,0.0,0.0,0.0,0.0,0.0,0.0,0.0,0.0,0.0,0.0,0.0,0.0,0.0,0.0,3.1406,3.2462,3.309,3.309,3.3621,3.4402,3.5458,3.7713,3.9672,4.1327,4.351,4.346,4.1275,4.1275,4.07,3.9622,3.8517,3.8015,3.7965,3.7412,3.6909,3.6431,3.6984,3.6884,3.6531,0.0,0.0,0.0,0.0,0.0,0.0,0.0,3.9697,3.9697,3.9697,3.9697,3.9597,3.907,3.8492,3.7889,3.7361,3.7588,3.8165,0.0,0.0,0.0,4.9439,5.1322,5.3055,0.0,0.0,0.0,0.0,0.0,0.0,0.0,0.0,0.0,0.0,0.0,0.0,0.0,0.0,0.0,0.0,0.0,0.0,0.0,0.0,0.0,0.0,0.0,0.0,0.0,0.0,0.0,6.1205,6.006,5.9759,6.0311,5.9759,5.9483,5.9483,5.9483,5.9483,5.9483,5.9483,5.9483,5.9483,5.9483,5.9483,5.9483,5.9483,5.9483,5.9483,5.9483,5.9483,5.9483,0.0,0.0,0.0,0.0,0.0,0.0,0.0,0.0,0.0,0.0,0.0,0.0,0.0,0.0,0.0,0.0,0.0,0.0,3.1406,3.2462,3.309,3.309,3.3972,3.4603,3.4929,3.7136,3.9647,4.2484,4.2788,4.2158,4.0725,3.9973,3.922,3.8517,3.8592,3.819,3.7437,3.7663,3.7437,3.7009,3.7538,3.7663,3.7563,0.0,0.0,0.0,0.0,0.0,0.0,0.0,0.0,0.0,3.9697,3.9948,4.0099,3.917,3.8768,3.8416,3.7462,3.7914,0.0,4.0805,0.0,0.0,0.0,5.2418,0.0,0.0,0.0,0.0,0.0,0.0,0.0,0.0,0.0,0.0,0.0,0.0,0.0,0.0,0.0,0.0,0.0,0.0,0.0,0.0,0.0,0.0,0.0,0.0,0.0,0.0,0.0,0.0,6.0563,5.9859,5.9583,5.9734,5.9583,5.9483,5.9483,5.9483,5.9483,5.9483,5.9483,5.9483,5.9483,5.9483,5.9483,5.9483,5.9483,5.9483,5.9483,5.9483,5.9483,5.9483,0.0,0.0,0.0,0.0,0.0,0.0,0.0,0.0,0.0,0.0,0.0,0.0,0.0,0.0,0.0,0.0,0.0,0.0,0.0,3.2462,3.309,3.309,3.3922,3.47,3.5353,3.7337,3.9145,4.0703,4.1029,4.0527,3.9195,3.9647,3.9421,3.8743,3.9974,3.9673,3.8216,3.8768,3.8291,3.7311,3.8266,3.8417,3.809,0.0,0.0,0.0,0.0,0.0,0.0,0.0,0.0,0.0,3.9697,3.9772,3.9697,3.8793,3.8542,3.8366,3.7462,3.8341,0.0,4.2286,4.5321,4.8987,5.3497,0.0,0.0,0.0,0.0,0.0,0.0,0.0,0.0,0.0,0.0,0.0,0.0,0.0,0.0,0.0,0.0,0.0,0.0,0.0,0.0,0.0,0.0,0.0,0.0,0.0,0.0,0.0,0.0,0.0,5.9985,5.9659,5.9483,5.9483,5.9483,5.9483,5.9483,5.9483,5.9483,5.9483,5.9483,5.9483,5.9483,5.9483,5.9483,5.9483,5.9483,5.9483,5.9483,5.9483,5.9483,5.9483,0.0,0.0,0.0,0.0,0.0,0.0,0.0,0.0,0.0,0.0,0.0,0.0,0.0,0.0,0.0,0.0,0.0,0.0,0.0,0.0,3.309,3.309,3.3646,3.4726,3.638,3.7889,3.8165,3.7135,3.8743,3.8718,3.7185,3.9922,4.0675,3.9798,4.1959,4.1758,3.9798,4.0249,3.9245,3.7512,3.9069,3.9069,3.8316,3.9848,0.0,0.0,0.0,0.0,0.0,0.0,0.0,0.0,3.9697,3.9371,3.8843,3.8191,3.804,3.799,3.7512,3.8944,4.1127,4.3514,4.6803,0.0,5.6032,5.9307,0.0,0.0,0.0,0.0,0.0,0.0,0.0,0.0,0.0,0.0,0.0,0.0,0.0,0.0,0.0,0.0,0.0,0.0,0.0,0.0,0.0,0.0,0.0,0.0,0.0,0.0,0.0,0.0,5.9433,5.9382,5.9382,0.0,5.9433,5.9458,5.9483,5.9483,5.9483,5.9483,5.9483,5.9483,5.9483,5.9483,5.9483,5.9483,5.9483,5.9483,5.9483,5.9483,5.9483,5.9483,0.0,0.0,0.0,0.0,0.0,0.0,0.0,0.0,0.0,0.0,0.0,0.0,0.0,0.0,0.0,0.0,0.0,0.0,0.0,0.0,3.309,3.309,3.4022,3.5127,3.638,3.6757,3.6832,3.6557,3.7764,3.7739,3.6632,3.9396,4.0299,3.9772,4.1557,4.1607,4.0325,3.9998,3.9346,3.8592,3.9396,3.9546,3.9371,3.9722,3.9472,0.0,0.0,0.0,0.0,0.0,0.0,0.0,3.9697,3.9622,3.932,3.8291,3.8341,3.8693,3.8567,3.9798,4.198,4.5518,5.0544,5.5365,5.8303,6.0111,6.1291,0.0,0.0,0.0,0.0,0.0,0.0,0.0,0.0,0.0,0.0,0.0,0.0,0.0,0.0,0.0,0.0,0.0,0.0,0.0,0.0,0.0,0.0,0.0,0.0,0.0,0.0,5.888,5.888,5.8453,5.8453,0.0,5.888,5.9106,5.9483,5.9483,5.9483,5.9483,5.9483,5.9483,5.9483,5.9483,5.9483,5.9483,5.9483,5.9483,5.9483,5.9483,5.9483,5.9483,0.0,0.0,0.0,0.0,0.0,0.0,0.0,0.0,0.0,0.0,0.0,0.0,0.0,0.0,0.0,0.0,0.0,0.0,0.0,0.0,3.3341,3.3847,3.4653,3.5504,3.638,3.6632,3.6658,3.6405,3.6959,3.7085,3.6833,3.9069,3.9973,3.9772,4.1733,4.1658,4.0149,4.0375,3.9848,3.8969,3.9747,3.9923,3.9722,3.9998,3.9747,3.9321,0.0,0.0,0.0,0.0,0.0,0.0,0.0,0.0,3.8768,3.8191,3.8216,3.8542,3.8818,4.0651,4.3736,4.8955,0.0,5.7524,5.9458,6.0337,6.0839,0.0,0.0,0.0,0.0,0.0,0.0,0.0,0.0,0.0,0.0,0.0,0.0,0.0,0.0,0.0,0.0,0.0,0.0,0.0,0.0,0.0,0.0,0.0,0.0,0.0,5.8604,5.8328,5.8328,5.8052,5.8052,5.8328,5.8604,5.9006,5.9483,5.9483,5.9483,5.9483,5.9483,5.9483,5.9483,5.9483,5.9483,5.9483,5.9483,5.9483,5.9483,5.9483,5.9483,5.9483,0.0,0.0,0.0,0.0,0.0,0.0,0.0,0.0,0.0,0.0,0.0,0.0,0.0,0.0,0.0,0.0,0.0,0.0,0.0,0.0,0.0,3.4502,3.5004,3.5531,3.623,3.6659,3.6758,3.6405,3.6482,3.6859,3.7537,3.8994,3.9747,3.9923,4.1831,4.1681,4.0023,4.0725,4.0275,3.912,3.9898,4.0023,3.9747,4.0099,3.9998,3.9697,3.9697,0.0,0.0,0.0,0.0,0.0,0.0,0.0,3.8015,3.8015,3.8015,3.814,3.8743,4.163,4.5999,5.2176,5.5742,0.0,5.9684,6.0186,6.0462,6.0939,0.0,0.0,0.0,0.0,0.0,0.0,0.0,0.0,0.0,0.0,0.0,0.0,0.0,0.0,0.0,0.0,0.0,0.0,0.0,0.0,0.0,0.0,5.8641,5.8541,5.8052,5.775,5.775,5.765,5.765,5.775,5.8303,5.8805,5.9207,5.9207,5.9282,5.9357,5.9257,5.9282,5.9357,5.9357,5.9408,5.9483,5.9483,5.9483,5.9483,5.9483,5.9483,5.9483,0.0,0.0,0.0,0.0,0.0,0.0,0.0,0.0,0.0,0.0,0.0,0.0,0.0,0.0,0.0,0.0,0.0,0.0,0.0,0.0,0.0,3.3972,3.4073,3.4577,3.5606,3.5683,3.5932,3.6405,3.6859,3.7637,0.0,0.0,3.9948,4.0424,4.1177,4.1378,4.1051,4.0249,3.9798,3.9572,3.9245,3.9346,3.9647,3.9271,3.9371,3.9697,0.0,0.0,0.0,0.0,0.0,0.0,0.0,0.0,0.0,3.8015,3.8015,3.814,3.8743,4.3037,4.8385,5.2628,5.544,5.7437,0.0,0.0,6.0297,0.0,0.0,0.0,0.0,0.0,0.0,0.0,0.0,0.0,0.0,0.0,0.0,0.0,0.0,0.0,0.0,0.0,0.0,0.0,0.0,0.0,0.0,5.8755,5.8504,5.8027,5.7449,5.7111,5.7111,5.6671,5.6671,5.7111,5.7725,5.8052,5.8102,5.8102,5.8378,5.8805,5.8328,5.8378,5.883,5.883,5.9081,5.9483,5.9483,5.9483,5.9483,5.9483,5.9483,5.9483,0.0,0.0,0.0,0.0,0.0,0.0,0.0,0.0,0.0,0.0,0.0,0.0,0.0,0.0,0.0,0.0,0.0,0.0,0.0,0.0,0.0,3.3872,3.3897,3.4402,3.5483,3.5508,3.5782,3.6405,3.6934,0.0,0.0,4.0074,4.0725,0.0,0.0,4.0851,4.08,4.0023,3.9697,3.9672,3.9421,3.9471,3.9672,3.9446,3.9471,0.0,0.0,0.0,0.0,0.0,0.0,0.0,0.0,0.0,0.0,0.0,3.7789,3.809,4.0527,4.4041,4.8033,5.2226,5.4712,5.657,5.829,5.9307,5.9859,0.0,0.0,0.0,0.0,0.0,0.0,0.0,0.0,0.0,0.0,0.0,0.0,0.0,0.0,0.0,0.0,0.0,0.0,0.0,0.0,0.0,5.8278,5.7914,5.7637,5.7387,5.657,5.6118,5.6118,5.5867,5.6168,5.6985,5.7261,5.7575,5.7901,5.7549,5.7725,5.8252,5.8001,5.8027,5.8252,5.8252,5.8579,5.9056,5.9056,5.9232,5.9483,5.9483,5.9483,5.9483,0.0,0.0,0.0,0.0,0.0,0.0,0.0,0.0,0.0,0.0,0.0,0.0,0.0,0.0,0.0,0.0,0.0,0.0,0.0,0.0,0.0,3.3671,3.3822,3.4327,3.5282,3.5433,3.5782,3.6405,0.0,0.0,3.9346,4.0852,4.1829,0.0,4.1478,4.0951,0.0,0.0,0.0,4.0074,3.9647,3.9572,3.9672,0.0,0.0,3.9697,0.0,0.0,0.0,0.0,0.0,0.0,0.0,0.0,0.0,0.0,0.0,3.7788,4.1406,4.3865,4.6451,5.0586,5.3206,5.5315,0.0,0.0,5.8905,0.0,0.0,0.0,0.0,0.0,0.0,0.0,0.0,0.0,0.0,0.0,0.0,0.0,0.0,0.0,0.0,0.0,0.0,0.0,0.0,0.0,5.7474,5.7035,5.6659,5.642,5.5616,5.5189,5.5189,5.5189,5.5591,5.642,5.6508,5.6846,5.7248,5.6935,5.7035,5.7474,5.7474,5.7549,5.7675,5.7675,5.8001,5.8504,5.8504,5.8755,5.9106,5.9257,5.9207,5.9131,0.0,0.0,0.0,0.0,0.0,0.0,0.0,0.0,0.0,0.0,0.0,0.0,0.0,0.0,2.9804,2.9804,0.0,0.0,0.0,0.0,0.0,3.314,3.3621,0.0,3.4728,3.5232,3.5782,3.6405,0.0,0.0,4.045,4.1607,4.3266,4.5196,4.3564,4.2283,4.1227,0.0,0.0,0.0,0.0,0.0,0.0,0.0,0.0,0.0,0.0,0.0,0.0,0.0,0.0,0.0,0.0,0.0,0.0,0.0,0.0,0.0,3.9873,4.1882,4.3994,4.733,5.0612,5.3507,0.0,0.0,0.0,0.0,0.0,0.0,0.0,0.0,0.0,0.0,0.0,0.0,0.0,0.0,0.0,0.0,0.0,0.0,0.0,0.0,0.0,0.0,0.0,0.0,5.6369,5.6269,5.5767,5.4773,5.4672,5.4647,5.4647,5.4647,5.4672,5.4723,5.5214,5.5491,5.5541,5.6018,5.6269,5.6294,5.6294,5.6595,5.7035,5.7035,5.7387,5.7951,5.7951,5.7951,5.8052,5.8554,5.8428,5.8127,0.0,0.0,0.0,0.0,0.0,0.0,0.0,0.0,0.0,0.0,0.0,0.0,0.0,3.0105,3.0306,3.0306,3.1311,0.0,0.0,0.0,0.0,3.3617,3.3796,3.4301,3.5182,3.5408,3.5782,0.0,0.0,3.7989,3.9522,4.1331,4.2436,4.2808,4.2936,4.276,4.2283,4.0676,0.0,0.0,0.0,0.0,0.0,0.0,0.0,0.0,0.0,0.0,0.0,0.0,0.0,0.0,0.0,0.0,0.0,0.0,0.0,3.8215,3.922,4.0676,4.2707,4.605,4.8586,5.0896,5.3256,5.4938,5.6143,0.0,0.0,0.0,0.0,0.0,0.0,0.0,0.0,0.0,0.0,0.0,0.0,0.0,0.0,0.0,0.0,0.0,0.0,0.0,0.0,0.0,5.5164,5.5164,5.5024,5.4622,5.4245,5.4009,5.4009,5.4009,5.422,5.4597,5.4798,5.5074,5.539,5.5591,5.5867,5.6219,5.6219,5.6319,5.6483,5.6483,5.6846,5.7311,5.7311,5.7575,5.7926,5.8127,5.8303,5.8478,0.0,0.0,0.0,0.0,0.0,0.0,0.0,0.0,0.0,0.0,0.0,0.0,0.0,0.0,3.0738,3.109,3.1792,3.2466,3.3065,3.3266,3.3542,3.3872,3.4226,3.4778,3.5483,3.5508,3.5782,3.6405,3.6533,3.7412,3.8944,4.0577,4.153,4.1879,4.2258,4.2534,0.0,0.0,0.0,4.0224,0.0,0.0,3.9747,0.0,0.0,0.0,0.0,0.0,0.0,0.0,0.0,0.0,0.0,0.0,0.0,0.0,0.0,0.0,3.8391,3.9521,4.1553,4.489,4.6426,4.7983,5.1322,5.2779,5.3658,0.0,0.0,0.0,0.0,0.0,0.0,0.0,0.0,0.0,0.0,0.0,0.0,0.0,0.0,0.0,0.0,0.0,0.0,0.0,0.0,0.0,5.4321,5.4321,5.4145,5.3793,5.3557,5.3356,5.3155,5.3356,5.3632,5.4009,5.4185,5.4461,5.4838,5.5214,5.5591,5.5942,5.6118,5.6219,5.6219,5.6219,5.642,5.6709,5.6709,5.6997,5.7349,5.7549,5.7813,5.8164,0.0,0.0,0.0,0.0,0.0,0.0,0.0,0.0,0.0,0.0,0.0,0.0,0.0,0.0,0.0,3.2144,3.2244,3.2516,3.309,3.3596,3.3922,3.3947,0.0,0.0,0.0,3.5533,3.5807,3.6405,3.5807,3.666,3.8869,3.9396,4.0802,4.2838,4.1754,4.158,4.2085,0.0,4.1806,4.1227,0.0,3.9722,3.9948,0.0,0.0,0.0,4.1783,4.1507,0.0,0.0,0.0,0.0,0.0,0.0,0.0,0.0,0.0,0.0,0.0,0.0,0.0,0.0,0.0,0.0,4.9206,0.0,4.9791,0.0,0.0,0.0,0.0,0.0,0.0,0.0,0.0,0.0,0.0,0.0,0.0,0.0,0.0,0.0,0.0,0.0,0.0,0.0,0.0,5.427,5.3658,5.3632,5.3155,5.2126,5.2569,5.2594,5.2101,5.2594,5.287,5.2895,5.3432,5.3683,5.3733,5.4838,5.534,5.539,5.5942,5.6168,5.6194,5.6194,5.6219,5.6219,5.6219,5.6219,5.6269,5.6784,5.6985,5.7161,0.0,0.0,0.0,0.0,0.0,0.0,0.0,0.0,0.0,0.0,0.0,0.0,0.0,0.0,3.2667,3.337,3.3445,3.3495,3.3671,3.3822,3.4248,3.5029,3.5332,3.5707,3.6155,3.6155,3.623,3.6405,3.623,3.6683,3.7688,3.8216,3.9019,0.0,4.0526,4.0375,3.9823,4.0225,0.0,0.0,4.0149,4.0426,0.0,0.0,0.0,0.0,0.0,4.2011,0.0,0.0,4.1507,4.1356,0.0,0.0,0.0,0.0,0.0,0.0,3.804,0.0,0.0,0.0,0.0,0.0,0.0,0.0,0.0,0.0,0.0,0.0,0.0,0.0,0.0,0.0,0.0,0.0,0.0,0.0,0.0,0.0,0.0,0.0,0.0,0.0,0.0,0.0,5.2653,5.216,5.195,5.195,5.1825,5.1523,5.1649,5.185,5.2101,5.2251,5.2528,5.2895,5.3046,5.3296,5.3708,5.4034,5.4411,5.4848,5.4999,5.5239,5.5641,5.6043,5.6219,5.6219,5.6219,5.6219,5.6219,5.6394,5.6659,5.7111,0.0,0.0,0.0,0.0,0.0,0.0,0.0,0.0,0.0,0.0,0.0,0.0,0.0,0.0,3.4148,3.4248,3.4226,3.4226,3.4226,3.4427,3.4853,3.5483,3.5732,3.6031,3.6405,3.6155,3.6155,3.6405,3.6406,3.6683,3.721,3.7739,0.0,0.0,0.0,0.0,0.0,0.0,0.0,0.0,4.035,0.0,0.0,4.2735,4.2958,0.0,0.0,0.0,4.3818,4.3115,4.2562,0.0,0.0,0.0,0.0,0.0,0.0,0.0,0.0,0.0,0.0,0.0,0.0,0.0,4.2635,4.3011,4.3435,0.0,0.0,0.0,0.0,0.0,0.0,0.0,0.0,0.0,0.0,0.0,0.0,0.0,0.0,0.0,0.0,0.0,0.0,5.2226,5.1649,5.1306,5.1306,5.1306,5.1172,5.0921,5.1147,5.1322,5.1398,5.1875,5.2277,5.2544,5.2795,5.3046,5.3381,5.3607,5.3884,5.4245,5.4496,5.4924,5.5415,5.5742,5.6018,5.6219,5.6219,5.6219,5.6219,5.6219,5.6533,5.7035,0.0,0.0,0.0,0.0,0.0,0.0,0.0,0.0,0.0,0.0,3.1838,3.2386,0.0,0.0,0.0,3.5004,3.4853,3.4803,3.4803,3.5232,3.5533,3.5583,3.613,3.6405,3.6405,3.5881,3.5882,3.6505,3.6483,3.6759,0.0,0.0,0.0,0.0,0.0,0.0,0.0,0.0,0.0,3.9145,4.0752,4.1831,0.0,0.0,4.5924,0.0,4.6697,4.6747,4.6075,4.4518,4.3291,0.0,0.0,0.0,0.0,0.0,3.9371,0.0,0.0,0.0,0.0,0.0,0.0,0.0,4.1331,4.1205,4.0625,0.0,0.0,0.0,0.0,0.0,0.0,0.0,0.0,0.0,0.0,0.0,0.0,0.0,0.0,0.0,0.0,5.1197,5.1197,5.1197,5.1122,5.1096,5.1096,5.1096,5.0845,5.0343,5.082,5.087,5.0386,5.1423,5.1975,5.2126,5.2569,5.2845,5.292,5.3406,5.3607,5.3632,5.4195,5.4723,5.5189,5.5189,5.5591,5.6219,5.6219,5.6219,5.6219,5.6219,5.6483,5.691,0.0,0.0,0.0,0.0,0.0,0.0,0.0,0.0,0.0,0.0,3.46,3.5855,0.0,0.0,0.0,3.6709,3.5882,3.5332,3.5332,3.5433,3.5732,3.6205,3.6331,3.6405,3.6405,3.6281,3.6507,3.7034,3.7036,0.0,0.0,0.0,0.0,0.0,0.0,0.0,0.0,0.0,0.0,3.9672,4.1356,0.0,4.4242,4.5271,4.5573,4.5623,4.6697,4.6747,4.62,0.0,4.4418,4.3187,0.0,0.0,0.0,0.0,0.0,0.0,0.0,0.0,0.0,0.0,0.0,0.0,3.9924,4.0375,4.1403,0.0,0.0,0.0,0.0,0.0,0.0,0.0,0.0,0.0,0.0,0.0,0.0,0.0,0.0,0.0,0.0,5.0594,5.0594,5.0594,5.0167,4.9916,4.9916,4.9916,4.9866,4.9766,4.9866,5.0092,5.0386,5.0612,5.1197,5.2101,5.2226,5.2468,5.2895,5.2995,5.3046,5.3046,5.3206,5.3557,5.4034,5.4034,5.4888,5.6219,5.6219,5.6219,5.6219,5.6219,5.6269,5.6445,2.9804,0.0,0.0,0.0,0.0,0.0,0.0,0.0,3.515,3.515,3.6835,3.804,0.0,0.0,0.0,0.0,3.6684,3.6234,0.0,3.5956,3.6081,3.6405,3.6405,3.6531,3.6783,3.6556,3.6658,3.721,3.7487,0.0,0.0,0.0,0.0,0.0,0.0,0.0,0.0,0.0,3.9044,3.9497,4.1708,0.0,4.5171,4.6276,4.7054,4.7606,4.8159,4.8008,4.733,4.5949,4.5296,0.0,0.0,4.1277,4.153,0.0,4.03,4.0424,0.0,0.0,0.0,4.1004,0.0,0.0,0.0,3.9697,3.9822,4.0375,4.0501,0.0,0.0,0.0,0.0,0.0,0.0,0.0,0.0,0.0,0.0,0.0,0.0,0.0,0.0,4.8981,4.9163,4.9163,4.9439,4.9464,4.9245,4.9439,4.959,4.959,4.959,4.9715,5.0017,5.0268,5.0695,5.1272,5.1825,5.2251,5.2528,5.277,5.2895,5.2895,5.2895,5.3196,5.3708,5.3708,5.4361,5.5415,5.5691,5.5968,5.6219,5.6219,5.6219,5.6244,0.0,0.0,0.0,0.0,0.0,0.0,0.0,0.0,3.6531,3.6857,3.8818,3.9905,0.0,0.0,0.0,0.0,0.0,0.0,0.0,0.0,3.6849,3.6687,3.6826,3.7079,3.7322,3.7055,3.7275,3.7915,3.8155,0.0,0.0,0.0,0.0,0.0,0.0,0.0,0.0,0.0,0.0,3.9597,0.0,4.3768,4.51,4.7004,4.8259,4.9012,4.9314,4.9329,4.8837,4.6567,0.0,4.615,4.2341,4.1982,0.0,0.0,0.0,0.0,0.0,0.0,0.0,0.0,0.0,4.0953,0.0,0.0,0.0,3.8391,0.0,0.0,0.0,0.0,0.0,0.0,0.0,0.0,0.0,0.0,0.0,0.0,0.0,0.0,0.0,4.7405,4.7606,4.7606,4.8535,4.8937,4.8517,4.8962,4.9314,4.9439,4.9439,4.949,4.959,5.0042,5.0318,5.0386,5.1348,5.1825,5.1975,5.2402,5.2644,5.2744,5.2744,5.3046,5.3557,5.3557,5.3959,5.4647,5.5164,5.5666,5.6068,5.6168,5.6219,5.6219,2.9934,3.0181,0.0,0.0,3.3093,3.4349,0.0,0.0,3.6935,3.8416,4.0541,0.0,0.0,0.0,0.0,0.0,0.0,0.0,4.3012,0.0,0.0,3.7684,3.8428,3.8522,3.7739,3.8504,3.9442,4.0572,3.968,4.0257,0.0,0.0,0.0,0.0,3.9702,0.0,0.0,0.0,4.0174,0.0,4.2459,4.2838,0.0,4.6024,4.6973,4.6878,4.8366,4.9575,5.0125,0.0,4.7742,4.8165,0.0,4.3212,0.0,0.0,0.0,0.0,0.0,0.0,0.0,0.0,4.4242,0.0,0.0,0.0,4.1281,3.9798,0.0,0.0,0.0,0.0,0.0,0.0,0.0,0.0,0.0,0.0,0.0,0.0,0.0,0.0,0.0,0.0,4.6502,4.6502,4.7023,4.735,4.7299,4.7776,4.8335,4.8868,4.8894,4.9145,4.959,4.9665,4.9941,5.0386,5.0544,5.087,5.1373,5.1448,5.1724,5.2201,5.2201,5.2503,5.297,5.297,5.3632,5.4647,5.5164,5.544,5.5541,5.6018,5.6219,5.6219,3.1054,3.0747,0.0,0.0,3.3458,3.447,3.7572,3.9852,4.0988,4.0356,4.3467,0.0,0.0,0.0,0.0,0.0,0.0,0.0,0.0,0.0,0.0,0.0,0.0,0.0,3.9673,3.9735,4.0183,4.1005,4.0559,4.1012,4.2324,0.0,0.0,0.0,4.1267,0.0,4.1153,0.0,0.0,0.0,0.0,0.0,0.0,4.599,4.7815,4.8952,4.9672,5.0947,5.2013,0.0,4.9459,0.0,0.0,0.0,0.0,0.0,0.0,0.0,0.0,0.0,0.0,0.0,0.0,0.0,0.0,0.0,4.0652,0.0,0.0,0.0,0.0,0.0,0.0,0.0,0.0,0.0,0.0,0.0,0.0,0.0,0.0,0.0,0.0,0.0,0.0,0.0,0.0,4.6346,4.5668,4.6772,4.7676,4.8259,4.8259,4.8535,4.9145,4.9145,4.9389,4.9941,5.0268,5.0544,5.0795,5.1122,5.1574,5.2076,5.1774,5.2126,5.287,5.2544,5.2904,5.3658,5.421,5.5013,5.5892,5.6118,5.6219,5.6219,3.294,0.0,0.0,0.0,0.0,0.0,3.9145,4.208,0.0,0.0,0.0,0.0,4.8077,4.9199,0.0,0.0,0.0,4.7359,0.0,0.0,4.3036,0.0,0.0,0.0,0.0,0.0,4.1245,4.1809,4.1535,4.1966,4.3064,0.0,0.0,0.0,0.0,4.3133,4.3335,0.0,0.0,4.3328,4.4811,4.5448,4.5658,4.7289,4.9183,5.102,5.1364,5.248,5.3529,5.1762,5.1078,0.0,4.8679,0.0,0.0,0.0,0.0,0.0,4.4026,0.0,0.0,0.0,0.0,0.0,0.0,0.0,0.0,0.0,0.0,0.0,0.0,0.0,0.0,0.0,0.0,0.0,0.0,0.0,0.0,0.0,0.0,0.0,0.0,0.0,0.0,0.0,4.341,4.4389,4.3736,4.5141,4.6421,4.7431,4.7757,4.8184,4.8793,4.8944,4.9188,4.959,4.9992,5.0193,5.0218,5.0619,5.1122,5.1624,5.1398,5.1825,5.2644,5.2427,5.2653,5.3146,5.3557,5.4637,5.5993,5.5993,5.6068,5.6219,3.5639,3.5231,0.0,0.0,0.0,0.0,0.0,0.0,0.0,0.0,0.0,0.0,0.0,0.0,0.0,0.0,0.0,5.3325,5.2372,0.0,4.6189,0.0,0.0,0.0,0.0,0.0,0.0,4.3892,4.2871,4.3539,4.5724,0.0,0.0,0.0,0.0,4.5169,4.4761,4.6609,4.77,4.8219,4.879,5.0041,5.1397,0.0,5.066,5.1796,5.2989,0.0,0.0,5.2349,5.2504,0.0,0.0,0.0,0.0,0.0,0.0,0.0,0.0,0.0,0.0,0.0,0.0,0.0,0.0,0.0,4.2585,0.0,0.0,0.0,0.0,0.0,0.0,0.0,0.0,0.0,0.0,0.0,0.0,0.0,0.0,0.0,0.0,0.0,0.0,4.1352,4.0926,4.0901,4.1378,4.2509,4.4116,4.6301,4.738,4.8184,4.8793,4.9289,4.9565,4.959,4.9615,4.9615,4.9615,4.964,4.9941,5.0494,5.1046,5.1599,5.2176,5.2644,5.3206,5.3683,5.3683,5.4411,5.5415,5.5415,5.5742,5.6219,0.0,0.0,0.0,0.0,0.0,0.0,0.0,4.3478,0.0,0.0,0.0,0.0,0.0,0.0,5.9739,0.0,0.0,5.7494,5.5886,5.3356,0.0,0.0,0.0,4.7033,0.0,0.0,0.0,0.0,0.0,0.0,4.5866,4.5178,4.5041,0.0,0.0,4.6277,0.0,0.0,0.0,0.0,0.0,5.2601,5.4601,0.0,0.0,5.3602,5.3572,5.4544,0.0,5.4513,5.364,5.2938,5.242,5.0765,4.9008,4.9139,4.9419,0.0,0.0,0.0,5.1844,4.7105,0.0,0.0,0.0,0.0,0.0,0.0,0.0,0.0,0.0,0.0,0.0,0.0,0.0,0.0,0.0,0.0,0.0,0.0,0.0,0.0,0.0,0.0,0.0,3.7514,3.799,3.8718,0.0,4.1103,4.2883,4.5091,4.5924,4.6753,4.7682,4.8209,4.8661,4.9095,4.9414,4.959,4.959,4.959,4.9891,5.0386,5.0619,5.1247,5.2126,5.2302,5.2703,5.3181,5.3181,5.3858,5.4924,5.5265,5.5742,5.6219,3.9003,0.0,0.0,0.0,0.0,0.0,0.0,0.0,0.0,0.0,5.5004,0.0,6.2039,0.0,6.3413,0.0,6.3179,6.111,5.7786,5.6528,0.0,5.2555,5.1326,0.0,0.0,0.0,0.0,0.0,0.0,4.5692,4.5917,4.5917,4.5917,0.0,0.0,4.77,4.7595,0.0,5.0357,0.0,0.0,5.487,0.0,0.0,5.4204,0.0,0.0,5.5217,5.5968,5.53,5.4291,5.3343,5.3466,5.2122,5.0484,5.0443,5.0968,5.1322,5.0464,5.2211,0.0,0.0,4.8727,0.0,0.0,0.0,0.0,0.0,0.0,0.0,0.0,0.0,0.0,4.1831,4.1277,0.0,0.0,0.0,0.0,0.0,0.0,0.0,0.0,0.0,3.7036,3.5907,3.6108,3.6808,0.0,0.0,4.1654,4.3689,4.507,4.6225,4.7099,4.7857,4.8441,4.8818,4.9339,4.959,4.959,4.959,4.9891,5.0386,5.0645,5.1247,5.2126,5.2327,5.2569,5.2895,5.2895,5.3607,5.4647,5.4999,5.5566,5.6219,0.0,0.0,0.0,0.0,4.0419,0.0,0.0,0.0,5.1991,0.0,5.7991,6.1554,6.4213,6.5285,6.5969,6.6282,6.65,0.0,5.8767,5.914,0.0,0.0,5.2905,5.1999,5.0275,0.0,0.0,0.0,0.0,0.0,4.6005,4.5946,4.5917,4.6005,4.8531,0.0,4.8919,5.272,5.4403,5.4662,5.652,5.6926,5.6432,5.6374,0.0,5.6345,5.6316,5.591,5.5271,5.4662,5.4432,5.4316,5.3677,5.2662,5.1675,5.1646,5.2136,5.2451,5.1261,5.2262,5.3164,5.0903,0.0,0.0,0.0,0.0,4.7715,0.0,0.0,0.0,0.0,0.0,0.0,4.2414,4.1103,0.0,0.0,0.0,0.0,0.0,0.0,0.0,0.0,3.7839,3.7387,3.6358,3.523,3.5152,0.0,0.0,0.0,4.2162,4.4794,4.6471,4.7048,4.8159,4.8743,4.8768,4.9289,4.9565,4.959,4.959,4.9891,5.0419,5.1021,5.1574,5.2101,5.2644,5.2895,5.2895,5.2895,5.3607,5.4622,5.4672,5.5315,5.6219,4.0792,4.1362,4.2166,0.0,4.2743,4.301,0.0,0.0,0.0,0.0,6.2027,6.54,6.9466,6.9456,6.9127,6.9021,6.8607,0.0,0.0,0.0,0.0,6.1087,5.8794,5.6761,5.5062,5.3049,0.0,4.9607,0.0,0.0,4.7312,4.6353,4.5917,4.6005,0.0,0.0,4.8217,5.112,5.3184,5.4606,5.6055,5.681,0.0,0.0,5.5678,5.562,5.5155,5.4894,5.4606,5.3994,5.3762,5.3733,5.3532,5.3271,5.2923,5.2455,5.3123,5.3854,5.3016,5.3829,5.4474,5.2546,5.1429,4.9993,0.0,0.0,0.0,0.0,0.0,0.0,0.0,0.0,0.0,0.0,0.0,0.0,0.0,0.0,0.0,0.0,0.0,0.0,3.6833,3.568,3.4851,3.455,3.3897,0.0,0.0,0.0,0.0,4.2137,4.4041,4.5493,4.6496,4.7174,4.7757,4.8134,4.8743,4.9188,4.959,4.959,4.9665,4.9866,5.0845,5.1373,5.1574,5.2494,5.2895,5.2895,5.2895,5.3607,5.4697,5.5491,5.5968,5.6219,4.1863,0.0,0.0,4.5435,0.0,0.0,4.819,0.0,0.0,5.9535,6.3298,0.0,6.9032,7.0368,7.0992,7.0829,7.0201,0.0,0.0,0.0,0.0,6.389,6.1691,5.967,5.7839,5.516,0.0,5.1031,0.0,0.0,4.7532,4.6489,4.5978,4.5982,4.7845,4.8513,4.8391,5.1211,5.3733,5.5765,5.591,0.0,0.0,5.5387,5.4809,5.4519,5.4197,5.4055,5.4023,5.3646,5.3474,5.3474,5.3474,5.3474,5.3442,5.3094,5.3704,5.4403,5.4025,5.4662,5.5166,5.4134,5.3396,5.2251,4.9746,4.9141,4.8762,0.0,0.0,0.0,0.0,0.0,0.0,0.0,0.0,0.0,0.0,0.0,0.0,0.0,0.0,0.0,3.573,3.4374,3.3445,3.3194,0.0,0.0,0.0,0.0,0.0,4.1406,4.3765,4.5422,4.6301,4.7581,4.8109,4.7908,4.8736,4.9321,4.959,4.959,4.9715,5.0017,5.0896,5.1423,5.1699,5.2544,5.2895,5.2945,5.3457,5.4034,5.4723,5.5817,5.6219,5.6219,0.0,0.0,0.0,0.0,0.0,0.0,0.0,5.398,0.0,5.9517,0.0,6.6819,6.6909,6.9901,7.1846,0.0,0.0,7.0074,6.8151,6.7533,6.6399,6.4398,6.3232,6.1702,5.9787,5.6743,0.0,0.0,0.0,0.0,4.7346,4.6569,4.6113,4.5998,4.7869,0.0,0.0,5.2111,5.4662,5.6607,5.5678,5.53,5.5242,5.4577,5.3996,5.3474,5.3474,5.3474,5.3474,5.3474,5.3474,5.3474,5.3474,5.3474,5.3474,5.3474,5.3909,5.4371,5.4371,5.4749,5.5155,5.5155,5.5155,5.4712,5.2962,5.1044,4.961,4.959,4.7757,0.0,0.0,0.0,0.0,0.0,0.0,0.0,0.0,0.0,0.0,0.0,0.0,0.0,0.0,0.0,0.0,0.0,0.0,0.0,0.0,0.0,0.0,0.0,4.3689,0.0,4.6401,0.0,4.8962,4.8134,4.9063,4.9515,4.959,4.959,4.9866,5.0343,5.0996,5.1548,5.2051,5.2644,5.2895,5.2995,5.3984,5.4471,5.4723,5.5641,5.6093,5.6219,0.0,0.0,0.0,0.0,0.0,5.5543,5.8184,6.0213,6.2575,6.5678,6.8846,0.0,7.1637,7.1816,7.1667,7.1128,7.0979,0.0,0.0,0.0,0.0,6.8073,6.631,6.4635,6.3169,5.9242,5.6433,0.0,0.0,0.0,4.825,4.6871,4.618,4.6223,4.7939,0.0,5.0477,5.2075,0.0,5.3498,5.4313,5.4662,5.4604,5.3936,5.359,5.3474,5.3474,5.3474,5.3474,5.3474,5.3474,5.3474,5.3474,5.3474,5.3474,5.3474,5.3588,5.3704,5.3704,5.3735,5.3822,5.3822,5.3822,5.3499,5.2172,5.1955,5.1323,4.8895,4.9136,4.8578,4.4677,0.0,0.0,0.0,0.0,0.0,0.0,0.0,0.0,0.0,0.0,0.0,0.0,0.0,0.0,0.0,0.0,0.0,0.0,0.0,0.0,0.0,0.0,0.0,0.0,0.0,0.0,4.9289,4.9069,4.9195,4.959,4.959,4.964,4.9791,5.0845,5.1348,5.1498,5.2528,5.2895,5.292,5.3096,5.3758,5.4622,5.4823,5.544,5.6219,0.0,0.0,0.0,0.0,0.0,0.0,0.0,6.5413,0.0,6.6337,6.8073,6.9333,6.9333,7.1188,7.2146,7.1457,7.1398,7.1398,7.1398,7.0231,6.9363,6.9004,6.7418,0.0,6.4036,0.0,5.712,5.5424,0.0,0.0,0.0,0.0,0.0,4.6261,4.7753,4.949,0.0,0.0,0.0,5.3742,5.3931,5.4604,5.5358,5.4023,5.3733,5.3967,5.3619,5.3474,5.3474,5.3474,5.3474,5.3474,5.3474,5.3474,5.3474,5.3474,5.3474,5.3474,5.3474,5.3474,5.3474,5.3474,5.3474,5.3256,5.2354,5.1678,5.0794,4.9296,4.9422,4.8872,4.5762,4.2656,0.0,0.0,0.0,0.0,0.0,0.0,0.0,0.0,0.0,0.0,0.0,0.0,0.0,0.0,0.0,0.0,0.0,0.0,0.0,0.0,0.0,0.0,0.0,0.0,0.0,4.9195,4.922,4.9339,4.9615,4.9891,4.9866,4.9665,5.1096,5.1548,5.1373,5.2477,5.2895,5.292,5.3231,5.3833,5.4622,5.4924,5.5516,5.6219,0.0,5.2163,0.0,0.0,5.9308,0.0,0.0,6.9123,7.026,6.7267,6.7567,6.7897,6.7508,7.047,7.2265,7.1727,7.1667,7.1607,7.1487,7.041,6.9482,6.8824,6.7627,6.6131,6.4246,6.0597,5.7603,0.0,0.0,0.0,0.0,0.0,0.0,0.0,0.0,0.0,0.0,0.0,5.3092,5.4677,5.4258,5.4937,5.5987,5.4444,5.4124,5.4386,5.3809,5.3579,5.3579,5.353,5.3474,5.3474,5.3474,5.3474,5.3474,5.3474,5.3474,5.3474,5.3474,5.3474,5.3474,5.3474,5.3413,5.321,5.2888,5.1577,5.0388,5.0099,4.9003,4.7728,4.6501,4.359,0.0,0.0,0.0,0.0,0.0,0.0,0.0,0.0,0.0,0.0,0.0,0.0,0.0,0.0,0.0,0.0,0.0,0.0,0.0,0.0,0.0,0.0,4.6446,0.0,4.9741,0.0,4.9439,4.9665,4.9791,5.0218,5.0243,5.0042,5.1473,5.1925,5.1699,5.2578,5.2895,5.2945,5.3381,5.3959,5.4647,5.5074,5.5641,5.6219,0.0,0.0,0.0,0.0,0.0,0.0,0.0,7.0201,7.2804,7.3043,7.2116,7.1637,7.2206,7.1577,7.1068,7.1009,7.0979,7.0769,7.0233,6.9482,6.8794,6.8137,6.7388,6.634,6.4934,6.2212,5.8979,0.0,0.0,0.0,0.0,0.0,0.0,0.0,0.0,0.0,0.0,5.1866,5.3162,5.4539,5.5607,5.5787,5.5377,5.5201,5.4786,5.4289,5.3971,5.3867,5.3841,5.3579,5.3474,5.3474,5.3474,5.3474,5.3474,5.3474,5.3474,5.3474,5.3474,5.3474,5.3474,5.3474,5.3094,5.283,5.3297,5.2842,5.2041,5.1014,4.781,4.5262,4.546,4.3206,4.1618,0.0,0.0,0.0,0.0,0.0,0.0,0.0,0.0,0.0,0.0,0.0,0.0,0.0,0.0,0.0,0.0,0.0,0.0,3.9747,0.0,4.5443,4.7023,4.8309,0.0,5.0235,4.9816,4.9866,5.0343,5.0393,5.067,5.1205,5.1825,5.2352,5.2744,5.2845,5.2895,5.2895,5.2945,5.3632,5.4622,5.4672,5.5315,5.6219,0.0,0.0,0.0,0.0,0.0,0.0,0.0,7.1966,7.3612,7.3851,7.3073,7.2445,7.2295,7.1816,7.1338,7.0949,7.0889,7.0799,7.056,6.9931,6.9303,6.8615,6.7987,6.6789,6.5024,6.3228,6.0174,0.0,0.0,0.0,0.0,0.0,0.0,0.0,0.0,4.9442,5.1367,5.2694,5.3997,5.5245,5.6005,5.6603,5.6957,5.619,5.5719,5.5424,5.491,5.4476,5.4123,5.4019,5.3762,5.3474,5.3474,5.3239,5.2949,5.2949,5.2659,5.2343,5.2343,5.2343,5.2343,5.2343,5.2484,5.2568,5.2397,5.2484,5.2258,5.1072,4.8679,4.7056,4.7951,4.5463,4.3406,0.0,0.0,0.0,0.0,0.0,0.0,0.0,0.0,0.0,0.0,0.0,0.0,0.0,0.0,0.0,0.0,0.0,0.0,3.9672,0.0,4.4916,4.6597,4.8058,4.9314,5.0419,5.1017,5.1189,5.0979,5.2115,5.2476,5.2251,5.2151,5.2427,5.2895,5.2895,5.2895,5.2895,5.2895,5.3607,5.4597,5.4597,5.5265,5.6219,6.1343,0.0,6.272,0.0,6.7328,6.8465,7.1427,7.2864,7.3612,7.3612,7.3193,7.2744,7.2235,7.1846,7.1398,7.0949,7.0889,7.0829,7.0649,7.0231,6.9602,6.8734,6.8257,0.0,6.5323,6.4036,6.1401,5.736,5.5144,0.0,0.0,0.0,0.0,0.0,4.9869,5.0941,5.2881,5.4007,5.5228,5.6452,5.6921,5.7552,5.8058,5.717,5.6604,5.6219,5.564,5.4997,5.4436,5.4329,5.4045,5.3736,5.3632,5.3195,5.27,5.2623,5.2107,5.1617,5.1846,5.1759,5.1646,5.1846,5.2107,5.2223,5.1962,5.2252,5.2316,5.1298,4.9629,4.8561,4.9186,4.6737,4.4573,0.0,0.0,0.0,0.0,0.0,0.0,0.0,0.0,3.9424,3.6688,0.0,0.0,0.0,0.0,0.0,0.0,0.0,0.0,0.0,0.0,0.0,0.0,0.0,4.9552,5.0419,5.2216,5.2734,5.2165,5.3671,5.4063,5.3461,5.2673,5.2578,5.2895,5.2895,5.2895,5.2895,5.2895,5.3507,5.4371,5.4547,5.5099,5.5767,6.4306,6.4934,6.5981,6.9363,7.044,7.1068,7.1787,7.2475,7.2924,7.2924,7.2924,7.2924,7.2894,7.1727,7.0919,7.0889,7.0889,7.0649,7.0053,7.0023,6.9424,0.0,0.0,6.7389,6.6011,6.4665,6.269,6.0054,0.0,0.0,5.3139,0.0,0.0,5.2157,5.2157,5.3294,5.5209,5.5893,5.6915,5.8115,5.8803,5.8683,5.8115,5.8085,5.7304,5.6141,5.5827,5.5308,5.4751,5.4406,5.4304,5.4252,5.3968,5.348,5.2961,5.2675,5.2107,5.1733,5.2423,5.2107,5.1759,5.2423,5.2107,5.1762,5.2452,5.2597,5.2431,5.1806,5.0292,4.8857,4.806,4.6082,4.4549,4.4349,0.0,0.0,0.0,0.0,0.0,0.0,4.0174,3.9838,3.8692,0.0,0.0,0.0,0.0,0.0,0.0,0.0,0.0,4.297,4.3524,0.0,4.8841,4.9557,5.0054,5.0419,5.3111,5.4289,5.4073,5.4733,5.4961,5.492,5.3521,5.2895,5.2895,5.2895,5.2895,5.2895,5.2895,5.3256,5.3783,5.4396,5.4622,5.4773,6.6161,6.7478,6.8734,6.9782,7.0859,7.1487,7.1248,7.2176,7.2744,7.2265,7.2206,7.2206,7.2206,7.1816,7.1398,0.0,7.0889,7.0829,0.0,6.9782,6.9123,6.8704,6.7807,6.67,6.5353,6.4904,6.3199,6.0114,0.0,0.0,0.0,5.3443,5.3359,5.3593,5.4042,5.5089,5.6526,5.7214,5.7992,5.88,5.9009,5.8979,5.8773,5.8773,5.7962,5.6795,5.6691,5.5978,5.5053,5.4951,5.4926,5.4875,5.4594,5.3946,5.3212,5.2931,5.2121,5.1391,5.2008,5.1591,5.1083,5.1483,5.1591,5.1672,5.1875,5.2252,5.2291,5.1238,4.9939,4.8921,4.8522,4.6925,4.5497,4.5052,0.0,0.0,0.0,0.0,0.0,0.0,0.0,4.1382,0.0,3.9548,0.0,0.0,0.0,0.0,0.0,0.0,0.0,0.0,4.4736,0.0,4.7658,5.0835,5.1929,5.1062,5.51,5.7228,5.7436,5.5748,5.502,5.4894,5.3521,5.2895,5.2895,5.2895,5.2895,5.2895,5.2895,5.3256,5.3733,5.3909,5.427,5.4647,6.7956,6.9155,7.0173,7.0652,7.1577,7.2056,7.1368,7.2415,7.2864,7.1667,7.1966,7.2086,7.1577,7.1727,0.0,7.0949,7.0889,0.0,7.0889,7.0171,6.9512,6.9034,6.8196,6.6999,6.5413,0.0,0.0,6.1553,6.0146,5.8291,5.6047,5.5777,5.5927,5.6436,5.6855,5.7483,5.8231,5.868,5.8949,5.9099,5.9099,5.9099,5.9099,5.9099,5.8261,5.7124,5.7393,5.6496,5.5239,5.5504,5.5593,5.5543,5.539,5.5091,5.459,5.3469,5.2251,5.1429,5.2159,5.17,5.1124,5.1566,5.1724,5.1715,5.1614,5.1933,5.1991,5.1178,5.0299,4.9506,4.9141,4.7808,4.6547,4.595,0.0,0.0,0.0,0.0,0.0,0.0,0.0,0.0,0.0,4.0888,0.0,0.0,0.0,0.0,0.0,0.0,0.0,4.4598,4.6567,0.0,5.0199,5.2943,5.3913,5.3178,5.6856,5.9064,5.9799,5.7578,5.6547,5.6417,5.4518,5.3666,5.3632,5.311,5.2895,5.2895,5.2895,5.3096,5.3432,5.3632,5.3808,5.4009,6.9694,7.0051,0.0,0.0,7.2415,0.0,7.2056,7.2954,7.3043,7.1218,7.2026,7.2295,7.1038,7.1457,7.1577,7.0949,0.0,0.0,0.0,7.0829,7.0231,6.9064,6.8914,0.0,6.5981,6.5323,6.4635,6.3947,6.1433,5.9907,5.9308,5.8623,5.8952,6.0174,6.0174,6.0116,6.0114,6.0114,5.9697,5.9099,5.9099,5.9099,5.9099,5.9099,5.8291,5.7244,5.7876,5.6915,5.5418,5.6042,5.6252,5.6252,5.6252,5.6671,5.6631,5.4302,5.2732,5.1945,5.2905,5.2419,5.1812,5.2512,5.2333,5.1913,5.1606,5.1559,5.1559,5.1472,5.1091,5.0535,4.978,4.8677,4.7608,4.6859,4.5227,4.4059,4.4008,0.0,0.0,0.0,0.0,0.0,0.0,4.2551,4.2205,0.0,0.0,0.0,0.0,0.0,0.0,4.7641,4.8763,5.1231,5.5239,5.5553,5.5971,5.6572,5.8282,5.983,6.1163,5.9737,5.9121,5.8937,5.6287,5.5127,5.5027,5.3598,5.3067,5.3033,5.2929,5.2895,5.2945,5.3457,5.3331,5.3046,0.0,0.0,7.1098,7.2445,7.1966,7.1667,7.2535,7.2056,7.1607,7.1637,7.1487,7.1248,7.0949,7.1038,7.1068,7.0919,7.0889,7.0889,7.0889,6.9991,6.9333,6.9004,6.8016,6.6759,6.5263,6.5084,6.4455,6.3317,6.2181,6.1553,6.1373,6.0715,6.0565,6.0864,6.0864,6.0565,6.0114,6.0114,5.9697,5.9099,5.9099,5.9099,5.9099,5.9099,5.859,5.7876,5.8025,5.7483,5.6675,5.6825,5.6885,5.6885,5.6885,5.6974,5.6952,5.6165,5.5019,5.4162,5.486,5.4048,5.3032,5.3427,5.2763,5.1796,5.1079,5.1265,5.1298,5.0336,5.0801,5.0863,4.9262,4.8687,4.7985,4.6359,4.5314,4.4552,4.4066,0.0,0.0,0.0,4.3843,4.411,4.358,4.349,4.3574,0.0,0.0,0.0,0.0,0.0,4.7258,4.9202,4.9988,5.1543,5.4027,5.6338,5.8362,5.9998,5.9406,5.983,6.1163,5.9737,5.9121,5.9027,5.7263,5.652,5.6423,5.5061,5.4485,5.4384,5.3316,5.2895,5.292,5.302,5.2995,5.292,7.0829,7.1398,7.2056,7.2774,7.2565,7.2505,7.3253,7.2744,7.2176,7.1906,7.1577,7.1248,7.0949,7.0889,7.0889,7.0889,7.0889,7.0769,7.05,6.9842,6.9183,6.8555,6.7868,6.67,6.5024,6.4994,6.4395,6.3108,6.2748,6.254,6.254,6.2181,6.2002,6.2002,6.2002,6.1642,6.0984,6.0685,6.0176,5.9518,5.9219,5.9099,5.9099,5.9099,5.8683,5.8145,5.8444,5.7932,5.7154,5.7453,5.7573,5.7573,5.7573,5.7782,5.7995,5.7835,5.6676,5.5543,5.6043,5.5426,5.4624,5.4323,5.3798,5.3045,5.1987,5.2126,5.2256,5.1585,5.1759,5.1643,5.0283,4.9296,4.8281,4.6969,4.5714,4.4785,4.4465,4.4153,0.0,4.4504,4.5261,4.5807,4.5881,4.6167,4.6059,4.5411,0.0,0.0,4.6858,4.9354,5.0903,5.1193,5.2847,5.4645,5.6618,5.8546,6.0095,6.1193,6.0409,6.044,6.1163,6.0409,6.0073,5.9983,5.8561,5.7583,5.6909,5.5558,5.4619,5.3971,5.3179,5.2895,5.2895,5.2895,5.2895,5.2895,7.1308,7.2206,7.2984,7.3163,7.3522,7.3791,7.3881,7.3732,7.3193,7.2026,7.1787,7.1517,7.0949,7.0889,7.0889,7.0889,7.0889,7.0679,7.0141,6.9963,6.9365,6.8197,6.7958,6.6939,6.5024,6.4815,6.4186,6.3108,6.3108,6.3108,6.3108,6.3108,6.3108,6.3108,6.3108,6.2748,6.2061,6.1493,6.0864,6.0206,5.9638,5.9338,5.9249,5.9249,5.883,5.8324,5.8919,5.8381,5.7483,5.8055,5.8234,5.8234,5.8234,5.865,5.9099,5.9099,5.7932,5.6679,5.6865,5.6639,5.6111,5.5172,5.4909,5.4577,5.3418,5.3357,5.3582,5.3646,5.3239,5.2685,5.1994,5.0225,4.8624,4.7921,4.6266,4.5017,4.493,0.0,4.4763,4.6034,4.665,4.7288,4.8154,4.9228,4.8947,4.6704,4.9542,0.0,0.0,5.2598,5.4233,5.3891,5.5993,5.8089,5.9996,6.0813,6.1193,6.1193,6.1193,6.1193,6.1193,6.1193,6.1193,6.1133,5.9707,5.8435,5.7199,5.5631,5.4283,5.3179,5.2998,5.2895,5.2895,5.2895,5.2895,5.2895,7.3193,7.3163,7.3283,7.436,7.3732,7.3253,7.3821,7.2924,7.2116,7.1939,7.1398,7.1009,7.0919,7.0889,7.0889,7.0889,7.0889,7.0859,7.0769,6.9752,6.9064,6.8854,6.7747,6.649,6.5024,6.3947,6.3317,6.3108,6.3108,6.3108,6.3108,6.3108,6.3108,6.3108,6.3108,6.2748,6.2091,6.2002,6.1553,6.0954,6.0835,6.0446,5.9937,5.9937,5.9518,5.8979,5.9069,5.8979,5.88,5.8919,5.8949,5.8949,5.8949,5.9009,5.9099,5.9099,5.889,5.856,5.8002,5.743,5.6743,5.5801,5.5167,5.4627,5.3906,5.3779,5.3934,5.4253,5.4284,5.4023,5.3329,5.1207,4.917,4.7979,4.6644,4.5569,0.0,0.0,4.6092,4.737,4.7602,4.8328,5.0071,5.0419,5.1012,5.2136,5.1054,5.1746,5.4969,5.4427,5.5339,5.8205,5.705,5.7307,5.9259,6.0563,6.1193,6.1193,6.1193,6.1193,6.1193,6.1193,6.1193,6.1133,5.9707,5.8996,5.8561,5.6025,5.4887,5.4552,5.335,5.2895,5.2895,5.2895,5.2895,5.2895,7.3253,7.3702,7.4061,7.43,7.4151,7.4061,7.436,7.3283,7.2445,7.2445,7.1547,7.0889,7.0889,7.0889,7.0889,7.0889,7.0889,7.0889,7.0889,6.9722,6.8675,6.7956,6.7328,6.655,6.5562,6.4246,6.3437,6.3108,6.3108,6.2928,6.257,6.2928,6.3108,6.3108,6.3108,6.2928,6.26,6.2241,6.1912,6.1613,6.1253,6.0715,6.0114,6.0114,5.9668,5.9099,5.9099,5.9099,5.9039,5.8683,5.88,5.9039,5.868,5.8563,5.8563,5.8563,5.8563,5.8563,5.8623,5.8171,5.7457,5.6668,5.6419,5.6034,5.4907,5.4785,5.5038,5.5442,5.5242,5.4807,5.4168,5.1962,5.0042,4.9461,4.7428,0.0,0.0,4.6731,4.7399,4.8682,4.9751,5.0884,5.2078,5.2833,5.3297,5.3474,5.3481,5.432,5.6289,5.6678,5.7715,5.9742,5.9184,5.9303,6.0226,6.0863,6.1193,6.1193,6.1193,6.1193,6.1193,6.1193,6.0802,6.0014,5.9369,5.8246,5.6807,5.5525,5.4552,5.3801,5.3145,5.2895,5.2895,5.2895,5.2895,5.2895,7.3073,7.3941,7.4574,7.418,7.442,7.4634,7.445,7.3432,7.2624,7.2475,7.1547,7.0889,7.0889,7.0889,7.0889,7.0889,7.0889,7.0769,7.047,6.9542,6.8525,6.7508,6.6999,6.646,6.5772,6.4605,6.3707,6.3108,6.3108,6.2838,6.2331,6.2868,6.3108,6.3108,6.3108,6.3108,6.3078,6.254,6.2331,6.2271,6.1762,6.1074,6.0326,6.0326,5.9727,5.889,5.9039,5.889,5.859,5.8205,5.8444,5.88,5.8264,5.8085,5.8085,5.8085,5.7995,5.7995,5.871,5.8474,5.7935,5.7274,5.7235,5.7027,5.5699,5.5557,5.5791,5.6191,5.5792,5.5242,5.4606,5.2659,5.1,5.0564,0.0,0.0,0.0,4.8067,4.8769,5.022,5.1817,5.3152,5.411,5.5184,5.5503,5.4691,5.6142,5.7158,5.7274,5.8697,5.98,6.0409,6.0932,6.1193,6.1193,6.1193,6.1193,6.1193,6.1193,6.1193,6.1193,6.1193,6.0621,5.9524,5.8874,5.7391,5.5426,5.4786,5.3869,5.2895,5.2895,5.2895,5.2895,5.2895,5.2895,5.2895,7.3582,7.3911,7.4151,7.4753,7.433,7.3762,7.3163,7.2445,7.1757,7.1128,7.0949,7.0889,7.0889,7.0889,7.0889,7.0889,7.0889,7.041,6.9213,6.9064,6.8944,6.8854,6.7089,6.5742,6.5084,6.4366,6.3707,6.3108,6.3108,6.3078,6.3048,6.3078,6.3108,6.3108,6.3108,6.3108,6.3108,6.3048,6.3048,6.3018,6.2988,6.2181,6.1044,6.1044,5.982,5.8264,5.889,5.8291,5.7334,5.7905,5.8115,5.8175,5.8115,5.8085,5.8085,5.8085,5.7663,5.7334,5.7995,5.8145,5.7935,5.7274,5.6705,5.6209,5.5779,5.5493,5.5439,5.5762,5.5607,5.5242,5.4606,5.3384,5.1871,5.005,0.0,0.0,4.7863,4.8822,5.0274,5.2162,5.3007,5.4168,5.6026,5.6781,5.739,5.7913,5.8668,5.9335,5.9887,6.0061,6.0438,6.1106,6.1164,6.1193,6.1193,6.1193,6.1193,6.1193,6.1193,6.1193,6.1193,6.1193,6.1133,6.0893,5.8309,5.7038,5.665,5.4081,5.2998,5.2895,5.2895,5.2895,5.2895,5.2895,5.2895,5.2895,7.3702,7.421,7.4604,7.4873,7.433,7.3821,7.3552,7.2595,7.1787,7.1547,7.1158,7.0889,7.0889,7.0889,7.0889,7.0889,7.0889,7.053,6.9662,6.9213,6.8615,6.7807,6.7029,6.6311,6.5622,6.4575,6.3707,6.3108,6.266,6.2271,6.1882,6.2718,6.2898,6.248,6.2928,6.3108,6.3108,6.3108,6.3108,6.3078,6.2659,6.1942,6.1046,6.0625,5.9757,5.877,5.9009,5.877,5.8261,5.7663,5.8052,5.859,5.7752,5.7782,5.7935,5.7154,5.7603,5.8321,5.8145,5.7786,5.7423,5.7154,5.6671,5.5995,5.5325,5.5082,5.5053,5.5198,5.545,5.5519,5.5124,5.4371,5.353,5.2778,0.0,5.0544,5.0739,5.1523,5.263,5.4139,5.5242,5.6316,5.7477,5.8174,5.8639,5.89,5.951,6.0148,6.0787,6.0816,6.0932,6.1193,6.1193,6.1193,6.1193,6.1193,6.1193,6.1193,6.1193,6.1193,6.1193,6.1193,6.0257,5.8529,5.7455,5.6031,5.4384,5.335,5.2895,5.2895,5.2895,5.2895,5.2895,5.2895,5.2895,5.2895,7.3402,7.3762,7.4095,7.448,7.3851,7.3253,7.3253,7.2295,7.1577,7.1577,7.1188,7.0889,7.0889,7.0889,7.0889,7.0889,7.0889,7.056,6.9722,6.8854,6.7956,6.7029,6.6789,6.637,6.5682,6.4575,6.3707,6.3108,6.2659,6.2181,6.1762,6.266,6.2868,6.2421,6.2898,6.3108,6.3108,6.3108,6.3108,6.3048,6.2361,6.1702,6.1074,6.0595,5.9727,5.886,5.9249,5.9009,5.8351,5.7663,5.8022,5.865,5.7693,5.7872,5.8201,5.7094,5.8022,5.9308,5.886,5.8381,5.8022,5.8022,5.7569,5.6948,5.6292,5.6099,5.6034,5.6081,5.6453,5.6643,5.622,5.5732,5.5184,5.4577,5.3358,5.2688,5.3149,5.3907,5.4894,5.6171,5.7274,5.8116,5.8581,5.919,5.9568,5.9568,6.0148,6.07,6.1164,6.1193,6.1193,6.1193,6.1193,6.1193,6.1193,6.1193,6.1193,6.1193,6.1193,6.1193,6.1193,6.1193,6.0165,5.8309,5.7838,5.6585,5.4794,5.4384,5.4182,5.4182,5.4182,5.3937,5.3555,5.3555,5.3282,5.2895,7.2654,7.2355,7.2325,7.3642,7.2774,7.1876,7.1876,7.1338,7.0889,7.0889,7.0889,7.0889,7.0889,7.0889,7.0889,7.0889,7.0889,7.035,6.9064,6.7747,6.6999,6.6969,6.634,6.5682,6.4994,6.4336,6.3677,6.3108,6.3108,6.3108,6.3108,6.3108,6.3108,6.3108,6.3108,6.3108,6.3108,6.3108,6.3108,6.3048,6.2361,6.1702,6.1106,6.1076,5.985,5.8294,5.9608,5.88,5.7214,5.7876,5.8085,5.8115,5.8115,5.8563,5.8979,5.8294,5.9069,6.0114,6.0114,6.0144,6.0116,6.0114,5.9608,5.9099,5.9099,5.8882,5.8721,5.8721,5.8757,5.8599,5.7926,5.7557,5.6723,5.4836,5.4546,5.4546,5.4519,5.562,5.6897,5.8174,5.89,5.9306,5.9306,5.9858,6.0206,6.0206,6.0816,6.1193,6.1193,6.1193,6.1193,6.1193,6.1193,6.1193,6.1193,6.1193,6.1193,6.1193,6.1193,6.1193,6.1193,6.1193,6.1193,6.1103,5.9707,5.9089,5.8996,5.7583,5.7006,5.7006,5.7006,5.6189,5.502,5.502,5.414,5.2929,7.2026,7.2415,7.2744,7.3133,7.2475,7.1876,7.1876,7.1338,7.0889,7.0889,7.0889,7.0889,7.0889,7.0889,7.0889,7.0889,7.05,6.9724,6.8407,6.7478,6.6789,6.6311,6.6131,6.5473,6.4336,6.3677,6.3287,6.3108,6.2629,6.2391,6.2391,6.2898,6.2868,6.2421,6.2898,6.3108,6.3108,6.3108,6.3108,6.3048,6.2361,6.1972,6.1762,6.1283,6.0446,5.9548,5.9937,5.9398,5.8471,5.8175,5.8414,5.88,5.88,5.9608,6.0296,5.9159,6.0086,6.1403,6.0924,6.1493,6.188,6.0473,5.9608,5.9099,5.9099,5.9018,5.8909,5.8748,5.9088,5.9278,5.8876,5.889,5.8662,5.7698,5.7706,5.771,5.7245,5.7913,5.8726,5.9539,5.98,6.0119,6.0584,6.0787,6.0903,6.0903,6.1077,6.1193,6.1193,6.1193,6.1193,6.1193,6.1193,6.1193,6.1193,6.1193,6.1193,6.1193,6.1193,6.1193,6.1193,6.1193,6.0681,5.9707,5.9276,5.8529,5.7583,5.7167,5.7006,5.7006,5.7006,5.6747,5.6287,5.5359,5.4753,5.4216,7.1757,7.1996,7.2206,7.2475,7.1936,7.1487,7.1487,7.1158,7.0889,7.0889,7.0889,7.0889,7.0889,7.0889,7.0799,7.056,6.9754,6.8886,6.8047,6.7358,6.67,6.6041,6.5772,6.5114,6.4006,6.3407,6.3108,6.3108,6.269,6.248,6.248,6.2928,6.2898,6.251,6.2928,6.3108,6.3108,6.3108,6.3108,6.3048,6.2361,6.2091,6.2061,6.1642,6.1074,6.0505,6.0505,6.0057,5.9398,5.8713,5.8949,5.9488,5.9488,6.0416,6.1343,6.0535,6.1343,6.2391,6.2002,6.248,6.2808,6.1611,6.0984,6.0685,6.0685,6.0685,6.0657,6.0462,6.0678,6.0804,6.0575,6.0293,5.9975,5.9595,5.9422,5.9248,5.9074,5.9393,5.9887,6.0526,6.0584,6.0758,6.1164,6.1193,6.1193,6.1193,6.1193,6.1193,6.1193,6.1193,6.1193,6.1193,6.1193,6.1193,6.1193,6.1193,6.1193,6.1193,6.1193,6.1193,6.1193,6.1193,6.0742,5.9922,5.9922,5.9431,5.8655,5.8655,5.8655,5.8655,5.8655,5.7992,5.6909,5.609,5.5094,5.4039,7.1667,7.1308,7.1098,7.1697,7.1308,7.0889,7.0889,7.0889,7.0889,7.0889,7.0889,7.0889,7.0889,7.0889,7.0649,7.0021,6.8766,6.7987,6.7928,6.7359,6.67,6.6041,6.5413,6.4725,6.4006,6.3407,6.3108,6.3108,6.3108,6.3108,6.3108,6.3108,6.3108,6.3108,6.3108,6.3108,6.3108,6.3048,6.3048,6.3048,6.2361,6.2091,6.2121,6.2151,6.1732,6.1106,6.1194,6.0775,6.0086,5.9488,5.9727,6.0294,6.0206,6.1104,6.2181,6.2121,6.257,6.3108,6.3108,6.3108,6.3108,6.3108,6.3108,6.3108,6.3108,6.3108,6.3108,6.3108,6.2847,6.2644,6.2644,6.1644,6.0882,6.0853,6.0063,5.9684,6.0206,6.0293,6.0526,6.1135,6.1193,6.1193,6.1193,6.1193,6.1193,6.1193,6.1193,6.1193,6.1193,6.1193,6.1193,6.1193,6.1193,6.1193,6.1193,6.1193,6.1193,6.1193,6.1193,6.1193,6.1193,6.1193,6.1193,6.1193,6.1193,6.1193,6.1193,6.1193,6.1193,6.1193,6.1193,5.9645,5.7327,5.7102,5.5399,5.3213,7.1009,7.1009,7.0949,7.1098,7.1009,7.0889,7.0889,7.0889,7.0889,7.0889,7.0889,7.0889,7.0889,7.0889,7.0649,7.0021,6.8766,6.7778,6.7238,6.7059,6.67,6.6041,6.5862,6.5233,6.4036,6.3407,6.3108,6.3108,6.3108,6.3108,6.3108,6.3108,6.3108,6.3108,6.3108,6.3108,6.3078,6.254,6.26,6.3048,6.2361,6.2091,6.2151,6.266,6.2121,6.1166,6.1702,6.1463,6.0864,6.0715,6.1104,6.1583,6.1044,6.1792,6.2778,6.2241,6.257,6.3108,6.3108,6.3108,6.3108,6.3108,6.3108,6.3108,6.3108,6.3108,6.3108,6.3108,6.305,6.2992,6.2992,6.2554,6.2115,6.1851,6.141,6.1084,6.0991,6.099,6.1048,6.1164,6.1193,6.1193,6.1193,6.1193,6.1193,6.1193,6.1193,6.1193,6.1193,6.1193,6.1193,6.1193,6.1193,6.1193,6.1193,6.1193,6.1193,6.1193,6.1193,6.1193,6.1193,6.1193,6.1193,6.1193,6.1193,6.1193,6.1193,6.1193,6.1193,6.1193,6.1193,6.0833,6.0014,5.7806,5.6618,5.5795,7.0829,7.0889,7.0889,7.0889,7.0889,7.0889,7.0889,7.0889,7.0889,7.0889,7.0889,7.0889,7.0889,7.0649,7.0081,6.9125,6.8107,6.7358,6.6999,6.6999,6.6819,6.649,6.6191,6.5533,6.4515,6.3857,6.3407,6.3108,6.3108,6.3108,6.3108,6.3108,6.3108,6.3108,6.3108,6.3108,6.3078,6.2748,6.2778,6.3078,6.2718,6.2599,6.2629,6.2988,6.266,6.2061,6.2091,6.1672,6.1076,6.1076,6.1553,6.2032,6.1702,6.2271,6.3048,6.2689,6.2838,6.3108,6.3108,6.3108,6.3108,6.3108,6.3108,6.3108,6.3108,6.3108,6.3108,6.3108,6.3108,6.3108,6.3108,6.2818,6.2498,6.2145,6.1821,6.1494,6.1253,6.1193,6.1193,6.1193,6.1193,6.1193,6.1193,6.1193,6.1193,6.1193,6.1193,6.1193,6.1193,6.1193,6.1193,6.1193,6.1193,6.1193,6.1193,6.1193,6.1193,6.1193,6.1193,6.1193,6.1193,6.1193,6.1193,6.1193,6.1193,6.1193,6.1193,6.1193,6.1193,6.1193,6.1193,6.0802,6.0014,5.8529,5.7167,5.5729,7.0889,7.0889,7.0889,7.0889,7.0889,7.0889,7.0889,7.0889,7.0889,7.0889,7.0889,7.0889,7.0889,7.026,6.9395,6.8287,6.7448,6.6999,6.6999,6.6999,6.6939,6.6819,6.6311,6.5652,6.4845,6.4306,6.3707,6.3108,6.3108,6.3108,6.3108,6.3108,6.3108,6.3108,6.3108,6.3108,6.3108,6.2988,6.3018,6.3108,6.2988,6.2928,6.2958,6.3078,6.3048,6.2868,6.2421,6.1912,6.1433,6.1433,6.1822,6.2271,6.2271,6.2659,6.3108,6.3108,6.3108,6.3108,6.3108,6.3108,6.3108,6.3108,6.3108,6.3108,6.3108,6.3108,6.3108,6.3108,6.3108,6.3108,6.3108,6.2876,6.2585,6.2234,6.1939,6.1643,6.1343,6.1283,6.1253,6.1193,6.1193,6.1193,6.1193,6.1193,6.1193,6.1193,6.1193,6.1193,6.1193,6.1193,6.1193,6.1193,6.1193,6.1193,6.1193,6.1193,6.1193,6.1193,6.1193,6.1193,6.1193,6.1193,6.1193,6.1193,6.1193,6.1193,6.1193,6.1193,6.1193,6.1193,6.1193,6.047,5.9431,5.9183,5.7354,5.4853,7.0889,7.0889,7.0889,7.0889,7.0889,7.0889,7.0889,7.0889,7.0889,7.0889,7.0889,7.0889,7.0889,6.9842,6.9064,6.8884,6.7717,6.6999,6.6999,6.6999,6.6729,6.6161,6.6071,6.5413,6.4156,6.4036,6.3707,6.3108,6.3108,6.3108,6.3108,6.3108,6.3108,6.3108,6.3108,6.3108,6.3078,6.248,6.257,6.3048,6.245,6.2241,6.2301,6.2898,6.2748,6.2301,6.2808,6.2928,6.2838,6.2838,6.2898,6.2958,6.2958,6.3048,6.3108,6.3108,6.3108,6.3108,6.3108,6.3108,6.3108,6.3108,6.3108,6.3108,6.3108,6.3108,6.3108,6.3108,6.3108,6.3108,6.3108,6.3079,6.2934,6.2585,6.2498,6.2234,6.1643,6.1554,6.1434,6.1223,6.1193,6.1193,6.1193,6.1193,6.1193,6.1193,6.1193,6.1193,6.1193,6.1193,6.1193,6.1193,6.1193,6.1193,6.1193,6.1193,6.1193,6.1193,6.1193,6.1193,6.1193,6.1193,6.1193,6.1193,6.1193,6.1193,6.1193,6.1193,6.1193,6.1193,6.1193,6.1073,6.0772,5.9524,5.7354,5.4987,7.3015,7.3015,7.2798,7.2109,7.1951,7.1697,7.1018,7.0889,7.0889,7.0889,7.0889,7.0889,7.0889,6.9752,6.8854,6.8465,6.7208,6.661,6.6969,6.664,6.649,6.655,6.655,6.6101,6.5144,6.4755,6.4246,6.3588,6.3287,6.3108,6.3108,6.3108,6.3108,6.3108,6.3108,6.3108,6.3078,6.278,6.2838,6.3078,6.2778,6.266,6.2689,6.2988,6.2928,6.2718,6.2988,6.3108,6.3108,6.3108,6.3108,6.3108,6.3108,6.3108,6.3108,6.3108,6.3108,6.3108,6.3108,6.3108,6.3108,6.3108,6.3108,6.3108,6.3108,6.3108,6.3108,6.3108,6.3108,6.3108,6.3108,6.3108,6.2992,6.2644,6.2585,6.2439,6.1939,6.188,6.1762,6.1464,6.1434,6.1374,6.1223,6.1193,6.1193,6.1193,6.1193,6.1193,6.1193,6.1193,6.1193,6.1193,6.1193,6.1193,6.1193,6.1193,6.1193,6.1193,6.1193,6.1193,6.1193,6.1193,6.1193,6.1193,6.1193,6.1193,6.1193,6.1193,6.1193,6.1193,6.1193,6.1193,6.1043,5.9614,5.834,5.7065]}]]